<?xml version="1.0" encoding="UTF-8" standalone="no" ?>
<gpx xmlns="http://www.topografix.com/GPX/1/1" xmlns:xsi="http://www.w3.org/2001/XMLSchema-instance" xsi:schemaLocation="http://www.topografix.com/GPX/1/1 http://www.topografix.com/GPX/1/1/gpx.xsd" version="1.1" creator="VisuGPX - https://www.visugpx.com">
  <metadata>
    <name>Entre les deux étangs</name>
    <desc><![CDATA[Cyclemeter Marche 11 nov. 2022 à 14:40:32]]></desc>
  </metadata>
  <trk>
    <name><![CDATA[Rando Entre Les Deux Etangs]]></name>
    <trkseg>
      <trkpt lat="47.1016" lon="-0.9939">
        <ele>98.7</ele>
        <time>2022-11-11T13:40:32Z</time>
      </trkpt>
      <trkpt lat="47.10163" lon="-0.99392">
        <ele>98.8</ele>
        <time>2022-11-11T13:40:38Z</time>
      </trkpt>
      <trkpt lat="47.10163" lon="-0.9939">
        <ele>98.8</ele>
        <time>2022-11-11T13:40:41Z</time>
      </trkpt>
      <trkpt lat="47.10164" lon="-0.99387">
        <ele>98.8</ele>
        <time>2022-11-11T13:40:44Z</time>
      </trkpt>
      <trkpt lat="47.10164" lon="-0.99385">
        <ele>98.9</ele>
        <time>2022-11-11T13:40:46Z</time>
      </trkpt>
      <trkpt lat="47.10164" lon="-0.99382">
        <ele>98.9</ele>
        <time>2022-11-11T13:40:49Z</time>
      </trkpt>
      <trkpt lat="47.10164" lon="-0.9938">
        <ele>98.9</ele>
        <time>2022-11-11T13:40:51Z</time>
      </trkpt>
      <trkpt lat="47.10165" lon="-0.99376">
        <ele>98.9</ele>
        <time>2022-11-11T13:40:54Z</time>
      </trkpt>
      <trkpt lat="47.10165" lon="-0.99373">
        <ele>99</ele>
        <time>2022-11-11T13:40:57Z</time>
      </trkpt>
      <trkpt lat="47.10165" lon="-0.99372">
        <ele>99</ele>
        <time>2022-11-11T13:40:58Z</time>
      </trkpt>
      <trkpt lat="47.10166" lon="-0.99371">
        <ele>99</ele>
        <time>2022-11-11T13:40:59Z</time>
      </trkpt>
      <trkpt lat="47.10166" lon="-0.99365">
        <ele>99</ele>
        <time>2022-11-11T13:41:02Z</time>
      </trkpt>
      <trkpt lat="47.10167" lon="-0.99364">
        <ele>99</ele>
        <time>2022-11-11T13:41:03Z</time>
      </trkpt>
      <trkpt lat="47.10168" lon="-0.99363">
        <ele>99</ele>
        <time>2022-11-11T13:41:04Z</time>
      </trkpt>
      <trkpt lat="47.10171" lon="-0.99361">
        <ele>99</ele>
        <time>2022-11-11T13:41:07Z</time>
      </trkpt>
      <trkpt lat="47.10173" lon="-0.99359">
        <ele>99.1</ele>
        <time>2022-11-11T13:41:09Z</time>
      </trkpt>
      <trkpt lat="47.10176" lon="-0.99357">
        <ele>99.1</ele>
        <time>2022-11-11T13:41:12Z</time>
      </trkpt>
      <trkpt lat="47.1018" lon="-0.99355">
        <ele>99.1</ele>
        <time>2022-11-11T13:41:15Z</time>
      </trkpt>
      <trkpt lat="47.10181" lon="-0.99354">
        <ele>99.1</ele>
        <time>2022-11-11T13:41:17Z</time>
      </trkpt>
      <trkpt lat="47.10183" lon="-0.99352">
        <ele>99.1</ele>
        <time>2022-11-11T13:41:19Z</time>
      </trkpt>
      <trkpt lat="47.10183" lon="-0.9935">
        <ele>99.1</ele>
        <time>2022-11-11T13:41:20Z</time>
      </trkpt>
      <trkpt lat="47.10182" lon="-0.99348">
        <ele>99.2</ele>
        <time>2022-11-11T13:41:22Z</time>
      </trkpt>
      <trkpt lat="47.10182" lon="-0.99344">
        <ele>99.2</ele>
        <time>2022-11-11T13:41:25Z</time>
      </trkpt>
      <trkpt lat="47.10181" lon="-0.99341">
        <ele>99.2</ele>
        <time>2022-11-11T13:41:27Z</time>
      </trkpt>
      <trkpt lat="47.10181" lon="-0.99337">
        <ele>99.2</ele>
        <time>2022-11-11T13:41:30Z</time>
      </trkpt>
      <trkpt lat="47.1018" lon="-0.99333">
        <ele>99.3</ele>
        <time>2022-11-11T13:41:33Z</time>
      </trkpt>
      <trkpt lat="47.1018" lon="-0.99332">
        <ele>99.3</ele>
        <time>2022-11-11T13:41:34Z</time>
      </trkpt>
      <trkpt lat="47.1018" lon="-0.9933">
        <ele>99.3</ele>
        <time>2022-11-11T13:41:35Z</time>
      </trkpt>
      <trkpt lat="47.10181" lon="-0.99327">
        <ele>99.3</ele>
        <time>2022-11-11T13:41:38Z</time>
      </trkpt>
      <trkpt lat="47.10181" lon="-0.99324">
        <ele>99.3</ele>
        <time>2022-11-11T13:41:40Z</time>
      </trkpt>
      <trkpt lat="47.10181" lon="-0.9932">
        <ele>99.3</ele>
        <time>2022-11-11T13:41:43Z</time>
      </trkpt>
      <trkpt lat="47.10182" lon="-0.99318">
        <ele>99.4</ele>
        <time>2022-11-11T13:41:45Z</time>
      </trkpt>
      <trkpt lat="47.10182" lon="-0.99314">
        <ele>99.4</ele>
        <time>2022-11-11T13:41:48Z</time>
      </trkpt>
      <trkpt lat="47.10183" lon="-0.99311">
        <ele>99.4</ele>
        <time>2022-11-11T13:41:51Z</time>
      </trkpt>
      <trkpt lat="47.10183" lon="-0.99309">
        <ele>99.4</ele>
        <time>2022-11-11T13:41:52Z</time>
      </trkpt>
      <trkpt lat="47.10183" lon="-0.99308">
        <ele>99.4</ele>
        <time>2022-11-11T13:41:53Z</time>
      </trkpt>
      <trkpt lat="47.10185" lon="-0.99304">
        <ele>99.5</ele>
        <time>2022-11-11T13:41:56Z</time>
      </trkpt>
      <trkpt lat="47.10186" lon="-0.99301">
        <ele>99.5</ele>
        <time>2022-11-11T13:41:58Z</time>
      </trkpt>
      <trkpt lat="47.10188" lon="-0.99298">
        <ele>99.5</ele>
        <time>2022-11-11T13:42:01Z</time>
      </trkpt>
      <trkpt lat="47.10189" lon="-0.99295">
        <ele>99.5</ele>
        <time>2022-11-11T13:42:03Z</time>
      </trkpt>
      <trkpt lat="47.10191" lon="-0.99291">
        <ele>99.5</ele>
        <time>2022-11-11T13:42:06Z</time>
      </trkpt>
      <trkpt lat="47.10194" lon="-0.9929">
        <ele>99.6</ele>
        <time>2022-11-11T13:42:09Z</time>
      </trkpt>
      <trkpt lat="47.10196" lon="-0.99289">
        <ele>99.6</ele>
        <time>2022-11-11T13:42:11Z</time>
      </trkpt>
      <trkpt lat="47.10199" lon="-0.99288">
        <ele>99.6</ele>
        <time>2022-11-11T13:42:14Z</time>
      </trkpt>
      <trkpt lat="47.10201" lon="-0.99287">
        <ele>99.6</ele>
        <time>2022-11-11T13:42:16Z</time>
      </trkpt>
      <trkpt lat="47.10204" lon="-0.99286">
        <ele>99.7</ele>
        <time>2022-11-11T13:42:19Z</time>
      </trkpt>
      <trkpt lat="47.10205" lon="-0.99285">
        <ele>99.7</ele>
        <time>2022-11-11T13:42:20Z</time>
      </trkpt>
      <trkpt lat="47.10206" lon="-0.99286">
        <ele>99.7</ele>
        <time>2022-11-11T13:42:21Z</time>
      </trkpt>
      <trkpt lat="47.10209" lon="-0.99288">
        <ele>99.7</ele>
        <time>2022-11-11T13:42:24Z</time>
      </trkpt>
      <trkpt lat="47.10213" lon="-0.99289">
        <ele>99.7</ele>
        <time>2022-11-11T13:42:27Z</time>
      </trkpt>
      <trkpt lat="47.10215" lon="-0.99291">
        <ele>99.7</ele>
        <time>2022-11-11T13:42:29Z</time>
      </trkpt>
      <trkpt lat="47.10218" lon="-0.99292">
        <ele>99.8</ele>
        <time>2022-11-11T13:42:32Z</time>
      </trkpt>
      <trkpt lat="47.10219" lon="-0.99293">
        <ele>99.8</ele>
        <time>2022-11-11T13:42:33Z</time>
      </trkpt>
      <trkpt lat="47.1022" lon="-0.99293">
        <ele>99.8</ele>
        <time>2022-11-11T13:42:34Z</time>
      </trkpt>
      <trkpt lat="47.10222" lon="-0.99293">
        <ele>99.8</ele>
        <time>2022-11-11T13:42:37Z</time>
      </trkpt>
      <trkpt lat="47.10225" lon="-0.99294">
        <ele>99.8</ele>
        <time>2022-11-11T13:42:40Z</time>
      </trkpt>
      <trkpt lat="47.10226" lon="-0.99294">
        <ele>99.9</ele>
        <time>2022-11-11T13:42:42Z</time>
      </trkpt>
      <trkpt lat="47.10229" lon="-0.99294">
        <ele>99.9</ele>
        <time>2022-11-11T13:42:45Z</time>
      </trkpt>
      <trkpt lat="47.10231" lon="-0.99295">
        <ele>99.9</ele>
        <time>2022-11-11T13:42:47Z</time>
      </trkpt>
      <trkpt lat="47.10232" lon="-0.99295">
        <ele>99.9</ele>
        <time>2022-11-11T13:42:49Z</time>
      </trkpt>
      <trkpt lat="47.10234" lon="-0.99295">
        <ele>99.9</ele>
        <time>2022-11-11T13:42:50Z</time>
      </trkpt>
      <trkpt lat="47.10236" lon="-0.99294">
        <ele>99.9</ele>
        <time>2022-11-11T13:42:52Z</time>
      </trkpt>
      <trkpt lat="47.10239" lon="-0.99294">
        <ele>100</ele>
        <time>2022-11-11T13:42:55Z</time>
      </trkpt>
      <trkpt lat="47.10243" lon="-0.99294">
        <ele>100</ele>
        <time>2022-11-11T13:42:58Z</time>
      </trkpt>
      <trkpt lat="47.10245" lon="-0.99293">
        <ele>100</ele>
        <time>2022-11-11T13:43:00Z</time>
      </trkpt>
      <trkpt lat="47.10246" lon="-0.99293">
        <ele>100</ele>
        <time>2022-11-11T13:43:01Z</time>
      </trkpt>
      <trkpt lat="47.10248" lon="-0.99294">
        <ele>100</ele>
        <time>2022-11-11T13:43:03Z</time>
      </trkpt>
      <trkpt lat="47.10249" lon="-0.99296">
        <ele>100.1</ele>
        <time>2022-11-11T13:43:05Z</time>
      </trkpt>
      <trkpt lat="47.1025" lon="-0.99298">
        <ele>100.1</ele>
        <time>2022-11-11T13:43:08Z</time>
      </trkpt>
      <trkpt lat="47.10251" lon="-0.99299">
        <ele>100.1</ele>
        <time>2022-11-11T13:43:10Z</time>
      </trkpt>
      <trkpt lat="47.10253" lon="-0.99301">
        <ele>100.1</ele>
        <time>2022-11-11T13:43:13Z</time>
      </trkpt>
      <trkpt lat="47.10255" lon="-0.99303">
        <ele>100.1</ele>
        <time>2022-11-11T13:43:16Z</time>
      </trkpt>
      <trkpt lat="47.10256" lon="-0.99304">
        <ele>100.2</ele>
        <time>2022-11-11T13:43:18Z</time>
      </trkpt>
      <trkpt lat="47.10257" lon="-0.99306">
        <ele>100.2</ele>
        <time>2022-11-11T13:43:21Z</time>
      </trkpt>
      <trkpt lat="47.10258" lon="-0.99308">
        <ele>100.2</ele>
        <time>2022-11-11T13:43:23Z</time>
      </trkpt>
      <trkpt lat="47.10259" lon="-0.9931">
        <ele>100.2</ele>
        <time>2022-11-11T13:43:26Z</time>
      </trkpt>
      <trkpt lat="47.1026" lon="-0.99312">
        <ele>100.3</ele>
        <time>2022-11-11T13:43:28Z</time>
      </trkpt>
      <trkpt lat="47.10261" lon="-0.99314">
        <ele>100.3</ele>
        <time>2022-11-11T13:43:31Z</time>
      </trkpt>
      <trkpt lat="47.10262" lon="-0.99317">
        <ele>100.3</ele>
        <time>2022-11-11T13:43:34Z</time>
      </trkpt>
      <trkpt lat="47.10263" lon="-0.99318">
        <ele>100.3</ele>
        <time>2022-11-11T13:43:36Z</time>
      </trkpt>
      <trkpt lat="47.10264" lon="-0.99321">
        <ele>100.3</ele>
        <time>2022-11-11T13:43:39Z</time>
      </trkpt>
      <trkpt lat="47.10264" lon="-0.99322">
        <ele>100.4</ele>
        <time>2022-11-11T13:43:41Z</time>
      </trkpt>
      <trkpt lat="47.10265" lon="-0.99323">
        <ele>100.4</ele>
        <time>2022-11-11T13:43:42Z</time>
      </trkpt>
      <trkpt lat="47.10267" lon="-0.99324">
        <ele>100.4</ele>
        <time>2022-11-11T13:43:44Z</time>
      </trkpt>
      <trkpt lat="47.10269" lon="-0.99326">
        <ele>100.4</ele>
        <time>2022-11-11T13:43:46Z</time>
      </trkpt>
      <trkpt lat="47.10272" lon="-0.99328">
        <ele>100.4</ele>
        <time>2022-11-11T13:43:49Z</time>
      </trkpt>
      <trkpt lat="47.10275" lon="-0.99329">
        <ele>100.5</ele>
        <time>2022-11-11T13:43:52Z</time>
      </trkpt>
      <trkpt lat="47.10277" lon="-0.99331">
        <ele>100.5</ele>
        <time>2022-11-11T13:43:54Z</time>
      </trkpt>
      <trkpt lat="47.10278" lon="-0.99331">
        <ele>100.5</ele>
        <time>2022-11-11T13:43:55Z</time>
      </trkpt>
      <trkpt lat="47.1028" lon="-0.99331">
        <ele>100.5</ele>
        <time>2022-11-11T13:43:57Z</time>
      </trkpt>
      <trkpt lat="47.10282" lon="-0.99331">
        <ele>100.5</ele>
        <time>2022-11-11T13:43:59Z</time>
      </trkpt>
      <trkpt lat="47.10285" lon="-0.9933">
        <ele>100.5</ele>
        <time>2022-11-11T13:44:02Z</time>
      </trkpt>
      <trkpt lat="47.10287" lon="-0.9933">
        <ele>100.6</ele>
        <time>2022-11-11T13:44:04Z</time>
      </trkpt>
      <trkpt lat="47.1029" lon="-0.99329">
        <ele>100.6</ele>
        <time>2022-11-11T13:44:07Z</time>
      </trkpt>
      <trkpt lat="47.10291" lon="-0.99329">
        <ele>100.6</ele>
        <time>2022-11-11T13:44:08Z</time>
      </trkpt>
      <trkpt lat="47.10294" lon="-0.99328">
        <ele>100.6</ele>
        <time>2022-11-11T13:44:10Z</time>
      </trkpt>
      <trkpt lat="47.10296" lon="-0.99327">
        <ele>100.6</ele>
        <time>2022-11-11T13:44:12Z</time>
      </trkpt>
      <trkpt lat="47.10299" lon="-0.99325">
        <ele>100.7</ele>
        <time>2022-11-11T13:44:15Z</time>
      </trkpt>
      <trkpt lat="47.10301" lon="-0.99324">
        <ele>100.7</ele>
        <time>2022-11-11T13:44:17Z</time>
      </trkpt>
      <trkpt lat="47.10305" lon="-0.99322">
        <ele>100.7</ele>
        <time>2022-11-11T13:44:20Z</time>
      </trkpt>
      <trkpt lat="47.10306" lon="-0.99321">
        <ele>100.7</ele>
        <time>2022-11-11T13:44:22Z</time>
      </trkpt>
      <trkpt lat="47.10309" lon="-0.99319">
        <ele>100.7</ele>
        <time>2022-11-11T13:44:25Z</time>
      </trkpt>
      <trkpt lat="47.10312" lon="-0.99318">
        <ele>100.8</ele>
        <time>2022-11-11T13:44:28Z</time>
      </trkpt>
      <trkpt lat="47.10314" lon="-0.99317">
        <ele>100.8</ele>
        <time>2022-11-11T13:44:30Z</time>
      </trkpt>
      <trkpt lat="47.10316" lon="-0.99316">
        <ele>100.8</ele>
        <time>2022-11-11T13:44:33Z</time>
      </trkpt>
      <trkpt lat="47.10318" lon="-0.99315">
        <ele>100.8</ele>
        <time>2022-11-11T13:44:35Z</time>
      </trkpt>
      <trkpt lat="47.10321" lon="-0.99311">
        <ele>100.9</ele>
        <time>2022-11-11T13:44:38Z</time>
      </trkpt>
      <trkpt lat="47.10323" lon="-0.99309">
        <ele>100.9</ele>
        <time>2022-11-11T13:44:40Z</time>
      </trkpt>
      <trkpt lat="47.10325" lon="-0.99306">
        <ele>100.9</ele>
        <time>2022-11-11T13:44:43Z</time>
      </trkpt>
      <trkpt lat="47.10328" lon="-0.99303">
        <ele>100.9</ele>
        <time>2022-11-11T13:44:46Z</time>
      </trkpt>
      <trkpt lat="47.10329" lon="-0.99302">
        <ele>100.9</ele>
        <time>2022-11-11T13:44:47Z</time>
      </trkpt>
      <trkpt lat="47.10329" lon="-0.99301">
        <ele>100.9</ele>
        <time>2022-11-11T13:44:48Z</time>
      </trkpt>
      <trkpt lat="47.10329" lon="-0.99298">
        <ele>101</ele>
        <time>2022-11-11T13:44:51Z</time>
      </trkpt>
      <trkpt lat="47.10329" lon="-0.99297">
        <ele>101</ele>
        <time>2022-11-11T13:44:53Z</time>
      </trkpt>
      <trkpt lat="47.1033" lon="-0.99294">
        <ele>101</ele>
        <time>2022-11-11T13:44:56Z</time>
      </trkpt>
      <trkpt lat="47.1033" lon="-0.99293">
        <ele>101</ele>
        <time>2022-11-11T13:44:58Z</time>
      </trkpt>
      <trkpt lat="47.1033" lon="-0.9929">
        <ele>101.1</ele>
        <time>2022-11-11T13:45:01Z</time>
      </trkpt>
      <trkpt lat="47.1033" lon="-0.99288">
        <ele>101.1</ele>
        <time>2022-11-11T13:45:04Z</time>
      </trkpt>
      <trkpt lat="47.10331" lon="-0.99286">
        <ele>101.1</ele>
        <time>2022-11-11T13:45:06Z</time>
      </trkpt>
      <trkpt lat="47.10331" lon="-0.99284">
        <ele>101.1</ele>
        <time>2022-11-11T13:45:09Z</time>
      </trkpt>
      <trkpt lat="47.10331" lon="-0.99282">
        <ele>101.1</ele>
        <time>2022-11-11T13:45:11Z</time>
      </trkpt>
      <trkpt lat="47.10331" lon="-0.99281">
        <ele>101.1</ele>
        <time>2022-11-11T13:45:12Z</time>
      </trkpt>
      <trkpt lat="47.10333" lon="-0.99279">
        <ele>101.2</ele>
        <time>2022-11-11T13:45:14Z</time>
      </trkpt>
      <trkpt lat="47.10334" lon="-0.99277">
        <ele>101.2</ele>
        <time>2022-11-11T13:45:16Z</time>
      </trkpt>
      <trkpt lat="47.10336" lon="-0.99274">
        <ele>101.2</ele>
        <time>2022-11-11T13:45:19Z</time>
      </trkpt>
      <trkpt lat="47.10338" lon="-0.99271">
        <ele>101.2</ele>
        <time>2022-11-11T13:45:22Z</time>
      </trkpt>
      <trkpt lat="47.1034" lon="-0.99268">
        <ele>101.3</ele>
        <time>2022-11-11T13:45:25Z</time>
      </trkpt>
      <trkpt lat="47.10341" lon="-0.99267">
        <ele>101.3</ele>
        <time>2022-11-11T13:45:26Z</time>
      </trkpt>
      <trkpt lat="47.10342" lon="-0.99266">
        <ele>101.3</ele>
        <time>2022-11-11T13:45:27Z</time>
      </trkpt>
      <trkpt lat="47.10344" lon="-0.99263">
        <ele>101.3</ele>
        <time>2022-11-11T13:45:29Z</time>
      </trkpt>
      <trkpt lat="47.10347" lon="-0.99259">
        <ele>101.3</ele>
        <time>2022-11-11T13:45:32Z</time>
      </trkpt>
      <trkpt lat="47.10349" lon="-0.99256">
        <ele>101.3</ele>
        <time>2022-11-11T13:45:34Z</time>
      </trkpt>
      <trkpt lat="47.10352" lon="-0.99252">
        <ele>101.4</ele>
        <time>2022-11-11T13:45:37Z</time>
      </trkpt>
      <trkpt lat="47.10354" lon="-0.9925">
        <ele>101.4</ele>
        <time>2022-11-11T13:45:40Z</time>
      </trkpt>
      <trkpt lat="47.10356" lon="-0.99248">
        <ele>101.4</ele>
        <time>2022-11-11T13:45:42Z</time>
      </trkpt>
      <trkpt lat="47.10358" lon="-0.99245">
        <ele>101.4</ele>
        <time>2022-11-11T13:45:45Z</time>
      </trkpt>
      <trkpt lat="47.1036" lon="-0.99243">
        <ele>101.4</ele>
        <time>2022-11-11T13:45:47Z</time>
      </trkpt>
      <trkpt lat="47.10363" lon="-0.99241">
        <ele>101.5</ele>
        <time>2022-11-11T13:45:50Z</time>
      </trkpt>
      <trkpt lat="47.10363" lon="-0.9924">
        <ele>101.5</ele>
        <time>2022-11-11T13:45:51Z</time>
      </trkpt>
      <trkpt lat="47.10365" lon="-0.99237">
        <ele>101.5</ele>
        <time>2022-11-11T13:45:53Z</time>
      </trkpt>
      <trkpt lat="47.10366" lon="-0.99234">
        <ele>101.5</ele>
        <time>2022-11-11T13:45:55Z</time>
      </trkpt>
      <trkpt lat="47.10368" lon="-0.99229">
        <ele>101.5</ele>
        <time>2022-11-11T13:45:58Z</time>
      </trkpt>
      <trkpt lat="47.1037" lon="-0.99226">
        <ele>101.6</ele>
        <time>2022-11-11T13:46:00Z</time>
      </trkpt>
      <trkpt lat="47.10371" lon="-0.99223">
        <ele>101.6</ele>
        <time>2022-11-11T13:46:02Z</time>
      </trkpt>
      <trkpt lat="47.10372" lon="-0.99221">
        <ele>101.6</ele>
        <time>2022-11-11T13:46:03Z</time>
      </trkpt>
      <trkpt lat="47.10373" lon="-0.99219">
        <ele>101.6</ele>
        <time>2022-11-11T13:46:05Z</time>
      </trkpt>
      <trkpt lat="47.10375" lon="-0.99215">
        <ele>101.6</ele>
        <time>2022-11-11T13:46:08Z</time>
      </trkpt>
      <trkpt lat="47.10377" lon="-0.99212">
        <ele>101.7</ele>
        <time>2022-11-11T13:46:11Z</time>
      </trkpt>
      <trkpt lat="47.10379" lon="-0.99209">
        <ele>101.7</ele>
        <time>2022-11-11T13:46:13Z</time>
      </trkpt>
      <trkpt lat="47.1038" lon="-0.99207">
        <ele>101.7</ele>
        <time>2022-11-11T13:46:15Z</time>
      </trkpt>
      <trkpt lat="47.10381" lon="-0.99206">
        <ele>101.7</ele>
        <time>2022-11-11T13:46:16Z</time>
      </trkpt>
      <trkpt lat="47.10383" lon="-0.99205">
        <ele>101.7</ele>
        <time>2022-11-11T13:46:18Z</time>
      </trkpt>
      <trkpt lat="47.10387" lon="-0.99204">
        <ele>101.7</ele>
        <time>2022-11-11T13:46:21Z</time>
      </trkpt>
      <trkpt lat="47.10389" lon="-0.99203">
        <ele>101.8</ele>
        <time>2022-11-11T13:46:23Z</time>
      </trkpt>
      <trkpt lat="47.10392" lon="-0.99202">
        <ele>101.8</ele>
        <time>2022-11-11T13:46:26Z</time>
      </trkpt>
      <trkpt lat="47.10393" lon="-0.99202">
        <ele>101.8</ele>
        <time>2022-11-11T13:46:27Z</time>
      </trkpt>
      <trkpt lat="47.10394" lon="-0.99204">
        <ele>101.8</ele>
        <time>2022-11-11T13:46:29Z</time>
      </trkpt>
      <trkpt lat="47.10395" lon="-0.99207">
        <ele>101.8</ele>
        <time>2022-11-11T13:46:31Z</time>
      </trkpt>
      <trkpt lat="47.10397" lon="-0.9921">
        <ele>101.9</ele>
        <time>2022-11-11T13:46:34Z</time>
      </trkpt>
      <trkpt lat="47.10398" lon="-0.99212">
        <ele>101.9</ele>
        <time>2022-11-11T13:46:36Z</time>
      </trkpt>
      <trkpt lat="47.104" lon="-0.99216">
        <ele>101.9</ele>
        <time>2022-11-11T13:46:39Z</time>
      </trkpt>
      <trkpt lat="47.10401" lon="-0.99218">
        <ele>101.9</ele>
        <time>2022-11-11T13:46:41Z</time>
      </trkpt>
      <trkpt lat="47.10401" lon="-0.99223">
        <ele>102</ele>
        <time>2022-11-11T13:46:44Z</time>
      </trkpt>
      <trkpt lat="47.10401" lon="-0.99227">
        <ele>102</ele>
        <time>2022-11-11T13:46:47Z</time>
      </trkpt>
      <trkpt lat="47.104" lon="-0.99229">
        <ele>102</ele>
        <time>2022-11-11T13:46:49Z</time>
      </trkpt>
      <trkpt lat="47.104" lon="-0.99234">
        <ele>102</ele>
        <time>2022-11-11T13:46:52Z</time>
      </trkpt>
      <trkpt lat="47.104" lon="-0.99236">
        <ele>102.1</ele>
        <time>2022-11-11T13:46:54Z</time>
      </trkpt>
      <trkpt lat="47.10399" lon="-0.99239">
        <ele>102.1</ele>
        <time>2022-11-11T13:46:56Z</time>
      </trkpt>
      <trkpt lat="47.10399" lon="-0.99241">
        <ele>102.1</ele>
        <time>2022-11-11T13:46:57Z</time>
      </trkpt>
      <trkpt lat="47.10399" lon="-0.99245">
        <ele>102.1</ele>
        <time>2022-11-11T13:46:59Z</time>
      </trkpt>
      <trkpt lat="47.10398" lon="-0.99251">
        <ele>102.2</ele>
        <time>2022-11-11T13:47:02Z</time>
      </trkpt>
      <trkpt lat="47.10397" lon="-0.99257">
        <ele>102.2</ele>
        <time>2022-11-11T13:47:05Z</time>
      </trkpt>
      <trkpt lat="47.10397" lon="-0.99259">
        <ele>102.2</ele>
        <time>2022-11-11T13:47:06Z</time>
      </trkpt>
      <trkpt lat="47.10397" lon="-0.9926">
        <ele>102.2</ele>
        <time>2022-11-11T13:47:07Z</time>
      </trkpt>
      <trkpt lat="47.10398" lon="-0.99265">
        <ele>102.2</ele>
        <time>2022-11-11T13:47:10Z</time>
      </trkpt>
      <trkpt lat="47.10399" lon="-0.99268">
        <ele>102.3</ele>
        <time>2022-11-11T13:47:12Z</time>
      </trkpt>
      <trkpt lat="47.10399" lon="-0.99272">
        <ele>102.3</ele>
        <time>2022-11-11T13:47:15Z</time>
      </trkpt>
      <trkpt lat="47.104" lon="-0.99275">
        <ele>102.3</ele>
        <time>2022-11-11T13:47:17Z</time>
      </trkpt>
      <trkpt lat="47.104" lon="-0.99278">
        <ele>102.3</ele>
        <time>2022-11-11T13:47:19Z</time>
      </trkpt>
      <trkpt lat="47.10401" lon="-0.99279">
        <ele>102.4</ele>
        <time>2022-11-11T13:47:20Z</time>
      </trkpt>
      <trkpt lat="47.10404" lon="-0.99282">
        <ele>102.4</ele>
        <time>2022-11-11T13:47:23Z</time>
      </trkpt>
      <trkpt lat="47.10405" lon="-0.99284">
        <ele>102.4</ele>
        <time>2022-11-11T13:47:25Z</time>
      </trkpt>
      <trkpt lat="47.10408" lon="-0.99286">
        <ele>102.4</ele>
        <time>2022-11-11T13:47:28Z</time>
      </trkpt>
      <trkpt lat="47.1041" lon="-0.99288">
        <ele>102.5</ele>
        <time>2022-11-11T13:47:30Z</time>
      </trkpt>
      <trkpt lat="47.10412" lon="-0.99291">
        <ele>102.5</ele>
        <time>2022-11-11T13:47:33Z</time>
      </trkpt>
      <trkpt lat="47.10414" lon="-0.99291">
        <ele>102.5</ele>
        <time>2022-11-11T13:47:35Z</time>
      </trkpt>
      <trkpt lat="47.10418" lon="-0.99291">
        <ele>102.6</ele>
        <time>2022-11-11T13:47:38Z</time>
      </trkpt>
      <trkpt lat="47.10421" lon="-0.99291">
        <ele>102.6</ele>
        <time>2022-11-11T13:47:41Z</time>
      </trkpt>
      <trkpt lat="47.10424" lon="-0.99291">
        <ele>102.6</ele>
        <time>2022-11-11T13:47:43Z</time>
      </trkpt>
      <trkpt lat="47.10427" lon="-0.99291">
        <ele>102.6</ele>
        <time>2022-11-11T13:47:46Z</time>
      </trkpt>
      <trkpt lat="47.10429" lon="-0.99292">
        <ele>102.7</ele>
        <time>2022-11-11T13:47:48Z</time>
      </trkpt>
      <trkpt lat="47.10433" lon="-0.99292">
        <ele>102.7</ele>
        <time>2022-11-11T13:47:51Z</time>
      </trkpt>
      <trkpt lat="47.10435" lon="-0.99292">
        <ele>102.7</ele>
        <time>2022-11-11T13:47:53Z</time>
      </trkpt>
      <trkpt lat="47.10438" lon="-0.99292">
        <ele>102.7</ele>
        <time>2022-11-11T13:47:56Z</time>
      </trkpt>
      <trkpt lat="47.10441" lon="-0.99293">
        <ele>102.8</ele>
        <time>2022-11-11T13:47:59Z</time>
      </trkpt>
      <trkpt lat="47.10442" lon="-0.99293">
        <ele>102.8</ele>
        <time>2022-11-11T13:48:00Z</time>
      </trkpt>
      <trkpt lat="47.10443" lon="-0.99293">
        <ele>102.8</ele>
        <time>2022-11-11T13:48:01Z</time>
      </trkpt>
      <trkpt lat="47.10446" lon="-0.99294">
        <ele>102.8</ele>
        <time>2022-11-11T13:48:04Z</time>
      </trkpt>
      <trkpt lat="47.10449" lon="-0.99295">
        <ele>102.9</ele>
        <time>2022-11-11T13:48:06Z</time>
      </trkpt>
      <trkpt lat="47.10452" lon="-0.99296">
        <ele>102.9</ele>
        <time>2022-11-11T13:48:09Z</time>
      </trkpt>
      <trkpt lat="47.10454" lon="-0.99297">
        <ele>102.9</ele>
        <time>2022-11-11T13:48:11Z</time>
      </trkpt>
      <trkpt lat="47.10455" lon="-0.99297">
        <ele>102.9</ele>
        <time>2022-11-11T13:48:12Z</time>
      </trkpt>
      <trkpt lat="47.10457" lon="-0.993">
        <ele>102.9</ele>
        <time>2022-11-11T13:48:14Z</time>
      </trkpt>
      <trkpt lat="47.10459" lon="-0.99303">
        <ele>103</ele>
        <time>2022-11-11T13:48:17Z</time>
      </trkpt>
      <trkpt lat="47.10461" lon="-0.99306">
        <ele>103</ele>
        <time>2022-11-11T13:48:19Z</time>
      </trkpt>
      <trkpt lat="47.10464" lon="-0.9931">
        <ele>103</ele>
        <time>2022-11-11T13:48:22Z</time>
      </trkpt>
      <trkpt lat="47.10465" lon="-0.99312">
        <ele>103.1</ele>
        <time>2022-11-11T13:48:24Z</time>
      </trkpt>
      <trkpt lat="47.10467" lon="-0.99317">
        <ele>103.1</ele>
        <time>2022-11-11T13:48:27Z</time>
      </trkpt>
      <trkpt lat="47.10469" lon="-0.9932">
        <ele>103.1</ele>
        <time>2022-11-11T13:48:29Z</time>
      </trkpt>
      <trkpt lat="47.1047" lon="-0.99324">
        <ele>103.1</ele>
        <time>2022-11-11T13:48:32Z</time>
      </trkpt>
      <trkpt lat="47.10472" lon="-0.99329">
        <ele>103.2</ele>
        <time>2022-11-11T13:48:35Z</time>
      </trkpt>
      <trkpt lat="47.10473" lon="-0.9933">
        <ele>103.2</ele>
        <time>2022-11-11T13:48:36Z</time>
      </trkpt>
      <trkpt lat="47.10474" lon="-0.99331">
        <ele>103.2</ele>
        <time>2022-11-11T13:48:37Z</time>
      </trkpt>
      <trkpt lat="47.10476" lon="-0.99335">
        <ele>103.2</ele>
        <time>2022-11-11T13:48:40Z</time>
      </trkpt>
      <trkpt lat="47.10477" lon="-0.99338">
        <ele>103.3</ele>
        <time>2022-11-11T13:48:42Z</time>
      </trkpt>
      <trkpt lat="47.10479" lon="-0.99342">
        <ele>103.3</ele>
        <time>2022-11-11T13:48:45Z</time>
      </trkpt>
      <trkpt lat="47.10481" lon="-0.99345">
        <ele>103.3</ele>
        <time>2022-11-11T13:48:47Z</time>
      </trkpt>
      <trkpt lat="47.10481" lon="-0.99346">
        <ele>103.3</ele>
        <time>2022-11-11T13:48:48Z</time>
      </trkpt>
      <trkpt lat="47.10483" lon="-0.99349">
        <ele>103.3</ele>
        <time>2022-11-11T13:48:50Z</time>
      </trkpt>
      <trkpt lat="47.10485" lon="-0.99353">
        <ele>103.4</ele>
        <time>2022-11-11T13:48:53Z</time>
      </trkpt>
      <trkpt lat="47.10487" lon="-0.99356">
        <ele>103.4</ele>
        <time>2022-11-11T13:48:55Z</time>
      </trkpt>
      <trkpt lat="47.10489" lon="-0.9936">
        <ele>103.4</ele>
        <time>2022-11-11T13:48:58Z</time>
      </trkpt>
      <trkpt lat="47.1049" lon="-0.99362">
        <ele>103.4</ele>
        <time>2022-11-11T13:48:59Z</time>
      </trkpt>
      <trkpt lat="47.10491" lon="-0.99363">
        <ele>103.5</ele>
        <time>2022-11-11T13:49:00Z</time>
      </trkpt>
      <trkpt lat="47.10493" lon="-0.99365">
        <ele>103.5</ele>
        <time>2022-11-11T13:49:03Z</time>
      </trkpt>
      <trkpt lat="47.10495" lon="-0.99367">
        <ele>103.5</ele>
        <time>2022-11-11T13:49:06Z</time>
      </trkpt>
      <trkpt lat="47.10496" lon="-0.99368">
        <ele>103.5</ele>
        <time>2022-11-11T13:49:07Z</time>
      </trkpt>
      <trkpt lat="47.10497" lon="-0.99368">
        <ele>103.5</ele>
        <time>2022-11-11T13:49:08Z</time>
      </trkpt>
      <trkpt lat="47.10502" lon="-0.99368">
        <ele>103.6</ele>
        <time>2022-11-11T13:49:11Z</time>
      </trkpt>
      <trkpt lat="47.10505" lon="-0.99368">
        <ele>103.6</ele>
        <time>2022-11-11T13:49:13Z</time>
      </trkpt>
      <trkpt lat="47.1051" lon="-0.99368">
        <ele>103.6</ele>
        <time>2022-11-11T13:49:16Z</time>
      </trkpt>
      <trkpt lat="47.10512" lon="-0.99369">
        <ele>103.6</ele>
        <time>2022-11-11T13:49:18Z</time>
      </trkpt>
      <trkpt lat="47.10515" lon="-0.99369">
        <ele>103.7</ele>
        <time>2022-11-11T13:49:21Z</time>
      </trkpt>
      <trkpt lat="47.10518" lon="-0.9937">
        <ele>103.7</ele>
        <time>2022-11-11T13:49:24Z</time>
      </trkpt>
      <trkpt lat="47.10521" lon="-0.99371">
        <ele>103.7</ele>
        <time>2022-11-11T13:49:26Z</time>
      </trkpt>
      <trkpt lat="47.10524" lon="-0.99371">
        <ele>103.8</ele>
        <time>2022-11-11T13:49:29Z</time>
      </trkpt>
      <trkpt lat="47.10526" lon="-0.99372">
        <ele>103.8</ele>
        <time>2022-11-11T13:49:31Z</time>
      </trkpt>
      <trkpt lat="47.10529" lon="-0.99372">
        <ele>103.8</ele>
        <time>2022-11-11T13:49:34Z</time>
      </trkpt>
      <trkpt lat="47.10531" lon="-0.99373">
        <ele>103.8</ele>
        <time>2022-11-11T13:49:36Z</time>
      </trkpt>
      <trkpt lat="47.10535" lon="-0.99373">
        <ele>103.9</ele>
        <time>2022-11-11T13:49:39Z</time>
      </trkpt>
      <trkpt lat="47.10538" lon="-0.99374">
        <ele>103.9</ele>
        <time>2022-11-11T13:49:42Z</time>
      </trkpt>
      <trkpt lat="47.1054" lon="-0.99374">
        <ele>103.9</ele>
        <time>2022-11-11T13:49:44Z</time>
      </trkpt>
      <trkpt lat="47.10544" lon="-0.99374">
        <ele>104</ele>
        <time>2022-11-11T13:49:47Z</time>
      </trkpt>
      <trkpt lat="47.10546" lon="-0.99375">
        <ele>104</ele>
        <time>2022-11-11T13:49:49Z</time>
      </trkpt>
      <trkpt lat="47.1055" lon="-0.99375">
        <ele>104</ele>
        <time>2022-11-11T13:49:52Z</time>
      </trkpt>
      <trkpt lat="47.10552" lon="-0.99375">
        <ele>104</ele>
        <time>2022-11-11T13:49:54Z</time>
      </trkpt>
      <trkpt lat="47.10555" lon="-0.99376">
        <ele>104.1</ele>
        <time>2022-11-11T13:49:57Z</time>
      </trkpt>
      <trkpt lat="47.10558" lon="-0.99377">
        <ele>104.1</ele>
        <time>2022-11-11T13:50:00Z</time>
      </trkpt>
      <trkpt lat="47.1056" lon="-0.99377">
        <ele>104.1</ele>
        <time>2022-11-11T13:50:02Z</time>
      </trkpt>
      <trkpt lat="47.10563" lon="-0.99378">
        <ele>104.2</ele>
        <time>2022-11-11T13:50:05Z</time>
      </trkpt>
      <trkpt lat="47.10565" lon="-0.99378">
        <ele>104.2</ele>
        <time>2022-11-11T13:50:07Z</time>
      </trkpt>
      <trkpt lat="47.10569" lon="-0.9938">
        <ele>104.2</ele>
        <time>2022-11-11T13:50:10Z</time>
      </trkpt>
      <trkpt lat="47.10571" lon="-0.9938">
        <ele>104.2</ele>
        <time>2022-11-11T13:50:12Z</time>
      </trkpt>
      <trkpt lat="47.10574" lon="-0.99382">
        <ele>104.3</ele>
        <time>2022-11-11T13:50:15Z</time>
      </trkpt>
      <trkpt lat="47.10578" lon="-0.99383">
        <ele>104.3</ele>
        <time>2022-11-11T13:50:18Z</time>
      </trkpt>
      <trkpt lat="47.10579" lon="-0.99383">
        <ele>104.3</ele>
        <time>2022-11-11T13:50:19Z</time>
      </trkpt>
      <trkpt lat="47.1058" lon="-0.99383">
        <ele>104.3</ele>
        <time>2022-11-11T13:50:20Z</time>
      </trkpt>
      <trkpt lat="47.10582" lon="-0.99384">
        <ele>104.4</ele>
        <time>2022-11-11T13:50:23Z</time>
      </trkpt>
      <trkpt lat="47.10584" lon="-0.99385">
        <ele>104.4</ele>
        <time>2022-11-11T13:50:25Z</time>
      </trkpt>
      <trkpt lat="47.10587" lon="-0.99385">
        <ele>104.4</ele>
        <time>2022-11-11T13:50:28Z</time>
      </trkpt>
      <trkpt lat="47.10589" lon="-0.99386">
        <ele>104.4</ele>
        <time>2022-11-11T13:50:30Z</time>
      </trkpt>
      <trkpt lat="47.10591" lon="-0.99387">
        <ele>104.5</ele>
        <time>2022-11-11T13:50:33Z</time>
      </trkpt>
      <trkpt lat="47.10593" lon="-0.99387">
        <ele>104.5</ele>
        <time>2022-11-11T13:50:35Z</time>
      </trkpt>
      <trkpt lat="47.10594" lon="-0.99387">
        <ele>104.5</ele>
        <time>2022-11-11T13:50:36Z</time>
      </trkpt>
      <trkpt lat="47.10597" lon="-0.99388">
        <ele>104.5</ele>
        <time>2022-11-11T13:50:38Z</time>
      </trkpt>
      <trkpt lat="47.106" lon="-0.99389">
        <ele>104.6</ele>
        <time>2022-11-11T13:50:41Z</time>
      </trkpt>
      <trkpt lat="47.10602" lon="-0.99389">
        <ele>104.6</ele>
        <time>2022-11-11T13:50:43Z</time>
      </trkpt>
      <trkpt lat="47.10605" lon="-0.9939">
        <ele>104.6</ele>
        <time>2022-11-11T13:50:46Z</time>
      </trkpt>
      <trkpt lat="47.10607" lon="-0.9939">
        <ele>104.6</ele>
        <time>2022-11-11T13:50:48Z</time>
      </trkpt>
      <trkpt lat="47.1061" lon="-0.99391">
        <ele>104.7</ele>
        <time>2022-11-11T13:50:51Z</time>
      </trkpt>
      <trkpt lat="47.10613" lon="-0.99392">
        <ele>104.7</ele>
        <time>2022-11-11T13:50:54Z</time>
      </trkpt>
      <trkpt lat="47.10615" lon="-0.99393">
        <ele>104.7</ele>
        <time>2022-11-11T13:50:56Z</time>
      </trkpt>
      <trkpt lat="47.10618" lon="-0.99394">
        <ele>104.8</ele>
        <time>2022-11-11T13:50:59Z</time>
      </trkpt>
      <trkpt lat="47.1062" lon="-0.99395">
        <ele>104.8</ele>
        <time>2022-11-11T13:51:01Z</time>
      </trkpt>
      <trkpt lat="47.10621" lon="-0.99395">
        <ele>104.8</ele>
        <time>2022-11-11T13:51:02Z</time>
      </trkpt>
      <trkpt lat="47.10624" lon="-0.99395">
        <ele>104.8</ele>
        <time>2022-11-11T13:51:04Z</time>
      </trkpt>
      <trkpt lat="47.10626" lon="-0.99395">
        <ele>104.8</ele>
        <time>2022-11-11T13:51:06Z</time>
      </trkpt>
      <trkpt lat="47.10629" lon="-0.99396">
        <ele>104.9</ele>
        <time>2022-11-11T13:51:09Z</time>
      </trkpt>
      <trkpt lat="47.10632" lon="-0.99396">
        <ele>104.9</ele>
        <time>2022-11-11T13:51:12Z</time>
      </trkpt>
      <trkpt lat="47.10634" lon="-0.99396">
        <ele>104.9</ele>
        <time>2022-11-11T13:51:14Z</time>
      </trkpt>
      <trkpt lat="47.10635" lon="-0.99396">
        <ele>105</ele>
        <time>2022-11-11T13:51:15Z</time>
      </trkpt>
      <trkpt lat="47.10637" lon="-0.99397">
        <ele>105</ele>
        <time>2022-11-11T13:51:17Z</time>
      </trkpt>
      <trkpt lat="47.10639" lon="-0.99399">
        <ele>105.1</ele>
        <time>2022-11-11T13:51:19Z</time>
      </trkpt>
      <trkpt lat="47.10642" lon="-0.994">
        <ele>105.1</ele>
        <time>2022-11-11T13:51:22Z</time>
      </trkpt>
      <trkpt lat="47.10644" lon="-0.99402">
        <ele>105.2</ele>
        <time>2022-11-11T13:51:24Z</time>
      </trkpt>
      <trkpt lat="47.10646" lon="-0.99403">
        <ele>105.3</ele>
        <time>2022-11-11T13:51:27Z</time>
      </trkpt>
      <trkpt lat="47.10648" lon="-0.99405">
        <ele>105.3</ele>
        <time>2022-11-11T13:51:29Z</time>
      </trkpt>
      <trkpt lat="47.10649" lon="-0.99406">
        <ele>105.4</ele>
        <time>2022-11-11T13:51:30Z</time>
      </trkpt>
      <trkpt lat="47.10651" lon="-0.99408">
        <ele>105.4</ele>
        <time>2022-11-11T13:51:32Z</time>
      </trkpt>
      <trkpt lat="47.10653" lon="-0.99411">
        <ele>105.5</ele>
        <time>2022-11-11T13:51:35Z</time>
      </trkpt>
      <trkpt lat="47.10655" lon="-0.99412">
        <ele>105.5</ele>
        <time>2022-11-11T13:51:37Z</time>
      </trkpt>
      <trkpt lat="47.10657" lon="-0.99415">
        <ele>105.6</ele>
        <time>2022-11-11T13:51:40Z</time>
      </trkpt>
      <trkpt lat="47.10659" lon="-0.99417">
        <ele>105.7</ele>
        <time>2022-11-11T13:51:42Z</time>
      </trkpt>
      <trkpt lat="47.1066" lon="-0.99418">
        <ele>105.7</ele>
        <time>2022-11-11T13:51:43Z</time>
      </trkpt>
      <trkpt lat="47.10662" lon="-0.99418">
        <ele>105.8</ele>
        <time>2022-11-11T13:51:45Z</time>
      </trkpt>
      <trkpt lat="47.10665" lon="-0.99418">
        <ele>105.8</ele>
        <time>2022-11-11T13:51:48Z</time>
      </trkpt>
      <trkpt lat="47.10667" lon="-0.99418">
        <ele>105.9</ele>
        <time>2022-11-11T13:51:50Z</time>
      </trkpt>
      <trkpt lat="47.1067" lon="-0.99418">
        <ele>106</ele>
        <time>2022-11-11T13:51:53Z</time>
      </trkpt>
      <trkpt lat="47.10672" lon="-0.99418">
        <ele>106</ele>
        <time>2022-11-11T13:51:55Z</time>
      </trkpt>
      <trkpt lat="47.10675" lon="-0.99417">
        <ele>106.1</ele>
        <time>2022-11-11T13:51:58Z</time>
      </trkpt>
      <trkpt lat="47.10677" lon="-0.99417">
        <ele>106.2</ele>
        <time>2022-11-11T13:52:00Z</time>
      </trkpt>
      <trkpt lat="47.1068" lon="-0.99416">
        <ele>106.2</ele>
        <time>2022-11-11T13:52:03Z</time>
      </trkpt>
      <trkpt lat="47.10684" lon="-0.99415">
        <ele>106.3</ele>
        <time>2022-11-11T13:52:06Z</time>
      </trkpt>
      <trkpt lat="47.10686" lon="-0.99414">
        <ele>106.4</ele>
        <time>2022-11-11T13:52:08Z</time>
      </trkpt>
      <trkpt lat="47.10688" lon="-0.99413">
        <ele>106.4</ele>
        <time>2022-11-11T13:52:10Z</time>
      </trkpt>
      <trkpt lat="47.10689" lon="-0.99413">
        <ele>106.5</ele>
        <time>2022-11-11T13:52:11Z</time>
      </trkpt>
      <trkpt lat="47.10691" lon="-0.99413">
        <ele>106.5</ele>
        <time>2022-11-11T13:52:13Z</time>
      </trkpt>
      <trkpt lat="47.10694" lon="-0.99412">
        <ele>106.6</ele>
        <time>2022-11-11T13:52:16Z</time>
      </trkpt>
      <trkpt lat="47.10697" lon="-0.99412">
        <ele>106.7</ele>
        <time>2022-11-11T13:52:19Z</time>
      </trkpt>
      <trkpt lat="47.10699" lon="-0.99411">
        <ele>106.7</ele>
        <time>2022-11-11T13:52:21Z</time>
      </trkpt>
      <trkpt lat="47.10702" lon="-0.99411">
        <ele>106.8</ele>
        <time>2022-11-11T13:52:24Z</time>
      </trkpt>
      <trkpt lat="47.10704" lon="-0.9941">
        <ele>106.9</ele>
        <time>2022-11-11T13:52:26Z</time>
      </trkpt>
      <trkpt lat="47.10707" lon="-0.9941">
        <ele>106.9</ele>
        <time>2022-11-11T13:52:29Z</time>
      </trkpt>
      <trkpt lat="47.1071" lon="-0.99409">
        <ele>107</ele>
        <time>2022-11-11T13:52:31Z</time>
      </trkpt>
      <trkpt lat="47.10713" lon="-0.99409">
        <ele>107.1</ele>
        <time>2022-11-11T13:52:34Z</time>
      </trkpt>
      <trkpt lat="47.10717" lon="-0.99408">
        <ele>107.2</ele>
        <time>2022-11-11T13:52:37Z</time>
      </trkpt>
      <trkpt lat="47.10718" lon="-0.99408">
        <ele>107.2</ele>
        <time>2022-11-11T13:52:38Z</time>
      </trkpt>
      <trkpt lat="47.10719" lon="-0.99408">
        <ele>107.2</ele>
        <time>2022-11-11T13:52:39Z</time>
      </trkpt>
      <trkpt lat="47.10722" lon="-0.99406">
        <ele>107.3</ele>
        <time>2022-11-11T13:52:42Z</time>
      </trkpt>
      <trkpt lat="47.10724" lon="-0.99406">
        <ele>107.4</ele>
        <time>2022-11-11T13:52:44Z</time>
      </trkpt>
      <trkpt lat="47.10728" lon="-0.99405">
        <ele>107.4</ele>
        <time>2022-11-11T13:52:47Z</time>
      </trkpt>
      <trkpt lat="47.1073" lon="-0.99404">
        <ele>107.5</ele>
        <time>2022-11-11T13:52:49Z</time>
      </trkpt>
      <trkpt lat="47.10731" lon="-0.99403">
        <ele>107.5</ele>
        <time>2022-11-11T13:52:50Z</time>
      </trkpt>
      <trkpt lat="47.10734" lon="-0.99403">
        <ele>107.6</ele>
        <time>2022-11-11T13:52:52Z</time>
      </trkpt>
      <trkpt lat="47.10737" lon="-0.99402">
        <ele>107.6</ele>
        <time>2022-11-11T13:52:55Z</time>
      </trkpt>
      <trkpt lat="47.1074" lon="-0.99401">
        <ele>107.7</ele>
        <time>2022-11-11T13:52:57Z</time>
      </trkpt>
      <trkpt lat="47.10743" lon="-0.994">
        <ele>107.8</ele>
        <time>2022-11-11T13:53:00Z</time>
      </trkpt>
      <trkpt lat="47.10746" lon="-0.99399">
        <ele>107.8</ele>
        <time>2022-11-11T13:53:02Z</time>
      </trkpt>
      <trkpt lat="47.10749" lon="-0.99398">
        <ele>107.9</ele>
        <time>2022-11-11T13:53:05Z</time>
      </trkpt>
      <trkpt lat="47.10751" lon="-0.99397">
        <ele>108</ele>
        <time>2022-11-11T13:53:07Z</time>
      </trkpt>
      <trkpt lat="47.10754" lon="-0.99396">
        <ele>108.1</ele>
        <time>2022-11-11T13:53:10Z</time>
      </trkpt>
      <trkpt lat="47.10755" lon="-0.99396">
        <ele>108.1</ele>
        <time>2022-11-11T13:53:11Z</time>
      </trkpt>
      <trkpt lat="47.10757" lon="-0.99395">
        <ele>108.1</ele>
        <time>2022-11-11T13:53:13Z</time>
      </trkpt>
      <trkpt lat="47.10759" lon="-0.99395">
        <ele>108.1</ele>
        <time>2022-11-11T13:53:15Z</time>
      </trkpt>
      <trkpt lat="47.1076" lon="-0.99394">
        <ele>108.1</ele>
        <time>2022-11-11T13:53:16Z</time>
      </trkpt>
      <trkpt lat="47.10762" lon="-0.99393">
        <ele>108.2</ele>
        <time>2022-11-11T13:53:18Z</time>
      </trkpt>
      <trkpt lat="47.10764" lon="-0.99392">
        <ele>108.2</ele>
        <time>2022-11-11T13:53:20Z</time>
      </trkpt>
      <trkpt lat="47.10767" lon="-0.99391">
        <ele>108.2</ele>
        <time>2022-11-11T13:53:23Z</time>
      </trkpt>
      <trkpt lat="47.1077" lon="-0.9939">
        <ele>108.2</ele>
        <time>2022-11-11T13:53:25Z</time>
      </trkpt>
      <trkpt lat="47.10773" lon="-0.99389">
        <ele>108.3</ele>
        <time>2022-11-11T13:53:28Z</time>
      </trkpt>
      <trkpt lat="47.10775" lon="-0.99387">
        <ele>108.3</ele>
        <time>2022-11-11T13:53:31Z</time>
      </trkpt>
      <trkpt lat="47.10777" lon="-0.99385">
        <ele>108.3</ele>
        <time>2022-11-11T13:53:33Z</time>
      </trkpt>
      <trkpt lat="47.10779" lon="-0.99383">
        <ele>108.3</ele>
        <time>2022-11-11T13:53:36Z</time>
      </trkpt>
      <trkpt lat="47.10781" lon="-0.99382">
        <ele>108.4</ele>
        <time>2022-11-11T13:53:38Z</time>
      </trkpt>
      <trkpt lat="47.10783" lon="-0.9938">
        <ele>108.4</ele>
        <time>2022-11-11T13:53:41Z</time>
      </trkpt>
      <trkpt lat="47.10784" lon="-0.99379">
        <ele>108.4</ele>
        <time>2022-11-11T13:53:43Z</time>
      </trkpt>
      <trkpt lat="47.10784" lon="-0.99374">
        <ele>108.4</ele>
        <time>2022-11-11T13:53:46Z</time>
      </trkpt>
      <trkpt lat="47.10784" lon="-0.9937">
        <ele>108.5</ele>
        <time>2022-11-11T13:53:49Z</time>
      </trkpt>
      <trkpt lat="47.10784" lon="-0.99367">
        <ele>108.5</ele>
        <time>2022-11-11T13:53:51Z</time>
      </trkpt>
      <trkpt lat="47.10783" lon="-0.99363">
        <ele>108.5</ele>
        <time>2022-11-11T13:53:54Z</time>
      </trkpt>
      <trkpt lat="47.10783" lon="-0.9936">
        <ele>108.5</ele>
        <time>2022-11-11T13:53:56Z</time>
      </trkpt>
      <trkpt lat="47.10783" lon="-0.99357">
        <ele>108.6</ele>
        <time>2022-11-11T13:53:58Z</time>
      </trkpt>
      <trkpt lat="47.10783" lon="-0.99355">
        <ele>108.6</ele>
        <time>2022-11-11T13:53:59Z</time>
      </trkpt>
      <trkpt lat="47.10782" lon="-0.99352">
        <ele>108.6</ele>
        <time>2022-11-11T13:54:01Z</time>
      </trkpt>
      <trkpt lat="47.10781" lon="-0.99346">
        <ele>108.6</ele>
        <time>2022-11-11T13:54:04Z</time>
      </trkpt>
      <trkpt lat="47.10781" lon="-0.99341">
        <ele>108.7</ele>
        <time>2022-11-11T13:54:07Z</time>
      </trkpt>
      <trkpt lat="47.1078" lon="-0.99337">
        <ele>108.7</ele>
        <time>2022-11-11T13:54:09Z</time>
      </trkpt>
      <trkpt lat="47.1078" lon="-0.99333">
        <ele>108.7</ele>
        <time>2022-11-11T13:54:12Z</time>
      </trkpt>
      <trkpt lat="47.1078" lon="-0.9933">
        <ele>108.7</ele>
        <time>2022-11-11T13:54:14Z</time>
      </trkpt>
      <trkpt lat="47.10779" lon="-0.99326">
        <ele>108.8</ele>
        <time>2022-11-11T13:54:17Z</time>
      </trkpt>
      <trkpt lat="47.10779" lon="-0.99323">
        <ele>108.8</ele>
        <time>2022-11-11T13:54:19Z</time>
      </trkpt>
      <trkpt lat="47.10779" lon="-0.99318">
        <ele>108.8</ele>
        <time>2022-11-11T13:54:22Z</time>
      </trkpt>
      <trkpt lat="47.10779" lon="-0.99317">
        <ele>108.8</ele>
        <time>2022-11-11T13:54:23Z</time>
      </trkpt>
      <trkpt lat="47.10778" lon="-0.99314">
        <ele>108.8</ele>
        <time>2022-11-11T13:54:25Z</time>
      </trkpt>
      <trkpt lat="47.10778" lon="-0.9931">
        <ele>108.9</ele>
        <time>2022-11-11T13:54:27Z</time>
      </trkpt>
      <trkpt lat="47.10778" lon="-0.99305">
        <ele>108.9</ele>
        <time>2022-11-11T13:54:30Z</time>
      </trkpt>
      <trkpt lat="47.10778" lon="-0.99302">
        <ele>108.9</ele>
        <time>2022-11-11T13:54:32Z</time>
      </trkpt>
      <trkpt lat="47.10778" lon="-0.99297">
        <ele>108.9</ele>
        <time>2022-11-11T13:54:35Z</time>
      </trkpt>
      <trkpt lat="47.10778" lon="-0.99296">
        <ele>109</ele>
        <time>2022-11-11T13:54:36Z</time>
      </trkpt>
      <trkpt lat="47.10778" lon="-0.99294">
        <ele>109</ele>
        <time>2022-11-11T13:54:37Z</time>
      </trkpt>
      <trkpt lat="47.10777" lon="-0.99288">
        <ele>109</ele>
        <time>2022-11-11T13:54:40Z</time>
      </trkpt>
      <trkpt lat="47.10776" lon="-0.99282">
        <ele>109</ele>
        <time>2022-11-11T13:54:43Z</time>
      </trkpt>
      <trkpt lat="47.10776" lon="-0.99278">
        <ele>109.1</ele>
        <time>2022-11-11T13:54:45Z</time>
      </trkpt>
      <trkpt lat="47.10776" lon="-0.99274">
        <ele>109.1</ele>
        <time>2022-11-11T13:54:47Z</time>
      </trkpt>
      <trkpt lat="47.10776" lon="-0.99273">
        <ele>109.1</ele>
        <time>2022-11-11T13:54:48Z</time>
      </trkpt>
      <trkpt lat="47.10776" lon="-0.9927">
        <ele>109.1</ele>
        <time>2022-11-11T13:54:50Z</time>
      </trkpt>
      <trkpt lat="47.10776" lon="-0.99266">
        <ele>109.1</ele>
        <time>2022-11-11T13:54:53Z</time>
      </trkpt>
      <trkpt lat="47.10777" lon="-0.99263">
        <ele>109.2</ele>
        <time>2022-11-11T13:54:55Z</time>
      </trkpt>
      <trkpt lat="47.10777" lon="-0.99259">
        <ele>109.2</ele>
        <time>2022-11-11T13:54:58Z</time>
      </trkpt>
      <trkpt lat="47.10777" lon="-0.99255">
        <ele>109.2</ele>
        <time>2022-11-11T13:55:01Z</time>
      </trkpt>
      <trkpt lat="47.10777" lon="-0.99251">
        <ele>109.2</ele>
        <time>2022-11-11T13:55:03Z</time>
      </trkpt>
      <trkpt lat="47.10777" lon="-0.99247">
        <ele>109.3</ele>
        <time>2022-11-11T13:55:06Z</time>
      </trkpt>
      <trkpt lat="47.10776" lon="-0.99243">
        <ele>109.3</ele>
        <time>2022-11-11T13:55:08Z</time>
      </trkpt>
      <trkpt lat="47.10776" lon="-0.99239">
        <ele>109.3</ele>
        <time>2022-11-11T13:55:11Z</time>
      </trkpt>
      <trkpt lat="47.10776" lon="-0.99235">
        <ele>109.3</ele>
        <time>2022-11-11T13:55:13Z</time>
      </trkpt>
      <trkpt lat="47.10776" lon="-0.99234">
        <ele>109.4</ele>
        <time>2022-11-11T13:55:14Z</time>
      </trkpt>
      <trkpt lat="47.10776" lon="-0.99231">
        <ele>109.4</ele>
        <time>2022-11-11T13:55:16Z</time>
      </trkpt>
      <trkpt lat="47.10776" lon="-0.99226">
        <ele>109.4</ele>
        <time>2022-11-11T13:55:19Z</time>
      </trkpt>
      <trkpt lat="47.10776" lon="-0.99223">
        <ele>109.4</ele>
        <time>2022-11-11T13:55:21Z</time>
      </trkpt>
      <trkpt lat="47.10776" lon="-0.99218">
        <ele>109.5</ele>
        <time>2022-11-11T13:55:24Z</time>
      </trkpt>
      <trkpt lat="47.10776" lon="-0.99217">
        <ele>109.5</ele>
        <time>2022-11-11T13:55:25Z</time>
      </trkpt>
      <trkpt lat="47.10777" lon="-0.99217">
        <ele>109.5</ele>
        <time>2022-11-11T13:55:26Z</time>
      </trkpt>
      <trkpt lat="47.1078" lon="-0.99217">
        <ele>109.5</ele>
        <time>2022-11-11T13:55:29Z</time>
      </trkpt>
      <trkpt lat="47.10782" lon="-0.99217">
        <ele>109.5</ele>
        <time>2022-11-11T13:55:31Z</time>
      </trkpt>
      <trkpt lat="47.10785" lon="-0.99218">
        <ele>109.6</ele>
        <time>2022-11-11T13:55:34Z</time>
      </trkpt>
      <trkpt lat="47.10788" lon="-0.99218">
        <ele>109.6</ele>
        <time>2022-11-11T13:55:37Z</time>
      </trkpt>
      <trkpt lat="47.1079" lon="-0.99218">
        <ele>109.6</ele>
        <time>2022-11-11T13:55:39Z</time>
      </trkpt>
      <trkpt lat="47.10793" lon="-0.99218">
        <ele>109.6</ele>
        <time>2022-11-11T13:55:42Z</time>
      </trkpt>
      <trkpt lat="47.10795" lon="-0.99217">
        <ele>109.7</ele>
        <time>2022-11-11T13:55:44Z</time>
      </trkpt>
      <trkpt lat="47.10799" lon="-0.99217">
        <ele>109.7</ele>
        <time>2022-11-11T13:55:47Z</time>
      </trkpt>
      <trkpt lat="47.10801" lon="-0.99216">
        <ele>109.7</ele>
        <time>2022-11-11T13:55:49Z</time>
      </trkpt>
      <trkpt lat="47.10803" lon="-0.99216">
        <ele>109.7</ele>
        <time>2022-11-11T13:55:51Z</time>
      </trkpt>
      <trkpt lat="47.10804" lon="-0.99215">
        <ele>109.7</ele>
        <time>2022-11-11T13:55:52Z</time>
      </trkpt>
      <trkpt lat="47.10808" lon="-0.99214">
        <ele>109.8</ele>
        <time>2022-11-11T13:55:55Z</time>
      </trkpt>
      <trkpt lat="47.1081" lon="-0.99214">
        <ele>109.8</ele>
        <time>2022-11-11T13:55:57Z</time>
      </trkpt>
      <trkpt lat="47.10813" lon="-0.99212">
        <ele>109.8</ele>
        <time>2022-11-11T13:56:00Z</time>
      </trkpt>
      <trkpt lat="47.10816" lon="-0.99212">
        <ele>109.8</ele>
        <time>2022-11-11T13:56:02Z</time>
      </trkpt>
      <trkpt lat="47.10817" lon="-0.99211">
        <ele>109.9</ele>
        <time>2022-11-11T13:56:03Z</time>
      </trkpt>
      <trkpt lat="47.10818" lon="-0.9921">
        <ele>109.9</ele>
        <time>2022-11-11T13:56:05Z</time>
      </trkpt>
      <trkpt lat="47.1082" lon="-0.99209">
        <ele>109.9</ele>
        <time>2022-11-11T13:56:07Z</time>
      </trkpt>
      <trkpt lat="47.10822" lon="-0.99207">
        <ele>109.9</ele>
        <time>2022-11-11T13:56:10Z</time>
      </trkpt>
      <trkpt lat="47.10824" lon="-0.99205">
        <ele>110</ele>
        <time>2022-11-11T13:56:13Z</time>
      </trkpt>
      <trkpt lat="47.10826" lon="-0.99203">
        <ele>110</ele>
        <time>2022-11-11T13:56:15Z</time>
      </trkpt>
      <trkpt lat="47.10828" lon="-0.99201">
        <ele>110</ele>
        <time>2022-11-11T13:56:18Z</time>
      </trkpt>
      <trkpt lat="47.10829" lon="-0.992">
        <ele>110</ele>
        <time>2022-11-11T13:56:20Z</time>
      </trkpt>
      <trkpt lat="47.10831" lon="-0.99197">
        <ele>110.1</ele>
        <time>2022-11-11T13:56:23Z</time>
      </trkpt>
      <trkpt lat="47.10832" lon="-0.99193">
        <ele>110.1</ele>
        <time>2022-11-11T13:56:26Z</time>
      </trkpt>
      <trkpt lat="47.10833" lon="-0.99191">
        <ele>110.1</ele>
        <time>2022-11-11T13:56:28Z</time>
      </trkpt>
      <trkpt lat="47.10835" lon="-0.99188">
        <ele>110.1</ele>
        <time>2022-11-11T13:56:31Z</time>
      </trkpt>
      <trkpt lat="47.10836" lon="-0.99186">
        <ele>110.2</ele>
        <time>2022-11-11T13:56:33Z</time>
      </trkpt>
      <trkpt lat="47.10837" lon="-0.99183">
        <ele>110.2</ele>
        <time>2022-11-11T13:56:36Z</time>
      </trkpt>
      <trkpt lat="47.10837" lon="-0.9918">
        <ele>110.2</ele>
        <time>2022-11-11T13:56:38Z</time>
      </trkpt>
      <trkpt lat="47.10837" lon="-0.99175">
        <ele>110.2</ele>
        <time>2022-11-11T13:56:41Z</time>
      </trkpt>
      <trkpt lat="47.10837" lon="-0.9917">
        <ele>110.3</ele>
        <time>2022-11-11T13:56:44Z</time>
      </trkpt>
      <trkpt lat="47.10836" lon="-0.99167">
        <ele>110.3</ele>
        <time>2022-11-11T13:56:46Z</time>
      </trkpt>
      <trkpt lat="47.10836" lon="-0.99163">
        <ele>110.3</ele>
        <time>2022-11-11T13:56:49Z</time>
      </trkpt>
      <trkpt lat="47.10836" lon="-0.99161">
        <ele>110.3</ele>
        <time>2022-11-11T13:56:50Z</time>
      </trkpt>
      <trkpt lat="47.10836" lon="-0.9916">
        <ele>110.4</ele>
        <time>2022-11-11T13:56:51Z</time>
      </trkpt>
      <trkpt lat="47.10836" lon="-0.99154">
        <ele>110.4</ele>
        <time>2022-11-11T13:56:54Z</time>
      </trkpt>
      <trkpt lat="47.10836" lon="-0.99151">
        <ele>110.4</ele>
        <time>2022-11-11T13:56:56Z</time>
      </trkpt>
      <trkpt lat="47.10836" lon="-0.99146">
        <ele>110.4</ele>
        <time>2022-11-11T13:56:59Z</time>
      </trkpt>
      <trkpt lat="47.10836" lon="-0.99141">
        <ele>110.5</ele>
        <time>2022-11-11T13:57:02Z</time>
      </trkpt>
      <trkpt lat="47.10836" lon="-0.99138">
        <ele>110.5</ele>
        <time>2022-11-11T13:57:04Z</time>
      </trkpt>
      <trkpt lat="47.10836" lon="-0.99133">
        <ele>110.5</ele>
        <time>2022-11-11T13:57:07Z</time>
      </trkpt>
      <trkpt lat="47.10836" lon="-0.9913">
        <ele>110.5</ele>
        <time>2022-11-11T13:57:09Z</time>
      </trkpt>
      <trkpt lat="47.10836" lon="-0.99125">
        <ele>110.6</ele>
        <time>2022-11-11T13:57:12Z</time>
      </trkpt>
      <trkpt lat="47.10836" lon="-0.99122">
        <ele>110.6</ele>
        <time>2022-11-11T13:57:14Z</time>
      </trkpt>
      <trkpt lat="47.10836" lon="-0.99121">
        <ele>110.6</ele>
        <time>2022-11-11T13:57:15Z</time>
      </trkpt>
      <trkpt lat="47.10837" lon="-0.99117">
        <ele>110.6</ele>
        <time>2022-11-11T13:57:17Z</time>
      </trkpt>
      <trkpt lat="47.10839" lon="-0.99112">
        <ele>110.7</ele>
        <time>2022-11-11T13:57:20Z</time>
      </trkpt>
      <trkpt lat="47.1084" lon="-0.99109">
        <ele>110.7</ele>
        <time>2022-11-11T13:57:22Z</time>
      </trkpt>
      <trkpt lat="47.10841" lon="-0.99104">
        <ele>110.7</ele>
        <time>2022-11-11T13:57:25Z</time>
      </trkpt>
      <trkpt lat="47.10842" lon="-0.99102">
        <ele>110.7</ele>
        <time>2022-11-11T13:57:26Z</time>
      </trkpt>
      <trkpt lat="47.10842" lon="-0.99101">
        <ele>110.7</ele>
        <time>2022-11-11T13:57:27Z</time>
      </trkpt>
      <trkpt lat="47.10842" lon="-0.99095">
        <ele>110.8</ele>
        <time>2022-11-11T13:57:30Z</time>
      </trkpt>
      <trkpt lat="47.10842" lon="-0.99092">
        <ele>110.8</ele>
        <time>2022-11-11T13:57:32Z</time>
      </trkpt>
      <trkpt lat="47.10843" lon="-0.99087">
        <ele>110.8</ele>
        <time>2022-11-11T13:57:35Z</time>
      </trkpt>
      <trkpt lat="47.10843" lon="-0.99082">
        <ele>110.8</ele>
        <time>2022-11-11T13:57:38Z</time>
      </trkpt>
      <trkpt lat="47.10843" lon="-0.99079">
        <ele>110.9</ele>
        <time>2022-11-11T13:57:40Z</time>
      </trkpt>
      <trkpt lat="47.10843" lon="-0.99074">
        <ele>110.9</ele>
        <time>2022-11-11T13:57:43Z</time>
      </trkpt>
      <trkpt lat="47.10843" lon="-0.9907">
        <ele>110.9</ele>
        <time>2022-11-11T13:57:45Z</time>
      </trkpt>
      <trkpt lat="47.10842" lon="-0.99065">
        <ele>110.9</ele>
        <time>2022-11-11T13:57:48Z</time>
      </trkpt>
      <trkpt lat="47.10842" lon="-0.99062">
        <ele>111</ele>
        <time>2022-11-11T13:57:50Z</time>
      </trkpt>
      <trkpt lat="47.10842" lon="-0.99057">
        <ele>111</ele>
        <time>2022-11-11T13:57:53Z</time>
      </trkpt>
      <trkpt lat="47.10841" lon="-0.99052">
        <ele>111</ele>
        <time>2022-11-11T13:57:56Z</time>
      </trkpt>
      <trkpt lat="47.10841" lon="-0.99049">
        <ele>111</ele>
        <time>2022-11-11T13:57:58Z</time>
      </trkpt>
      <trkpt lat="47.10841" lon="-0.99044">
        <ele>111.1</ele>
        <time>2022-11-11T13:58:01Z</time>
      </trkpt>
      <trkpt lat="47.1084" lon="-0.99042">
        <ele>111.1</ele>
        <time>2022-11-11T13:58:02Z</time>
      </trkpt>
      <trkpt lat="47.1084" lon="-0.99041">
        <ele>111.1</ele>
        <time>2022-11-11T13:58:03Z</time>
      </trkpt>
      <trkpt lat="47.10841" lon="-0.99036">
        <ele>111.1</ele>
        <time>2022-11-11T13:58:06Z</time>
      </trkpt>
      <trkpt lat="47.10841" lon="-0.99033">
        <ele>111.1</ele>
        <time>2022-11-11T13:58:08Z</time>
      </trkpt>
      <trkpt lat="47.10841" lon="-0.99031">
        <ele>111.2</ele>
        <time>2022-11-11T13:58:09Z</time>
      </trkpt>
      <trkpt lat="47.10841" lon="-0.99028">
        <ele>111.1</ele>
        <time>2022-11-11T13:58:11Z</time>
      </trkpt>
      <trkpt lat="47.10841" lon="-0.99023">
        <ele>111.1</ele>
        <time>2022-11-11T13:58:14Z</time>
      </trkpt>
      <trkpt lat="47.10841" lon="-0.99022">
        <ele>111.1</ele>
        <time>2022-11-11T13:58:15Z</time>
      </trkpt>
      <trkpt lat="47.10841" lon="-0.9902">
        <ele>111.1</ele>
        <time>2022-11-11T13:58:16Z</time>
      </trkpt>
      <trkpt lat="47.10842" lon="-0.99015">
        <ele>111.1</ele>
        <time>2022-11-11T13:58:19Z</time>
      </trkpt>
      <trkpt lat="47.10842" lon="-0.99011">
        <ele>111.1</ele>
        <time>2022-11-11T13:58:21Z</time>
      </trkpt>
      <trkpt lat="47.10842" lon="-0.99006">
        <ele>111.1</ele>
        <time>2022-11-11T13:58:24Z</time>
      </trkpt>
      <trkpt lat="47.10843" lon="-0.99003">
        <ele>111.1</ele>
        <time>2022-11-11T13:58:26Z</time>
      </trkpt>
      <trkpt lat="47.10843" lon="-0.99001">
        <ele>111.1</ele>
        <time>2022-11-11T13:58:27Z</time>
      </trkpt>
      <trkpt lat="47.10844" lon="-0.98998">
        <ele>111.1</ele>
        <time>2022-11-11T13:58:29Z</time>
      </trkpt>
      <trkpt lat="47.10846" lon="-0.98993">
        <ele>111</ele>
        <time>2022-11-11T13:58:32Z</time>
      </trkpt>
      <trkpt lat="47.10847" lon="-0.98989">
        <ele>111</ele>
        <time>2022-11-11T13:58:34Z</time>
      </trkpt>
      <trkpt lat="47.10849" lon="-0.98984">
        <ele>111</ele>
        <time>2022-11-11T13:58:37Z</time>
      </trkpt>
      <trkpt lat="47.10849" lon="-0.98982">
        <ele>111</ele>
        <time>2022-11-11T13:58:38Z</time>
      </trkpt>
      <trkpt lat="47.1085" lon="-0.98981">
        <ele>111</ele>
        <time>2022-11-11T13:58:39Z</time>
      </trkpt>
      <trkpt lat="47.10852" lon="-0.98977">
        <ele>111</ele>
        <time>2022-11-11T13:58:42Z</time>
      </trkpt>
      <trkpt lat="47.10853" lon="-0.98974">
        <ele>111</ele>
        <time>2022-11-11T13:58:44Z</time>
      </trkpt>
      <trkpt lat="47.10854" lon="-0.98969">
        <ele>111</ele>
        <time>2022-11-11T13:58:47Z</time>
      </trkpt>
      <trkpt lat="47.10856" lon="-0.98965">
        <ele>111</ele>
        <time>2022-11-11T13:58:50Z</time>
      </trkpt>
      <trkpt lat="47.10857" lon="-0.98962">
        <ele>111</ele>
        <time>2022-11-11T13:58:52Z</time>
      </trkpt>
      <trkpt lat="47.10858" lon="-0.98958">
        <ele>110.9</ele>
        <time>2022-11-11T13:58:55Z</time>
      </trkpt>
      <trkpt lat="47.10859" lon="-0.98955">
        <ele>110.9</ele>
        <time>2022-11-11T13:58:57Z</time>
      </trkpt>
      <trkpt lat="47.10861" lon="-0.98951">
        <ele>110.9</ele>
        <time>2022-11-11T13:59:00Z</time>
      </trkpt>
      <trkpt lat="47.10862" lon="-0.98948">
        <ele>110.9</ele>
        <time>2022-11-11T13:59:02Z</time>
      </trkpt>
      <trkpt lat="47.10862" lon="-0.98947">
        <ele>110.9</ele>
        <time>2022-11-11T13:59:03Z</time>
      </trkpt>
      <trkpt lat="47.10863" lon="-0.98944">
        <ele>110.9</ele>
        <time>2022-11-11T13:59:05Z</time>
      </trkpt>
      <trkpt lat="47.10865" lon="-0.98939">
        <ele>110.9</ele>
        <time>2022-11-11T13:59:08Z</time>
      </trkpt>
      <trkpt lat="47.10866" lon="-0.98936">
        <ele>110.9</ele>
        <time>2022-11-11T13:59:10Z</time>
      </trkpt>
      <trkpt lat="47.10868" lon="-0.98931">
        <ele>110.9</ele>
        <time>2022-11-11T13:59:13Z</time>
      </trkpt>
      <trkpt lat="47.10869" lon="-0.98928">
        <ele>110.8</ele>
        <time>2022-11-11T13:59:15Z</time>
      </trkpt>
      <trkpt lat="47.10871" lon="-0.98924">
        <ele>110.8</ele>
        <time>2022-11-11T13:59:18Z</time>
      </trkpt>
      <trkpt lat="47.10873" lon="-0.98921">
        <ele>110.8</ele>
        <time>2022-11-11T13:59:20Z</time>
      </trkpt>
      <trkpt lat="47.10875" lon="-0.98917">
        <ele>110.8</ele>
        <time>2022-11-11T13:59:23Z</time>
      </trkpt>
      <trkpt lat="47.10877" lon="-0.98913">
        <ele>110.8</ele>
        <time>2022-11-11T13:59:26Z</time>
      </trkpt>
      <trkpt lat="47.10878" lon="-0.98911">
        <ele>110.8</ele>
        <time>2022-11-11T13:59:27Z</time>
      </trkpt>
      <trkpt lat="47.10879" lon="-0.9891">
        <ele>110.8</ele>
        <time>2022-11-11T13:59:28Z</time>
      </trkpt>
      <trkpt lat="47.10881" lon="-0.98907">
        <ele>110.8</ele>
        <time>2022-11-11T13:59:31Z</time>
      </trkpt>
      <trkpt lat="47.10883" lon="-0.98905">
        <ele>110.8</ele>
        <time>2022-11-11T13:59:33Z</time>
      </trkpt>
      <trkpt lat="47.10885" lon="-0.98902">
        <ele>110.7</ele>
        <time>2022-11-11T13:59:36Z</time>
      </trkpt>
      <trkpt lat="47.10886" lon="-0.989">
        <ele>110.7</ele>
        <time>2022-11-11T13:59:38Z</time>
      </trkpt>
      <trkpt lat="47.10888" lon="-0.98898">
        <ele>110.7</ele>
        <time>2022-11-11T13:59:40Z</time>
      </trkpt>
      <trkpt lat="47.10889" lon="-0.98897">
        <ele>110.7</ele>
        <time>2022-11-11T13:59:41Z</time>
      </trkpt>
      <trkpt lat="47.10891" lon="-0.98893">
        <ele>110.7</ele>
        <time>2022-11-11T13:59:44Z</time>
      </trkpt>
      <trkpt lat="47.10893" lon="-0.98891">
        <ele>110.7</ele>
        <time>2022-11-11T13:59:46Z</time>
      </trkpt>
      <trkpt lat="47.10895" lon="-0.98887">
        <ele>110.7</ele>
        <time>2022-11-11T13:59:49Z</time>
      </trkpt>
      <trkpt lat="47.10897" lon="-0.98884">
        <ele>110.7</ele>
        <time>2022-11-11T13:59:51Z</time>
      </trkpt>
      <trkpt lat="47.10898" lon="-0.98883">
        <ele>110.7</ele>
        <time>2022-11-11T13:59:52Z</time>
      </trkpt>
      <trkpt lat="47.10899" lon="-0.98881">
        <ele>110.7</ele>
        <time>2022-11-11T13:59:54Z</time>
      </trkpt>
      <trkpt lat="47.109" lon="-0.98878">
        <ele>110.6</ele>
        <time>2022-11-11T13:59:56Z</time>
      </trkpt>
      <trkpt lat="47.10902" lon="-0.98874">
        <ele>110.6</ele>
        <time>2022-11-11T13:59:59Z</time>
      </trkpt>
      <trkpt lat="47.10904" lon="-0.98871">
        <ele>110.6</ele>
        <time>2022-11-11T14:00:02Z</time>
      </trkpt>
      <trkpt lat="47.10906" lon="-0.98868">
        <ele>110.6</ele>
        <time>2022-11-11T14:00:04Z</time>
      </trkpt>
      <trkpt lat="47.10907" lon="-0.98867">
        <ele>110.6</ele>
        <time>2022-11-11T14:00:05Z</time>
      </trkpt>
      <trkpt lat="47.10908" lon="-0.98864">
        <ele>110.6</ele>
        <time>2022-11-11T14:00:07Z</time>
      </trkpt>
      <trkpt lat="47.10909" lon="-0.98862">
        <ele>110.6</ele>
        <time>2022-11-11T14:00:09Z</time>
      </trkpt>
      <trkpt lat="47.10911" lon="-0.98858">
        <ele>110.6</ele>
        <time>2022-11-11T14:00:12Z</time>
      </trkpt>
      <trkpt lat="47.10912" lon="-0.98855">
        <ele>110.6</ele>
        <time>2022-11-11T14:00:14Z</time>
      </trkpt>
      <trkpt lat="47.10914" lon="-0.98851">
        <ele>110.5</ele>
        <time>2022-11-11T14:00:17Z</time>
      </trkpt>
      <trkpt lat="47.10914" lon="-0.9885">
        <ele>110.5</ele>
        <time>2022-11-11T14:00:18Z</time>
      </trkpt>
      <trkpt lat="47.10916" lon="-0.98848">
        <ele>110.5</ele>
        <time>2022-11-11T14:00:20Z</time>
      </trkpt>
      <trkpt lat="47.10917" lon="-0.98845">
        <ele>110.5</ele>
        <time>2022-11-11T14:00:22Z</time>
      </trkpt>
      <trkpt lat="47.10919" lon="-0.98841">
        <ele>110.5</ele>
        <time>2022-11-11T14:00:25Z</time>
      </trkpt>
      <trkpt lat="47.10921" lon="-0.98839">
        <ele>110.5</ele>
        <time>2022-11-11T14:00:27Z</time>
      </trkpt>
      <trkpt lat="47.10923" lon="-0.98835">
        <ele>110.5</ele>
        <time>2022-11-11T14:00:30Z</time>
      </trkpt>
      <trkpt lat="47.10923" lon="-0.98834">
        <ele>110.5</ele>
        <time>2022-11-11T14:00:31Z</time>
      </trkpt>
      <trkpt lat="47.10924" lon="-0.98833">
        <ele>110.5</ele>
        <time>2022-11-11T14:00:32Z</time>
      </trkpt>
      <trkpt lat="47.10926" lon="-0.98828">
        <ele>110.5</ele>
        <time>2022-11-11T14:00:35Z</time>
      </trkpt>
      <trkpt lat="47.10928" lon="-0.98823">
        <ele>110.4</ele>
        <time>2022-11-11T14:00:38Z</time>
      </trkpt>
      <trkpt lat="47.1093" lon="-0.9882">
        <ele>110.4</ele>
        <time>2022-11-11T14:00:40Z</time>
      </trkpt>
      <trkpt lat="47.10931" lon="-0.98817">
        <ele>110.4</ele>
        <time>2022-11-11T14:00:42Z</time>
      </trkpt>
      <trkpt lat="47.10932" lon="-0.98816">
        <ele>110.4</ele>
        <time>2022-11-11T14:00:43Z</time>
      </trkpt>
      <trkpt lat="47.10933" lon="-0.98813">
        <ele>110.4</ele>
        <time>2022-11-11T14:00:45Z</time>
      </trkpt>
      <trkpt lat="47.10935" lon="-0.98809">
        <ele>110.4</ele>
        <time>2022-11-11T14:00:48Z</time>
      </trkpt>
      <trkpt lat="47.10936" lon="-0.98807">
        <ele>110.4</ele>
        <time>2022-11-11T14:00:50Z</time>
      </trkpt>
      <trkpt lat="47.10938" lon="-0.98803">
        <ele>110.4</ele>
        <time>2022-11-11T14:00:53Z</time>
      </trkpt>
      <trkpt lat="47.10939" lon="-0.98801">
        <ele>110.4</ele>
        <time>2022-11-11T14:00:55Z</time>
      </trkpt>
      <trkpt lat="47.1094" lon="-0.98799">
        <ele>110.4</ele>
        <time>2022-11-11T14:00:56Z</time>
      </trkpt>
      <trkpt lat="47.10941" lon="-0.98797">
        <ele>110.3</ele>
        <time>2022-11-11T14:00:58Z</time>
      </trkpt>
      <trkpt lat="47.10944" lon="-0.98793">
        <ele>110.3</ele>
        <time>2022-11-11T14:01:01Z</time>
      </trkpt>
      <trkpt lat="47.10945" lon="-0.9879">
        <ele>110.3</ele>
        <time>2022-11-11T14:01:03Z</time>
      </trkpt>
      <trkpt lat="47.10947" lon="-0.98786">
        <ele>110.3</ele>
        <time>2022-11-11T14:01:06Z</time>
      </trkpt>
      <trkpt lat="47.10948" lon="-0.98785">
        <ele>110.3</ele>
        <time>2022-11-11T14:01:07Z</time>
      </trkpt>
      <trkpt lat="47.10949" lon="-0.98782">
        <ele>110.3</ele>
        <time>2022-11-11T14:01:09Z</time>
      </trkpt>
      <trkpt lat="47.1095" lon="-0.98779">
        <ele>110.3</ele>
        <time>2022-11-11T14:01:11Z</time>
      </trkpt>
      <trkpt lat="47.10952" lon="-0.98775">
        <ele>110.3</ele>
        <time>2022-11-11T14:01:14Z</time>
      </trkpt>
      <trkpt lat="47.10954" lon="-0.98772">
        <ele>110.3</ele>
        <time>2022-11-11T14:01:16Z</time>
      </trkpt>
      <trkpt lat="47.10955" lon="-0.98768">
        <ele>110.2</ele>
        <time>2022-11-11T14:01:19Z</time>
      </trkpt>
      <trkpt lat="47.10957" lon="-0.98765">
        <ele>110.2</ele>
        <time>2022-11-11T14:01:21Z</time>
      </trkpt>
      <trkpt lat="47.10959" lon="-0.98761">
        <ele>110.2</ele>
        <time>2022-11-11T14:01:24Z</time>
      </trkpt>
      <trkpt lat="47.10961" lon="-0.98756">
        <ele>110.2</ele>
        <time>2022-11-11T14:01:27Z</time>
      </trkpt>
      <trkpt lat="47.10962" lon="-0.98753">
        <ele>110.2</ele>
        <time>2022-11-11T14:01:29Z</time>
      </trkpt>
      <trkpt lat="47.10963" lon="-0.98751">
        <ele>110.2</ele>
        <time>2022-11-11T14:01:31Z</time>
      </trkpt>
      <trkpt lat="47.10964" lon="-0.98749">
        <ele>110.2</ele>
        <time>2022-11-11T14:01:32Z</time>
      </trkpt>
      <trkpt lat="47.10965" lon="-0.98746">
        <ele>110.2</ele>
        <time>2022-11-11T14:01:34Z</time>
      </trkpt>
      <trkpt lat="47.10967" lon="-0.98742">
        <ele>110.2</ele>
        <time>2022-11-11T14:01:37Z</time>
      </trkpt>
      <trkpt lat="47.10968" lon="-0.98739">
        <ele>110.2</ele>
        <time>2022-11-11T14:01:39Z</time>
      </trkpt>
      <trkpt lat="47.1097" lon="-0.98735">
        <ele>110.1</ele>
        <time>2022-11-11T14:01:42Z</time>
      </trkpt>
      <trkpt lat="47.10971" lon="-0.98732">
        <ele>110.1</ele>
        <time>2022-11-11T14:01:44Z</time>
      </trkpt>
      <trkpt lat="47.10971" lon="-0.9873">
        <ele>110.1</ele>
        <time>2022-11-11T14:01:45Z</time>
      </trkpt>
      <trkpt lat="47.10972" lon="-0.98727">
        <ele>110.1</ele>
        <time>2022-11-11T14:01:47Z</time>
      </trkpt>
      <trkpt lat="47.10973" lon="-0.98722">
        <ele>110.1</ele>
        <time>2022-11-11T14:01:50Z</time>
      </trkpt>
      <trkpt lat="47.10974" lon="-0.98719">
        <ele>110.1</ele>
        <time>2022-11-11T14:01:52Z</time>
      </trkpt>
      <trkpt lat="47.10975" lon="-0.98714">
        <ele>110.1</ele>
        <time>2022-11-11T14:01:55Z</time>
      </trkpt>
      <trkpt lat="47.10976" lon="-0.98711">
        <ele>110.1</ele>
        <time>2022-11-11T14:01:57Z</time>
      </trkpt>
      <trkpt lat="47.10978" lon="-0.98707">
        <ele>110.1</ele>
        <time>2022-11-11T14:02:00Z</time>
      </trkpt>
      <trkpt lat="47.10979" lon="-0.98702">
        <ele>110</ele>
        <time>2022-11-11T14:02:03Z</time>
      </trkpt>
      <trkpt lat="47.1098" lon="-0.98699">
        <ele>110</ele>
        <time>2022-11-11T14:02:05Z</time>
      </trkpt>
      <trkpt lat="47.10982" lon="-0.98695">
        <ele>110</ele>
        <time>2022-11-11T14:02:08Z</time>
      </trkpt>
      <trkpt lat="47.10982" lon="-0.98693">
        <ele>110</ele>
        <time>2022-11-11T14:02:09Z</time>
      </trkpt>
      <trkpt lat="47.10983" lon="-0.98692">
        <ele>110</ele>
        <time>2022-11-11T14:02:10Z</time>
      </trkpt>
      <trkpt lat="47.10984" lon="-0.98687">
        <ele>110</ele>
        <time>2022-11-11T14:02:13Z</time>
      </trkpt>
      <trkpt lat="47.10985" lon="-0.98684">
        <ele>110</ele>
        <time>2022-11-11T14:02:15Z</time>
      </trkpt>
      <trkpt lat="47.10987" lon="-0.98679">
        <ele>110</ele>
        <time>2022-11-11T14:02:18Z</time>
      </trkpt>
      <trkpt lat="47.10988" lon="-0.98675">
        <ele>110</ele>
        <time>2022-11-11T14:02:21Z</time>
      </trkpt>
      <trkpt lat="47.10989" lon="-0.98672">
        <ele>109.9</ele>
        <time>2022-11-11T14:02:23Z</time>
      </trkpt>
      <trkpt lat="47.1099" lon="-0.98667">
        <ele>109.9</ele>
        <time>2022-11-11T14:02:26Z</time>
      </trkpt>
      <trkpt lat="47.1099" lon="-0.98664">
        <ele>109.9</ele>
        <time>2022-11-11T14:02:28Z</time>
      </trkpt>
      <trkpt lat="47.10991" lon="-0.9866">
        <ele>109.9</ele>
        <time>2022-11-11T14:02:31Z</time>
      </trkpt>
      <trkpt lat="47.10992" lon="-0.98657">
        <ele>109.9</ele>
        <time>2022-11-11T14:02:33Z</time>
      </trkpt>
      <trkpt lat="47.10992" lon="-0.98655">
        <ele>109.9</ele>
        <time>2022-11-11T14:02:34Z</time>
      </trkpt>
      <trkpt lat="47.10993" lon="-0.98651">
        <ele>109.9</ele>
        <time>2022-11-11T14:02:36Z</time>
      </trkpt>
      <trkpt lat="47.10994" lon="-0.98646">
        <ele>109.9</ele>
        <time>2022-11-11T14:02:39Z</time>
      </trkpt>
      <trkpt lat="47.10995" lon="-0.98643">
        <ele>109.9</ele>
        <time>2022-11-11T14:02:41Z</time>
      </trkpt>
      <trkpt lat="47.10996" lon="-0.98637">
        <ele>109.8</ele>
        <time>2022-11-11T14:02:44Z</time>
      </trkpt>
      <trkpt lat="47.10996" lon="-0.98636">
        <ele>109.8</ele>
        <time>2022-11-11T14:02:45Z</time>
      </trkpt>
      <trkpt lat="47.10997" lon="-0.98634">
        <ele>109.8</ele>
        <time>2022-11-11T14:02:46Z</time>
      </trkpt>
      <trkpt lat="47.10998" lon="-0.9863">
        <ele>109.8</ele>
        <time>2022-11-11T14:02:49Z</time>
      </trkpt>
      <trkpt lat="47.10998" lon="-0.98626">
        <ele>109.8</ele>
        <time>2022-11-11T14:02:51Z</time>
      </trkpt>
      <trkpt lat="47.10999" lon="-0.98622">
        <ele>109.8</ele>
        <time>2022-11-11T14:02:54Z</time>
      </trkpt>
      <trkpt lat="47.11" lon="-0.98617">
        <ele>109.8</ele>
        <time>2022-11-11T14:02:57Z</time>
      </trkpt>
      <trkpt lat="47.11" lon="-0.98616">
        <ele>109.8</ele>
        <time>2022-11-11T14:02:58Z</time>
      </trkpt>
      <trkpt lat="47.11" lon="-0.98614">
        <ele>109.8</ele>
        <time>2022-11-11T14:02:59Z</time>
      </trkpt>
      <trkpt lat="47.11001" lon="-0.98609">
        <ele>109.8</ele>
        <time>2022-11-11T14:03:02Z</time>
      </trkpt>
      <trkpt lat="47.11002" lon="-0.98605">
        <ele>109.7</ele>
        <time>2022-11-11T14:03:04Z</time>
      </trkpt>
      <trkpt lat="47.11003" lon="-0.986">
        <ele>109.7</ele>
        <time>2022-11-11T14:03:07Z</time>
      </trkpt>
      <trkpt lat="47.11003" lon="-0.98597">
        <ele>109.7</ele>
        <time>2022-11-11T14:03:09Z</time>
      </trkpt>
      <trkpt lat="47.11004" lon="-0.98595">
        <ele>109.7</ele>
        <time>2022-11-11T14:03:10Z</time>
      </trkpt>
      <trkpt lat="47.11004" lon="-0.98591">
        <ele>109.7</ele>
        <time>2022-11-11T14:03:12Z</time>
      </trkpt>
      <trkpt lat="47.11006" lon="-0.98586">
        <ele>109.7</ele>
        <time>2022-11-11T14:03:15Z</time>
      </trkpt>
      <trkpt lat="47.11007" lon="-0.98583">
        <ele>109.7</ele>
        <time>2022-11-11T14:03:17Z</time>
      </trkpt>
      <trkpt lat="47.11008" lon="-0.98578">
        <ele>109.7</ele>
        <time>2022-11-11T14:03:20Z</time>
      </trkpt>
      <trkpt lat="47.11009" lon="-0.98575">
        <ele>109.7</ele>
        <time>2022-11-11T14:03:22Z</time>
      </trkpt>
      <trkpt lat="47.1101" lon="-0.98568">
        <ele>109.6</ele>
        <time>2022-11-11T14:03:25Z</time>
      </trkpt>
      <trkpt lat="47.11011" lon="-0.98563">
        <ele>109.6</ele>
        <time>2022-11-11T14:03:27Z</time>
      </trkpt>
      <trkpt lat="47.11012" lon="-0.98557">
        <ele>109.6</ele>
        <time>2022-11-11T14:03:30Z</time>
      </trkpt>
      <trkpt lat="47.11012" lon="-0.98554">
        <ele>109.6</ele>
        <time>2022-11-11T14:03:31Z</time>
      </trkpt>
      <trkpt lat="47.11013" lon="-0.98551">
        <ele>109.6</ele>
        <time>2022-11-11T14:03:33Z</time>
      </trkpt>
      <trkpt lat="47.11014" lon="-0.98547">
        <ele>109.6</ele>
        <time>2022-11-11T14:03:35Z</time>
      </trkpt>
      <trkpt lat="47.11015" lon="-0.98542">
        <ele>109.6</ele>
        <time>2022-11-11T14:03:38Z</time>
      </trkpt>
      <trkpt lat="47.11016" lon="-0.98538">
        <ele>109.6</ele>
        <time>2022-11-11T14:03:40Z</time>
      </trkpt>
      <trkpt lat="47.11017" lon="-0.98535">
        <ele>109.6</ele>
        <time>2022-11-11T14:03:42Z</time>
      </trkpt>
      <trkpt lat="47.11018" lon="-0.98534">
        <ele>109.6</ele>
        <time>2022-11-11T14:03:43Z</time>
      </trkpt>
      <trkpt lat="47.1102" lon="-0.98532">
        <ele>109.5</ele>
        <time>2022-11-11T14:03:45Z</time>
      </trkpt>
      <trkpt lat="47.11023" lon="-0.98528">
        <ele>109.5</ele>
        <time>2022-11-11T14:03:48Z</time>
      </trkpt>
      <trkpt lat="47.11026" lon="-0.98525">
        <ele>109.5</ele>
        <time>2022-11-11T14:03:51Z</time>
      </trkpt>
      <trkpt lat="47.11028" lon="-0.98523">
        <ele>109.5</ele>
        <time>2022-11-11T14:03:53Z</time>
      </trkpt>
      <trkpt lat="47.11031" lon="-0.98521">
        <ele>109.5</ele>
        <time>2022-11-11T14:03:56Z</time>
      </trkpt>
      <trkpt lat="47.11033" lon="-0.98519">
        <ele>109.5</ele>
        <time>2022-11-11T14:03:58Z</time>
      </trkpt>
      <trkpt lat="47.11036" lon="-0.98517">
        <ele>109.5</ele>
        <time>2022-11-11T14:04:01Z</time>
      </trkpt>
      <trkpt lat="47.11038" lon="-0.98515">
        <ele>109.5</ele>
        <time>2022-11-11T14:04:03Z</time>
      </trkpt>
      <trkpt lat="47.11041" lon="-0.98513">
        <ele>109.4</ele>
        <time>2022-11-11T14:04:06Z</time>
      </trkpt>
      <trkpt lat="47.11044" lon="-0.98512">
        <ele>109.4</ele>
        <time>2022-11-11T14:04:09Z</time>
      </trkpt>
      <trkpt lat="47.11046" lon="-0.9851">
        <ele>109.4</ele>
        <time>2022-11-11T14:04:11Z</time>
      </trkpt>
      <trkpt lat="47.11049" lon="-0.98509">
        <ele>109.4</ele>
        <time>2022-11-11T14:04:14Z</time>
      </trkpt>
      <trkpt lat="47.11051" lon="-0.98508">
        <ele>109.4</ele>
        <time>2022-11-11T14:04:16Z</time>
      </trkpt>
      <trkpt lat="47.11054" lon="-0.98506">
        <ele>109.4</ele>
        <time>2022-11-11T14:04:19Z</time>
      </trkpt>
      <trkpt lat="47.11055" lon="-0.98505">
        <ele>109.4</ele>
        <time>2022-11-11T14:04:20Z</time>
      </trkpt>
      <trkpt lat="47.11056" lon="-0.98505">
        <ele>109.4</ele>
        <time>2022-11-11T14:04:21Z</time>
      </trkpt>
      <trkpt lat="47.11059" lon="-0.98504">
        <ele>109.4</ele>
        <time>2022-11-11T14:04:24Z</time>
      </trkpt>
      <trkpt lat="47.11061" lon="-0.98503">
        <ele>109.3</ele>
        <time>2022-11-11T14:04:27Z</time>
      </trkpt>
      <trkpt lat="47.11063" lon="-0.98502">
        <ele>109.3</ele>
        <time>2022-11-11T14:04:29Z</time>
      </trkpt>
      <trkpt lat="47.11066" lon="-0.98502">
        <ele>109.3</ele>
        <time>2022-11-11T14:04:32Z</time>
      </trkpt>
      <trkpt lat="47.11068" lon="-0.98501">
        <ele>109.3</ele>
        <time>2022-11-11T14:04:34Z</time>
      </trkpt>
      <trkpt lat="47.11072" lon="-0.985">
        <ele>109.3</ele>
        <time>2022-11-11T14:04:37Z</time>
      </trkpt>
      <trkpt lat="47.11074" lon="-0.985">
        <ele>109.3</ele>
        <time>2022-11-11T14:04:39Z</time>
      </trkpt>
      <trkpt lat="47.11077" lon="-0.98499">
        <ele>109.3</ele>
        <time>2022-11-11T14:04:42Z</time>
      </trkpt>
      <trkpt lat="47.1108" lon="-0.98499">
        <ele>109.3</ele>
        <time>2022-11-11T14:04:45Z</time>
      </trkpt>
      <trkpt lat="47.11082" lon="-0.98499">
        <ele>109.2</ele>
        <time>2022-11-11T14:04:47Z</time>
      </trkpt>
      <trkpt lat="47.11085" lon="-0.98499">
        <ele>109.2</ele>
        <time>2022-11-11T14:04:50Z</time>
      </trkpt>
      <trkpt lat="47.11087" lon="-0.98499">
        <ele>109.2</ele>
        <time>2022-11-11T14:04:52Z</time>
      </trkpt>
      <trkpt lat="47.1109" lon="-0.98499">
        <ele>109.2</ele>
        <time>2022-11-11T14:04:55Z</time>
      </trkpt>
      <trkpt lat="47.11092" lon="-0.98499">
        <ele>109.2</ele>
        <time>2022-11-11T14:04:57Z</time>
      </trkpt>
      <trkpt lat="47.11095" lon="-0.98499">
        <ele>109.2</ele>
        <time>2022-11-11T14:05:00Z</time>
      </trkpt>
      <trkpt lat="47.11096" lon="-0.98499">
        <ele>109.2</ele>
        <time>2022-11-11T14:05:01Z</time>
      </trkpt>
      <trkpt lat="47.11098" lon="-0.985">
        <ele>109.2</ele>
        <time>2022-11-11T14:05:03Z</time>
      </trkpt>
      <trkpt lat="47.111" lon="-0.98501">
        <ele>109.2</ele>
        <time>2022-11-11T14:05:05Z</time>
      </trkpt>
      <trkpt lat="47.11103" lon="-0.98502">
        <ele>109.1</ele>
        <time>2022-11-11T14:05:08Z</time>
      </trkpt>
      <trkpt lat="47.11104" lon="-0.98503">
        <ele>109.1</ele>
        <time>2022-11-11T14:05:10Z</time>
      </trkpt>
      <trkpt lat="47.11107" lon="-0.98504">
        <ele>109.1</ele>
        <time>2022-11-11T14:05:13Z</time>
      </trkpt>
      <trkpt lat="47.11109" lon="-0.98505">
        <ele>109.1</ele>
        <time>2022-11-11T14:05:15Z</time>
      </trkpt>
      <trkpt lat="47.1111" lon="-0.98506">
        <ele>109.1</ele>
        <time>2022-11-11T14:05:17Z</time>
      </trkpt>
      <trkpt lat="47.1111" lon="-0.98507">
        <ele>109.1</ele>
        <time>2022-11-11T14:05:18Z</time>
      </trkpt>
      <trkpt lat="47.1111" lon="-0.98511">
        <ele>109.1</ele>
        <time>2022-11-11T14:05:21Z</time>
      </trkpt>
      <trkpt lat="47.1111" lon="-0.98513">
        <ele>109.1</ele>
        <time>2022-11-11T14:05:23Z</time>
      </trkpt>
      <trkpt lat="47.1111" lon="-0.98517">
        <ele>109.1</ele>
        <time>2022-11-11T14:05:26Z</time>
      </trkpt>
      <trkpt lat="47.1111" lon="-0.98519">
        <ele>109.1</ele>
        <time>2022-11-11T14:05:28Z</time>
      </trkpt>
      <trkpt lat="47.1111" lon="-0.98523">
        <ele>109</ele>
        <time>2022-11-11T14:05:31Z</time>
      </trkpt>
      <trkpt lat="47.1111" lon="-0.98526">
        <ele>109</ele>
        <time>2022-11-11T14:05:33Z</time>
      </trkpt>
      <trkpt lat="47.11109" lon="-0.98531">
        <ele>109</ele>
        <time>2022-11-11T14:05:36Z</time>
      </trkpt>
      <trkpt lat="47.11108" lon="-0.98536">
        <ele>109</ele>
        <time>2022-11-11T14:05:39Z</time>
      </trkpt>
      <trkpt lat="47.11108" lon="-0.9854">
        <ele>109</ele>
        <time>2022-11-11T14:05:41Z</time>
      </trkpt>
      <trkpt lat="47.11107" lon="-0.98545">
        <ele>109</ele>
        <time>2022-11-11T14:05:44Z</time>
      </trkpt>
      <trkpt lat="47.11106" lon="-0.98549">
        <ele>109</ele>
        <time>2022-11-11T14:05:46Z</time>
      </trkpt>
      <trkpt lat="47.11105" lon="-0.98554">
        <ele>109</ele>
        <time>2022-11-11T14:05:49Z</time>
      </trkpt>
      <trkpt lat="47.11104" lon="-0.98558">
        <ele>108.9</ele>
        <time>2022-11-11T14:05:51Z</time>
      </trkpt>
      <trkpt lat="47.11103" lon="-0.98563">
        <ele>108.9</ele>
        <time>2022-11-11T14:05:54Z</time>
      </trkpt>
      <trkpt lat="47.11103" lon="-0.98565">
        <ele>108.9</ele>
        <time>2022-11-11T14:05:55Z</time>
      </trkpt>
      <trkpt lat="47.11102" lon="-0.98569">
        <ele>108.9</ele>
        <time>2022-11-11T14:05:57Z</time>
      </trkpt>
      <trkpt lat="47.11102" lon="-0.98572">
        <ele>108.9</ele>
        <time>2022-11-11T14:05:59Z</time>
      </trkpt>
      <trkpt lat="47.11101" lon="-0.98577">
        <ele>108.9</ele>
        <time>2022-11-11T14:06:02Z</time>
      </trkpt>
      <trkpt lat="47.111" lon="-0.9858">
        <ele>108.9</ele>
        <time>2022-11-11T14:06:04Z</time>
      </trkpt>
      <trkpt lat="47.111" lon="-0.98585">
        <ele>108.9</ele>
        <time>2022-11-11T14:06:07Z</time>
      </trkpt>
      <trkpt lat="47.11099" lon="-0.98591">
        <ele>108.9</ele>
        <time>2022-11-11T14:06:10Z</time>
      </trkpt>
      <trkpt lat="47.11099" lon="-0.98594">
        <ele>108.8</ele>
        <time>2022-11-11T14:06:12Z</time>
      </trkpt>
      <trkpt lat="47.11098" lon="-0.98599">
        <ele>108.8</ele>
        <time>2022-11-11T14:06:15Z</time>
      </trkpt>
      <trkpt lat="47.11098" lon="-0.98602">
        <ele>108.8</ele>
        <time>2022-11-11T14:06:17Z</time>
      </trkpt>
      <trkpt lat="47.11097" lon="-0.98606">
        <ele>108.8</ele>
        <time>2022-11-11T14:06:19Z</time>
      </trkpt>
      <trkpt lat="47.11097" lon="-0.98607">
        <ele>108.8</ele>
        <time>2022-11-11T14:06:20Z</time>
      </trkpt>
      <trkpt lat="47.11096" lon="-0.9861">
        <ele>108.8</ele>
        <time>2022-11-11T14:06:22Z</time>
      </trkpt>
      <trkpt lat="47.11096" lon="-0.98614">
        <ele>108.8</ele>
        <time>2022-11-11T14:06:25Z</time>
      </trkpt>
      <trkpt lat="47.11095" lon="-0.98618">
        <ele>108.8</ele>
        <time>2022-11-11T14:06:28Z</time>
      </trkpt>
      <trkpt lat="47.11094" lon="-0.98621">
        <ele>108.8</ele>
        <time>2022-11-11T14:06:30Z</time>
      </trkpt>
      <trkpt lat="47.11093" lon="-0.98625">
        <ele>108.7</ele>
        <time>2022-11-11T14:06:33Z</time>
      </trkpt>
      <trkpt lat="47.11093" lon="-0.98628">
        <ele>108.7</ele>
        <time>2022-11-11T14:06:35Z</time>
      </trkpt>
      <trkpt lat="47.11093" lon="-0.98633">
        <ele>108.7</ele>
        <time>2022-11-11T14:06:38Z</time>
      </trkpt>
      <trkpt lat="47.11093" lon="-0.98636">
        <ele>108.7</ele>
        <time>2022-11-11T14:06:40Z</time>
      </trkpt>
      <trkpt lat="47.11092" lon="-0.98641">
        <ele>108.7</ele>
        <time>2022-11-11T14:06:43Z</time>
      </trkpt>
      <trkpt lat="47.11092" lon="-0.98645">
        <ele>108.7</ele>
        <time>2022-11-11T14:06:46Z</time>
      </trkpt>
      <trkpt lat="47.11093" lon="-0.98648">
        <ele>108.7</ele>
        <time>2022-11-11T14:06:48Z</time>
      </trkpt>
      <trkpt lat="47.11093" lon="-0.98653">
        <ele>108.7</ele>
        <time>2022-11-11T14:06:51Z</time>
      </trkpt>
      <trkpt lat="47.11094" lon="-0.98656">
        <ele>108.6</ele>
        <time>2022-11-11T14:06:53Z</time>
      </trkpt>
      <trkpt lat="47.11094" lon="-0.98661">
        <ele>108.6</ele>
        <time>2022-11-11T14:06:56Z</time>
      </trkpt>
      <trkpt lat="47.11095" lon="-0.98664">
        <ele>108.6</ele>
        <time>2022-11-11T14:06:58Z</time>
      </trkpt>
      <trkpt lat="47.11095" lon="-0.98665">
        <ele>108.6</ele>
        <time>2022-11-11T14:06:59Z</time>
      </trkpt>
      <trkpt lat="47.11096" lon="-0.98668">
        <ele>108.6</ele>
        <time>2022-11-11T14:07:01Z</time>
      </trkpt>
      <trkpt lat="47.11098" lon="-0.98673">
        <ele>108.6</ele>
        <time>2022-11-11T14:07:04Z</time>
      </trkpt>
      <trkpt lat="47.11099" lon="-0.98676">
        <ele>108.6</ele>
        <time>2022-11-11T14:07:06Z</time>
      </trkpt>
      <trkpt lat="47.11101" lon="-0.98681">
        <ele>108.6</ele>
        <time>2022-11-11T14:07:09Z</time>
      </trkpt>
      <trkpt lat="47.11102" lon="-0.98684">
        <ele>108.6</ele>
        <time>2022-11-11T14:07:11Z</time>
      </trkpt>
      <trkpt lat="47.11103" lon="-0.98688">
        <ele>108.5</ele>
        <time>2022-11-11T14:07:14Z</time>
      </trkpt>
      <trkpt lat="47.11104" lon="-0.9869">
        <ele>108.5</ele>
        <time>2022-11-11T14:07:16Z</time>
      </trkpt>
      <trkpt lat="47.11106" lon="-0.98694">
        <ele>108.5</ele>
        <time>2022-11-11T14:07:19Z</time>
      </trkpt>
      <trkpt lat="47.11108" lon="-0.98698">
        <ele>108.5</ele>
        <time>2022-11-11T14:07:22Z</time>
      </trkpt>
      <trkpt lat="47.11109" lon="-0.98701">
        <ele>108.5</ele>
        <time>2022-11-11T14:07:24Z</time>
      </trkpt>
      <trkpt lat="47.11111" lon="-0.98704">
        <ele>108.5</ele>
        <time>2022-11-11T14:07:27Z</time>
      </trkpt>
      <trkpt lat="47.11112" lon="-0.98705">
        <ele>108.5</ele>
        <time>2022-11-11T14:07:29Z</time>
      </trkpt>
      <trkpt lat="47.11114" lon="-0.98708">
        <ele>108.5</ele>
        <time>2022-11-11T14:07:32Z</time>
      </trkpt>
      <trkpt lat="47.11115" lon="-0.9871">
        <ele>108.4</ele>
        <time>2022-11-11T14:07:34Z</time>
      </trkpt>
      <trkpt lat="47.11117" lon="-0.98712">
        <ele>108.4</ele>
        <time>2022-11-11T14:07:37Z</time>
      </trkpt>
      <trkpt lat="47.11119" lon="-0.98715">
        <ele>108.4</ele>
        <time>2022-11-11T14:07:40Z</time>
      </trkpt>
      <trkpt lat="47.11121" lon="-0.98716">
        <ele>108.4</ele>
        <time>2022-11-11T14:07:42Z</time>
      </trkpt>
      <trkpt lat="47.11124" lon="-0.98717">
        <ele>108.4</ele>
        <time>2022-11-11T14:07:45Z</time>
      </trkpt>
      <trkpt lat="47.11125" lon="-0.98718">
        <ele>108.4</ele>
        <time>2022-11-11T14:07:47Z</time>
      </trkpt>
      <trkpt lat="47.11128" lon="-0.98719">
        <ele>108.4</ele>
        <time>2022-11-11T14:07:50Z</time>
      </trkpt>
      <trkpt lat="47.11129" lon="-0.9872">
        <ele>108.4</ele>
        <time>2022-11-11T14:07:52Z</time>
      </trkpt>
      <trkpt lat="47.11132" lon="-0.98721">
        <ele>108.3</ele>
        <time>2022-11-11T14:07:55Z</time>
      </trkpt>
      <trkpt lat="47.11133" lon="-0.98721">
        <ele>108.3</ele>
        <time>2022-11-11T14:07:56Z</time>
      </trkpt>
      <trkpt lat="47.11134" lon="-0.98725">
        <ele>108.3</ele>
        <time>2022-11-11T14:07:58Z</time>
      </trkpt>
      <trkpt lat="47.11135" lon="-0.98729">
        <ele>108.3</ele>
        <time>2022-11-11T14:08:00Z</time>
      </trkpt>
      <trkpt lat="47.11137" lon="-0.98734">
        <ele>108.3</ele>
        <time>2022-11-11T14:08:03Z</time>
      </trkpt>
      <trkpt lat="47.11138" lon="-0.98738">
        <ele>108.3</ele>
        <time>2022-11-11T14:08:05Z</time>
      </trkpt>
      <trkpt lat="47.11139" lon="-0.9874">
        <ele>108.3</ele>
        <time>2022-11-11T14:08:06Z</time>
      </trkpt>
      <trkpt lat="47.1114" lon="-0.98744">
        <ele>108.3</ele>
        <time>2022-11-11T14:08:08Z</time>
      </trkpt>
      <trkpt lat="47.11141" lon="-0.98749">
        <ele>108.3</ele>
        <time>2022-11-11T14:08:10Z</time>
      </trkpt>
      <trkpt lat="47.11142" lon="-0.98756">
        <ele>108.3</ele>
        <time>2022-11-11T14:08:13Z</time>
      </trkpt>
      <trkpt lat="47.11143" lon="-0.9876">
        <ele>108.3</ele>
        <time>2022-11-11T14:08:15Z</time>
      </trkpt>
      <trkpt lat="47.11143" lon="-0.98762">
        <ele>108.2</ele>
        <time>2022-11-11T14:08:16Z</time>
      </trkpt>
      <trkpt lat="47.11145" lon="-0.98766">
        <ele>108.2</ele>
        <time>2022-11-11T14:08:18Z</time>
      </trkpt>
      <trkpt lat="47.11148" lon="-0.98772">
        <ele>108.2</ele>
        <time>2022-11-11T14:08:21Z</time>
      </trkpt>
      <trkpt lat="47.11149" lon="-0.98776">
        <ele>108.2</ele>
        <time>2022-11-11T14:08:23Z</time>
      </trkpt>
      <trkpt lat="47.11151" lon="-0.98779">
        <ele>108.2</ele>
        <time>2022-11-11T14:08:25Z</time>
      </trkpt>
      <trkpt lat="47.11152" lon="-0.98781">
        <ele>108.2</ele>
        <time>2022-11-11T14:08:26Z</time>
      </trkpt>
      <trkpt lat="47.11153" lon="-0.98784">
        <ele>108.2</ele>
        <time>2022-11-11T14:08:28Z</time>
      </trkpt>
      <trkpt lat="47.11156" lon="-0.98789">
        <ele>108.2</ele>
        <time>2022-11-11T14:08:31Z</time>
      </trkpt>
      <trkpt lat="47.11158" lon="-0.98794">
        <ele>108.2</ele>
        <time>2022-11-11T14:08:34Z</time>
      </trkpt>
      <trkpt lat="47.1116" lon="-0.98797">
        <ele>108.2</ele>
        <time>2022-11-11T14:08:36Z</time>
      </trkpt>
      <trkpt lat="47.11161" lon="-0.98799">
        <ele>108.1</ele>
        <time>2022-11-11T14:08:38Z</time>
      </trkpt>
      <trkpt lat="47.11162" lon="-0.98801">
        <ele>108.1</ele>
        <time>2022-11-11T14:08:39Z</time>
      </trkpt>
      <trkpt lat="47.11164" lon="-0.98803">
        <ele>108.1</ele>
        <time>2022-11-11T14:08:41Z</time>
      </trkpt>
      <trkpt lat="47.11166" lon="-0.98807">
        <ele>108.1</ele>
        <time>2022-11-11T14:08:44Z</time>
      </trkpt>
      <trkpt lat="47.11167" lon="-0.9881">
        <ele>108</ele>
        <time>2022-11-11T14:08:46Z</time>
      </trkpt>
      <trkpt lat="47.11169" lon="-0.98812">
        <ele>108</ele>
        <time>2022-11-11T14:08:48Z</time>
      </trkpt>
      <trkpt lat="47.1117" lon="-0.98813">
        <ele>108</ele>
        <time>2022-11-11T14:08:49Z</time>
      </trkpt>
      <trkpt lat="47.11172" lon="-0.98817">
        <ele>108</ele>
        <time>2022-11-11T14:08:52Z</time>
      </trkpt>
      <trkpt lat="47.11174" lon="-0.9882">
        <ele>107.9</ele>
        <time>2022-11-11T14:08:54Z</time>
      </trkpt>
      <trkpt lat="47.11176" lon="-0.98824">
        <ele>107.9</ele>
        <time>2022-11-11T14:08:57Z</time>
      </trkpt>
      <trkpt lat="47.11178" lon="-0.98827">
        <ele>107.9</ele>
        <time>2022-11-11T14:08:59Z</time>
      </trkpt>
      <trkpt lat="47.11179" lon="-0.98828">
        <ele>107.9</ele>
        <time>2022-11-11T14:09:00Z</time>
      </trkpt>
      <trkpt lat="47.11181" lon="-0.9883">
        <ele>107.8</ele>
        <time>2022-11-11T14:09:02Z</time>
      </trkpt>
      <trkpt lat="47.11182" lon="-0.98833">
        <ele>107.8</ele>
        <time>2022-11-11T14:09:04Z</time>
      </trkpt>
      <trkpt lat="47.11185" lon="-0.98837">
        <ele>107.8</ele>
        <time>2022-11-11T14:09:07Z</time>
      </trkpt>
      <trkpt lat="47.11187" lon="-0.98841">
        <ele>107.7</ele>
        <time>2022-11-11T14:09:10Z</time>
      </trkpt>
      <trkpt lat="47.11188" lon="-0.98843">
        <ele>107.7</ele>
        <time>2022-11-11T14:09:12Z</time>
      </trkpt>
      <trkpt lat="47.11191" lon="-0.98846">
        <ele>107.7</ele>
        <time>2022-11-11T14:09:15Z</time>
      </trkpt>
      <trkpt lat="47.11192" lon="-0.98849">
        <ele>107.7</ele>
        <time>2022-11-11T14:09:17Z</time>
      </trkpt>
      <trkpt lat="47.11194" lon="-0.98852">
        <ele>107.6</ele>
        <time>2022-11-11T14:09:20Z</time>
      </trkpt>
      <trkpt lat="47.11196" lon="-0.98854">
        <ele>107.6</ele>
        <time>2022-11-11T14:09:22Z</time>
      </trkpt>
      <trkpt lat="47.11198" lon="-0.98857">
        <ele>107.6</ele>
        <time>2022-11-11T14:09:25Z</time>
      </trkpt>
      <trkpt lat="47.112" lon="-0.98861">
        <ele>107.5</ele>
        <time>2022-11-11T14:09:28Z</time>
      </trkpt>
      <trkpt lat="47.11201" lon="-0.98863">
        <ele>107.5</ele>
        <time>2022-11-11T14:09:30Z</time>
      </trkpt>
      <trkpt lat="47.11203" lon="-0.98867">
        <ele>107.5</ele>
        <time>2022-11-11T14:09:33Z</time>
      </trkpt>
      <trkpt lat="47.11204" lon="-0.98869">
        <ele>107.4</ele>
        <time>2022-11-11T14:09:35Z</time>
      </trkpt>
      <trkpt lat="47.11206" lon="-0.98873">
        <ele>107.4</ele>
        <time>2022-11-11T14:09:38Z</time>
      </trkpt>
      <trkpt lat="47.11208" lon="-0.98875">
        <ele>107.4</ele>
        <time>2022-11-11T14:09:40Z</time>
      </trkpt>
      <trkpt lat="47.11211" lon="-0.98878">
        <ele>107.3</ele>
        <time>2022-11-11T14:09:43Z</time>
      </trkpt>
      <trkpt lat="47.11213" lon="-0.98882">
        <ele>107.3</ele>
        <time>2022-11-11T14:09:46Z</time>
      </trkpt>
      <trkpt lat="47.11215" lon="-0.98884">
        <ele>107.3</ele>
        <time>2022-11-11T14:09:48Z</time>
      </trkpt>
      <trkpt lat="47.11217" lon="-0.98887">
        <ele>107.2</ele>
        <time>2022-11-11T14:09:51Z</time>
      </trkpt>
      <trkpt lat="47.11219" lon="-0.9889">
        <ele>107.2</ele>
        <time>2022-11-11T14:09:53Z</time>
      </trkpt>
      <trkpt lat="47.11221" lon="-0.98894">
        <ele>107.2</ele>
        <time>2022-11-11T14:09:56Z</time>
      </trkpt>
      <trkpt lat="47.11222" lon="-0.98897">
        <ele>107.2</ele>
        <time>2022-11-11T14:09:58Z</time>
      </trkpt>
      <trkpt lat="47.11224" lon="-0.98901">
        <ele>107.1</ele>
        <time>2022-11-11T14:10:01Z</time>
      </trkpt>
      <trkpt lat="47.11226" lon="-0.98904">
        <ele>107.1</ele>
        <time>2022-11-11T14:10:03Z</time>
      </trkpt>
      <trkpt lat="47.11226" lon="-0.98906">
        <ele>107.1</ele>
        <time>2022-11-11T14:10:04Z</time>
      </trkpt>
      <trkpt lat="47.11228" lon="-0.98908">
        <ele>107.1</ele>
        <time>2022-11-11T14:10:06Z</time>
      </trkpt>
      <trkpt lat="47.1123" lon="-0.98912">
        <ele>107</ele>
        <time>2022-11-11T14:10:09Z</time>
      </trkpt>
      <trkpt lat="47.11231" lon="-0.98915">
        <ele>107</ele>
        <time>2022-11-11T14:10:11Z</time>
      </trkpt>
      <trkpt lat="47.11233" lon="-0.98919">
        <ele>107</ele>
        <time>2022-11-11T14:10:14Z</time>
      </trkpt>
      <trkpt lat="47.11234" lon="-0.9892">
        <ele>106.9</ele>
        <time>2022-11-11T14:10:15Z</time>
      </trkpt>
      <trkpt lat="47.11235" lon="-0.98922">
        <ele>106.9</ele>
        <time>2022-11-11T14:10:16Z</time>
      </trkpt>
      <trkpt lat="47.11237" lon="-0.98926">
        <ele>106.9</ele>
        <time>2022-11-11T14:10:19Z</time>
      </trkpt>
      <trkpt lat="47.11239" lon="-0.9893">
        <ele>106.9</ele>
        <time>2022-11-11T14:10:22Z</time>
      </trkpt>
      <trkpt lat="47.11241" lon="-0.98933">
        <ele>106.8</ele>
        <time>2022-11-11T14:10:24Z</time>
      </trkpt>
      <trkpt lat="47.11244" lon="-0.98937">
        <ele>106.8</ele>
        <time>2022-11-11T14:10:27Z</time>
      </trkpt>
      <trkpt lat="47.11245" lon="-0.98938">
        <ele>106.8</ele>
        <time>2022-11-11T14:10:29Z</time>
      </trkpt>
      <trkpt lat="47.11247" lon="-0.98941">
        <ele>106.7</ele>
        <time>2022-11-11T14:10:32Z</time>
      </trkpt>
      <trkpt lat="47.11248" lon="-0.98943">
        <ele>106.7</ele>
        <time>2022-11-11T14:10:34Z</time>
      </trkpt>
      <trkpt lat="47.1125" lon="-0.98945">
        <ele>106.7</ele>
        <time>2022-11-11T14:10:37Z</time>
      </trkpt>
      <trkpt lat="47.11252" lon="-0.98948">
        <ele>106.6</ele>
        <time>2022-11-11T14:10:40Z</time>
      </trkpt>
      <trkpt lat="47.11253" lon="-0.9895">
        <ele>106.6</ele>
        <time>2022-11-11T14:10:42Z</time>
      </trkpt>
      <trkpt lat="47.11254" lon="-0.9895">
        <ele>106.6</ele>
        <time>2022-11-11T14:10:43Z</time>
      </trkpt>
      <trkpt lat="47.11255" lon="-0.98952">
        <ele>106.6</ele>
        <time>2022-11-11T14:10:44Z</time>
      </trkpt>
      <trkpt lat="47.11256" lon="-0.98953">
        <ele>106.6</ele>
        <time>2022-11-11T14:10:45Z</time>
      </trkpt>
      <trkpt lat="47.11257" lon="-0.98956">
        <ele>106.5</ele>
        <time>2022-11-11T14:10:47Z</time>
      </trkpt>
      <trkpt lat="47.1126" lon="-0.98961">
        <ele>106.5</ele>
        <time>2022-11-11T14:10:50Z</time>
      </trkpt>
      <trkpt lat="47.11262" lon="-0.98964">
        <ele>106.5</ele>
        <time>2022-11-11T14:10:52Z</time>
      </trkpt>
      <trkpt lat="47.11263" lon="-0.98967">
        <ele>106.5</ele>
        <time>2022-11-11T14:10:54Z</time>
      </trkpt>
      <trkpt lat="47.11264" lon="-0.98968">
        <ele>106.4</ele>
        <time>2022-11-11T14:10:55Z</time>
      </trkpt>
      <trkpt lat="47.11267" lon="-0.98972">
        <ele>106.4</ele>
        <time>2022-11-11T14:10:58Z</time>
      </trkpt>
      <trkpt lat="47.11268" lon="-0.98975">
        <ele>106.4</ele>
        <time>2022-11-11T14:11:00Z</time>
      </trkpt>
      <trkpt lat="47.11271" lon="-0.98978">
        <ele>106.3</ele>
        <time>2022-11-11T14:11:03Z</time>
      </trkpt>
      <trkpt lat="47.11273" lon="-0.98981">
        <ele>106.3</ele>
        <time>2022-11-11T14:11:05Z</time>
      </trkpt>
      <trkpt lat="47.11274" lon="-0.98982">
        <ele>106.3</ele>
        <time>2022-11-11T14:11:06Z</time>
      </trkpt>
      <trkpt lat="47.11276" lon="-0.98984">
        <ele>106.3</ele>
        <time>2022-11-11T14:11:08Z</time>
      </trkpt>
      <trkpt lat="47.11278" lon="-0.98985">
        <ele>106.3</ele>
        <time>2022-11-11T14:11:10Z</time>
      </trkpt>
      <trkpt lat="47.1128" lon="-0.98987">
        <ele>106.2</ele>
        <time>2022-11-11T14:11:13Z</time>
      </trkpt>
      <trkpt lat="47.11283" lon="-0.9899">
        <ele>106.2</ele>
        <time>2022-11-11T14:11:16Z</time>
      </trkpt>
      <trkpt lat="47.11285" lon="-0.98991">
        <ele>106.2</ele>
        <time>2022-11-11T14:11:18Z</time>
      </trkpt>
      <trkpt lat="47.11286" lon="-0.98992">
        <ele>106.2</ele>
        <time>2022-11-11T14:11:19Z</time>
      </trkpt>
      <trkpt lat="47.11289" lon="-0.98994">
        <ele>106.1</ele>
        <time>2022-11-11T14:11:21Z</time>
      </trkpt>
      <trkpt lat="47.11291" lon="-0.98996">
        <ele>106.1</ele>
        <time>2022-11-11T14:11:23Z</time>
      </trkpt>
      <trkpt lat="47.11295" lon="-0.98999">
        <ele>106.1</ele>
        <time>2022-11-11T14:11:26Z</time>
      </trkpt>
      <trkpt lat="47.11297" lon="-0.99001">
        <ele>106</ele>
        <time>2022-11-11T14:11:28Z</time>
      </trkpt>
      <trkpt lat="47.11298" lon="-0.99002">
        <ele>106</ele>
        <time>2022-11-11T14:11:29Z</time>
      </trkpt>
      <trkpt lat="47.113" lon="-0.99004">
        <ele>106</ele>
        <time>2022-11-11T14:11:31Z</time>
      </trkpt>
      <trkpt lat="47.11304" lon="-0.99007">
        <ele>106</ele>
        <time>2022-11-11T14:11:34Z</time>
      </trkpt>
      <trkpt lat="47.11306" lon="-0.99009">
        <ele>105.9</ele>
        <time>2022-11-11T14:11:36Z</time>
      </trkpt>
      <trkpt lat="47.11309" lon="-0.99011">
        <ele>105.9</ele>
        <time>2022-11-11T14:11:39Z</time>
      </trkpt>
      <trkpt lat="47.11311" lon="-0.99013">
        <ele>105.9</ele>
        <time>2022-11-11T14:11:41Z</time>
      </trkpt>
      <trkpt lat="47.11311" lon="-0.99017">
        <ele>105.8</ele>
        <time>2022-11-11T14:11:44Z</time>
      </trkpt>
      <trkpt lat="47.1131" lon="-0.9902">
        <ele>105.8</ele>
        <time>2022-11-11T14:11:47Z</time>
      </trkpt>
      <trkpt lat="47.1131" lon="-0.99023">
        <ele>105.8</ele>
        <time>2022-11-11T14:11:49Z</time>
      </trkpt>
      <trkpt lat="47.1131" lon="-0.99027">
        <ele>105.7</ele>
        <time>2022-11-11T14:11:52Z</time>
      </trkpt>
      <trkpt lat="47.1131" lon="-0.99029">
        <ele>105.7</ele>
        <time>2022-11-11T14:11:54Z</time>
      </trkpt>
      <trkpt lat="47.11309" lon="-0.99033">
        <ele>105.7</ele>
        <time>2022-11-11T14:11:57Z</time>
      </trkpt>
      <trkpt lat="47.11309" lon="-0.99036">
        <ele>105.7</ele>
        <time>2022-11-11T14:11:59Z</time>
      </trkpt>
      <trkpt lat="47.11309" lon="-0.99041">
        <ele>105.6</ele>
        <time>2022-11-11T14:12:02Z</time>
      </trkpt>
      <trkpt lat="47.11309" lon="-0.99046">
        <ele>105.6</ele>
        <time>2022-11-11T14:12:05Z</time>
      </trkpt>
      <trkpt lat="47.11309" lon="-0.99049">
        <ele>105.6</ele>
        <time>2022-11-11T14:12:07Z</time>
      </trkpt>
      <trkpt lat="47.11309" lon="-0.99052">
        <ele>105.5</ele>
        <time>2022-11-11T14:12:09Z</time>
      </trkpt>
      <trkpt lat="47.1131" lon="-0.99052">
        <ele>105.5</ele>
        <time>2022-11-11T14:12:10Z</time>
      </trkpt>
      <trkpt lat="47.11313" lon="-0.99051">
        <ele>105.5</ele>
        <time>2022-11-11T14:12:12Z</time>
      </trkpt>
      <trkpt lat="47.11317" lon="-0.99051">
        <ele>105.5</ele>
        <time>2022-11-11T14:12:15Z</time>
      </trkpt>
      <trkpt lat="47.11319" lon="-0.99051">
        <ele>105.4</ele>
        <time>2022-11-11T14:12:17Z</time>
      </trkpt>
      <trkpt lat="47.11323" lon="-0.9905">
        <ele>105.4</ele>
        <time>2022-11-11T14:12:20Z</time>
      </trkpt>
      <trkpt lat="47.11324" lon="-0.9905">
        <ele>105.4</ele>
        <time>2022-11-11T14:12:21Z</time>
      </trkpt>
      <trkpt lat="47.11326" lon="-0.9905">
        <ele>105.4</ele>
        <time>2022-11-11T14:12:23Z</time>
      </trkpt>
      <trkpt lat="47.11328" lon="-0.99049">
        <ele>105.3</ele>
        <time>2022-11-11T14:12:25Z</time>
      </trkpt>
      <trkpt lat="47.11331" lon="-0.99049">
        <ele>105.3</ele>
        <time>2022-11-11T14:12:28Z</time>
      </trkpt>
      <trkpt lat="47.11333" lon="-0.99048">
        <ele>105.3</ele>
        <time>2022-11-11T14:12:30Z</time>
      </trkpt>
      <trkpt lat="47.11335" lon="-0.99047">
        <ele>105.2</ele>
        <time>2022-11-11T14:12:33Z</time>
      </trkpt>
      <trkpt lat="47.11337" lon="-0.99047">
        <ele>105.2</ele>
        <time>2022-11-11T14:12:35Z</time>
      </trkpt>
      <trkpt lat="47.11338" lon="-0.99047">
        <ele>105.2</ele>
        <time>2022-11-11T14:12:36Z</time>
      </trkpt>
      <trkpt lat="47.1134" lon="-0.99049">
        <ele>105.2</ele>
        <time>2022-11-11T14:12:38Z</time>
      </trkpt>
      <trkpt lat="47.11342" lon="-0.99053">
        <ele>105.1</ele>
        <time>2022-11-11T14:12:41Z</time>
      </trkpt>
      <trkpt lat="47.11343" lon="-0.99055">
        <ele>105.1</ele>
        <time>2022-11-11T14:12:43Z</time>
      </trkpt>
      <trkpt lat="47.11345" lon="-0.99059">
        <ele>105.1</ele>
        <time>2022-11-11T14:12:46Z</time>
      </trkpt>
      <trkpt lat="47.11346" lon="-0.99061">
        <ele>105.1</ele>
        <time>2022-11-11T14:12:48Z</time>
      </trkpt>
      <trkpt lat="47.11348" lon="-0.99063">
        <ele>105</ele>
        <time>2022-11-11T14:12:50Z</time>
      </trkpt>
      <trkpt lat="47.11349" lon="-0.99064">
        <ele>105</ele>
        <time>2022-11-11T14:12:51Z</time>
      </trkpt>
      <trkpt lat="47.1135" lon="-0.99067">
        <ele>105</ele>
        <time>2022-11-11T14:12:53Z</time>
      </trkpt>
      <trkpt lat="47.11352" lon="-0.9907">
        <ele>105</ele>
        <time>2022-11-11T14:12:56Z</time>
      </trkpt>
      <trkpt lat="47.11355" lon="-0.99073">
        <ele>105</ele>
        <time>2022-11-11T14:12:59Z</time>
      </trkpt>
      <trkpt lat="47.11356" lon="-0.99076">
        <ele>105</ele>
        <time>2022-11-11T14:13:01Z</time>
      </trkpt>
      <trkpt lat="47.11358" lon="-0.99078">
        <ele>105</ele>
        <time>2022-11-11T14:13:03Z</time>
      </trkpt>
      <trkpt lat="47.11359" lon="-0.99079">
        <ele>105</ele>
        <time>2022-11-11T14:13:04Z</time>
      </trkpt>
      <trkpt lat="47.11361" lon="-0.99081">
        <ele>105</ele>
        <time>2022-11-11T14:13:06Z</time>
      </trkpt>
      <trkpt lat="47.11364" lon="-0.99085">
        <ele>105</ele>
        <time>2022-11-11T14:13:09Z</time>
      </trkpt>
      <trkpt lat="47.11366" lon="-0.99087">
        <ele>105</ele>
        <time>2022-11-11T14:13:11Z</time>
      </trkpt>
      <trkpt lat="47.11369" lon="-0.9909">
        <ele>104.9</ele>
        <time>2022-11-11T14:13:14Z</time>
      </trkpt>
      <trkpt lat="47.11372" lon="-0.99093">
        <ele>104.9</ele>
        <time>2022-11-11T14:13:17Z</time>
      </trkpt>
      <trkpt lat="47.11373" lon="-0.99095">
        <ele>104.9</ele>
        <time>2022-11-11T14:13:19Z</time>
      </trkpt>
      <trkpt lat="47.11376" lon="-0.99098">
        <ele>104.9</ele>
        <time>2022-11-11T14:13:22Z</time>
      </trkpt>
      <trkpt lat="47.11378" lon="-0.991">
        <ele>104.9</ele>
        <time>2022-11-11T14:13:24Z</time>
      </trkpt>
      <trkpt lat="47.11381" lon="-0.99103">
        <ele>104.9</ele>
        <time>2022-11-11T14:13:27Z</time>
      </trkpt>
      <trkpt lat="47.11383" lon="-0.99105">
        <ele>104.9</ele>
        <time>2022-11-11T14:13:29Z</time>
      </trkpt>
      <trkpt lat="47.11386" lon="-0.99107">
        <ele>104.9</ele>
        <time>2022-11-11T14:13:32Z</time>
      </trkpt>
      <trkpt lat="47.11388" lon="-0.9911">
        <ele>104.9</ele>
        <time>2022-11-11T14:13:35Z</time>
      </trkpt>
      <trkpt lat="47.1139" lon="-0.99112">
        <ele>104.8</ele>
        <time>2022-11-11T14:13:37Z</time>
      </trkpt>
      <trkpt lat="47.11393" lon="-0.99114">
        <ele>104.8</ele>
        <time>2022-11-11T14:13:40Z</time>
      </trkpt>
      <trkpt lat="47.11395" lon="-0.99117">
        <ele>104.8</ele>
        <time>2022-11-11T14:13:42Z</time>
      </trkpt>
      <trkpt lat="47.11398" lon="-0.9912">
        <ele>104.8</ele>
        <time>2022-11-11T14:13:45Z</time>
      </trkpt>
      <trkpt lat="47.114" lon="-0.99122">
        <ele>104.8</ele>
        <time>2022-11-11T14:13:47Z</time>
      </trkpt>
      <trkpt lat="47.11402" lon="-0.99125">
        <ele>104.8</ele>
        <time>2022-11-11T14:13:50Z</time>
      </trkpt>
      <trkpt lat="47.11404" lon="-0.99127">
        <ele>104.8</ele>
        <time>2022-11-11T14:13:52Z</time>
      </trkpt>
      <trkpt lat="47.11405" lon="-0.99129">
        <ele>104.8</ele>
        <time>2022-11-11T14:13:53Z</time>
      </trkpt>
      <trkpt lat="47.11407" lon="-0.99131">
        <ele>104.8</ele>
        <time>2022-11-11T14:13:55Z</time>
      </trkpt>
      <trkpt lat="47.11409" lon="-0.99136">
        <ele>104.8</ele>
        <time>2022-11-11T14:13:58Z</time>
      </trkpt>
      <trkpt lat="47.11411" lon="-0.99139">
        <ele>104.8</ele>
        <time>2022-11-11T14:14:00Z</time>
      </trkpt>
      <trkpt lat="47.11414" lon="-0.99143">
        <ele>104.7</ele>
        <time>2022-11-11T14:14:03Z</time>
      </trkpt>
      <trkpt lat="47.11413" lon="-0.99146">
        <ele>104.7</ele>
        <time>2022-11-11T14:14:05Z</time>
      </trkpt>
      <trkpt lat="47.11413" lon="-0.99151">
        <ele>104.7</ele>
        <time>2022-11-11T14:14:08Z</time>
      </trkpt>
      <trkpt lat="47.11413" lon="-0.99155">
        <ele>104.7</ele>
        <time>2022-11-11T14:14:11Z</time>
      </trkpt>
      <trkpt lat="47.11413" lon="-0.99158">
        <ele>104.7</ele>
        <time>2022-11-11T14:14:13Z</time>
      </trkpt>
      <trkpt lat="47.11412" lon="-0.99163">
        <ele>104.7</ele>
        <time>2022-11-11T14:14:16Z</time>
      </trkpt>
      <trkpt lat="47.11412" lon="-0.99166">
        <ele>104.7</ele>
        <time>2022-11-11T14:14:18Z</time>
      </trkpt>
      <trkpt lat="47.11411" lon="-0.99171">
        <ele>104.7</ele>
        <time>2022-11-11T14:14:21Z</time>
      </trkpt>
      <trkpt lat="47.11411" lon="-0.99175">
        <ele>104.7</ele>
        <time>2022-11-11T14:14:23Z</time>
      </trkpt>
      <trkpt lat="47.1141" lon="-0.9918">
        <ele>104.6</ele>
        <time>2022-11-11T14:14:26Z</time>
      </trkpt>
      <trkpt lat="47.11409" lon="-0.99183">
        <ele>104.6</ele>
        <time>2022-11-11T14:14:28Z</time>
      </trkpt>
      <trkpt lat="47.11409" lon="-0.99185">
        <ele>104.6</ele>
        <time>2022-11-11T14:14:29Z</time>
      </trkpt>
      <trkpt lat="47.11408" lon="-0.99189">
        <ele>104.6</ele>
        <time>2022-11-11T14:14:31Z</time>
      </trkpt>
      <trkpt lat="47.11406" lon="-0.99194">
        <ele>104.6</ele>
        <time>2022-11-11T14:14:34Z</time>
      </trkpt>
      <trkpt lat="47.11405" lon="-0.99198">
        <ele>104.6</ele>
        <time>2022-11-11T14:14:36Z</time>
      </trkpt>
      <trkpt lat="47.11404" lon="-0.99202">
        <ele>104.6</ele>
        <time>2022-11-11T14:14:38Z</time>
      </trkpt>
      <trkpt lat="47.11404" lon="-0.99203">
        <ele>104.6</ele>
        <time>2022-11-11T14:14:39Z</time>
      </trkpt>
      <trkpt lat="47.11403" lon="-0.99206">
        <ele>104.6</ele>
        <time>2022-11-11T14:14:41Z</time>
      </trkpt>
      <trkpt lat="47.11402" lon="-0.99211">
        <ele>104.6</ele>
        <time>2022-11-11T14:14:44Z</time>
      </trkpt>
      <trkpt lat="47.114" lon="-0.99215">
        <ele>104.6</ele>
        <time>2022-11-11T14:14:47Z</time>
      </trkpt>
      <trkpt lat="47.11399" lon="-0.99218">
        <ele>104.6</ele>
        <time>2022-11-11T14:14:49Z</time>
      </trkpt>
      <trkpt lat="47.11399" lon="-0.9922">
        <ele>104.5</ele>
        <time>2022-11-11T14:14:50Z</time>
      </trkpt>
      <trkpt lat="47.11398" lon="-0.99223">
        <ele>104.5</ele>
        <time>2022-11-11T14:14:52Z</time>
      </trkpt>
      <trkpt lat="47.11397" lon="-0.99227">
        <ele>104.5</ele>
        <time>2022-11-11T14:14:54Z</time>
      </trkpt>
      <trkpt lat="47.11395" lon="-0.99232">
        <ele>104.5</ele>
        <time>2022-11-11T14:14:57Z</time>
      </trkpt>
      <trkpt lat="47.11394" lon="-0.99235">
        <ele>104.5</ele>
        <time>2022-11-11T14:14:59Z</time>
      </trkpt>
      <trkpt lat="47.11393" lon="-0.99239">
        <ele>104.5</ele>
        <time>2022-11-11T14:15:01Z</time>
      </trkpt>
      <trkpt lat="47.11393" lon="-0.99241">
        <ele>104.5</ele>
        <time>2022-11-11T14:15:02Z</time>
      </trkpt>
      <trkpt lat="47.11391" lon="-0.99245">
        <ele>104.5</ele>
        <time>2022-11-11T14:15:05Z</time>
      </trkpt>
      <trkpt lat="47.1139" lon="-0.99248">
        <ele>104.5</ele>
        <time>2022-11-11T14:15:07Z</time>
      </trkpt>
      <trkpt lat="47.11389" lon="-0.99253">
        <ele>104.5</ele>
        <time>2022-11-11T14:15:10Z</time>
      </trkpt>
      <trkpt lat="47.11388" lon="-0.99256">
        <ele>104.5</ele>
        <time>2022-11-11T14:15:12Z</time>
      </trkpt>
      <trkpt lat="47.11388" lon="-0.99258">
        <ele>104.5</ele>
        <time>2022-11-11T14:15:13Z</time>
      </trkpt>
      <trkpt lat="47.11387" lon="-0.99261">
        <ele>104.4</ele>
        <time>2022-11-11T14:15:15Z</time>
      </trkpt>
      <trkpt lat="47.11386" lon="-0.99264">
        <ele>104.4</ele>
        <time>2022-11-11T14:15:17Z</time>
      </trkpt>
      <trkpt lat="47.11386" lon="-0.99269">
        <ele>104.4</ele>
        <time>2022-11-11T14:15:20Z</time>
      </trkpt>
      <trkpt lat="47.11385" lon="-0.99274">
        <ele>104.4</ele>
        <time>2022-11-11T14:15:23Z</time>
      </trkpt>
      <trkpt lat="47.11384" lon="-0.99277">
        <ele>104.4</ele>
        <time>2022-11-11T14:15:25Z</time>
      </trkpt>
      <trkpt lat="47.11384" lon="-0.99278">
        <ele>104.4</ele>
        <time>2022-11-11T14:15:26Z</time>
      </trkpt>
      <trkpt lat="47.11384" lon="-0.99281">
        <ele>104.4</ele>
        <time>2022-11-11T14:15:28Z</time>
      </trkpt>
      <trkpt lat="47.11385" lon="-0.99284">
        <ele>104.4</ele>
        <time>2022-11-11T14:15:30Z</time>
      </trkpt>
      <trkpt lat="47.11385" lon="-0.99289">
        <ele>104.4</ele>
        <time>2022-11-11T14:15:33Z</time>
      </trkpt>
      <trkpt lat="47.11386" lon="-0.99292">
        <ele>104.4</ele>
        <time>2022-11-11T14:15:35Z</time>
      </trkpt>
      <trkpt lat="47.11386" lon="-0.99296">
        <ele>104.4</ele>
        <time>2022-11-11T14:15:38Z</time>
      </trkpt>
      <trkpt lat="47.11386" lon="-0.99298">
        <ele>104.3</ele>
        <time>2022-11-11T14:15:39Z</time>
      </trkpt>
      <trkpt lat="47.11387" lon="-0.99301">
        <ele>104.3</ele>
        <time>2022-11-11T14:15:41Z</time>
      </trkpt>
      <trkpt lat="47.11388" lon="-0.99304">
        <ele>104.3</ele>
        <time>2022-11-11T14:15:43Z</time>
      </trkpt>
      <trkpt lat="47.1139" lon="-0.99309">
        <ele>104.3</ele>
        <time>2022-11-11T14:15:46Z</time>
      </trkpt>
      <trkpt lat="47.11391" lon="-0.99312">
        <ele>104.3</ele>
        <time>2022-11-11T14:15:48Z</time>
      </trkpt>
      <trkpt lat="47.11392" lon="-0.99317">
        <ele>104.3</ele>
        <time>2022-11-11T14:15:51Z</time>
      </trkpt>
      <trkpt lat="47.11392" lon="-0.9932">
        <ele>104.3</ele>
        <time>2022-11-11T14:15:53Z</time>
      </trkpt>
      <trkpt lat="47.11393" lon="-0.99324">
        <ele>104.3</ele>
        <time>2022-11-11T14:15:56Z</time>
      </trkpt>
      <trkpt lat="47.11394" lon="-0.99328">
        <ele>104.3</ele>
        <time>2022-11-11T14:15:59Z</time>
      </trkpt>
      <trkpt lat="47.11394" lon="-0.99331">
        <ele>104.3</ele>
        <time>2022-11-11T14:16:01Z</time>
      </trkpt>
      <trkpt lat="47.11394" lon="-0.99336">
        <ele>104.2</ele>
        <time>2022-11-11T14:16:04Z</time>
      </trkpt>
      <trkpt lat="47.11395" lon="-0.99337">
        <ele>104.2</ele>
        <time>2022-11-11T14:16:05Z</time>
      </trkpt>
      <trkpt lat="47.11395" lon="-0.99339">
        <ele>104.2</ele>
        <time>2022-11-11T14:16:06Z</time>
      </trkpt>
      <trkpt lat="47.11395" lon="-0.99344">
        <ele>104.2</ele>
        <time>2022-11-11T14:16:09Z</time>
      </trkpt>
      <trkpt lat="47.11396" lon="-0.99347">
        <ele>104.2</ele>
        <time>2022-11-11T14:16:11Z</time>
      </trkpt>
      <trkpt lat="47.11396" lon="-0.99352">
        <ele>104.2</ele>
        <time>2022-11-11T14:16:14Z</time>
      </trkpt>
      <trkpt lat="47.11397" lon="-0.99357">
        <ele>104.2</ele>
        <time>2022-11-11T14:16:17Z</time>
      </trkpt>
      <trkpt lat="47.11398" lon="-0.99359">
        <ele>104.2</ele>
        <time>2022-11-11T14:16:19Z</time>
      </trkpt>
      <trkpt lat="47.114" lon="-0.99361">
        <ele>104.2</ele>
        <time>2022-11-11T14:16:22Z</time>
      </trkpt>
      <trkpt lat="47.11401" lon="-0.99363">
        <ele>104.2</ele>
        <time>2022-11-11T14:16:24Z</time>
      </trkpt>
      <trkpt lat="47.11403" lon="-0.99366">
        <ele>104.1</ele>
        <time>2022-11-11T14:16:27Z</time>
      </trkpt>
      <trkpt lat="47.11405" lon="-0.99368">
        <ele>104.1</ele>
        <time>2022-11-11T14:16:29Z</time>
      </trkpt>
      <trkpt lat="47.11407" lon="-0.99371">
        <ele>104.1</ele>
        <time>2022-11-11T14:16:32Z</time>
      </trkpt>
      <trkpt lat="47.1141" lon="-0.99373">
        <ele>104.1</ele>
        <time>2022-11-11T14:16:35Z</time>
      </trkpt>
      <trkpt lat="47.11412" lon="-0.99374">
        <ele>104.1</ele>
        <time>2022-11-11T14:16:37Z</time>
      </trkpt>
      <trkpt lat="47.11415" lon="-0.99376">
        <ele>104.1</ele>
        <time>2022-11-11T14:16:40Z</time>
      </trkpt>
      <trkpt lat="47.11416" lon="-0.99377">
        <ele>104.1</ele>
        <time>2022-11-11T14:16:42Z</time>
      </trkpt>
      <trkpt lat="47.11419" lon="-0.99379">
        <ele>104.1</ele>
        <time>2022-11-11T14:16:45Z</time>
      </trkpt>
      <trkpt lat="47.11421" lon="-0.99381">
        <ele>104.1</ele>
        <time>2022-11-11T14:16:47Z</time>
      </trkpt>
      <trkpt lat="47.11424" lon="-0.99384">
        <ele>104.1</ele>
        <time>2022-11-11T14:16:50Z</time>
      </trkpt>
      <trkpt lat="47.11427" lon="-0.99387">
        <ele>104</ele>
        <time>2022-11-11T14:16:53Z</time>
      </trkpt>
      <trkpt lat="47.11429" lon="-0.99389">
        <ele>104</ele>
        <time>2022-11-11T14:16:55Z</time>
      </trkpt>
      <trkpt lat="47.11431" lon="-0.99391">
        <ele>104</ele>
        <time>2022-11-11T14:16:57Z</time>
      </trkpt>
      <trkpt lat="47.11432" lon="-0.99392">
        <ele>104</ele>
        <time>2022-11-11T14:16:58Z</time>
      </trkpt>
      <trkpt lat="47.11434" lon="-0.99394">
        <ele>104</ele>
        <time>2022-11-11T14:17:00Z</time>
      </trkpt>
      <trkpt lat="47.11437" lon="-0.99397">
        <ele>104</ele>
        <time>2022-11-11T14:17:03Z</time>
      </trkpt>
      <trkpt lat="47.11439" lon="-0.99398">
        <ele>104</ele>
        <time>2022-11-11T14:17:05Z</time>
      </trkpt>
      <trkpt lat="47.11442" lon="-0.99401">
        <ele>104</ele>
        <time>2022-11-11T14:17:08Z</time>
      </trkpt>
      <trkpt lat="47.11443" lon="-0.99402">
        <ele>104</ele>
        <time>2022-11-11T14:17:09Z</time>
      </trkpt>
      <trkpt lat="47.11444" lon="-0.99405">
        <ele>104</ele>
        <time>2022-11-11T14:17:11Z</time>
      </trkpt>
      <trkpt lat="47.11445" lon="-0.99408">
        <ele>104</ele>
        <time>2022-11-11T14:17:13Z</time>
      </trkpt>
      <trkpt lat="47.11445" lon="-0.99413">
        <ele>103.9</ele>
        <time>2022-11-11T14:17:16Z</time>
      </trkpt>
      <trkpt lat="47.11446" lon="-0.99416">
        <ele>103.9</ele>
        <time>2022-11-11T14:17:18Z</time>
      </trkpt>
      <trkpt lat="47.11447" lon="-0.9942">
        <ele>103.9</ele>
        <time>2022-11-11T14:17:21Z</time>
      </trkpt>
      <trkpt lat="47.11447" lon="-0.99422">
        <ele>103.9</ele>
        <time>2022-11-11T14:17:22Z</time>
      </trkpt>
      <trkpt lat="47.11446" lon="-0.99423">
        <ele>103.9</ele>
        <time>2022-11-11T14:17:23Z</time>
      </trkpt>
      <trkpt lat="47.11445" lon="-0.99426">
        <ele>103.9</ele>
        <time>2022-11-11T14:17:26Z</time>
      </trkpt>
      <trkpt lat="47.11443" lon="-0.9943">
        <ele>103.9</ele>
        <time>2022-11-11T14:17:29Z</time>
      </trkpt>
      <trkpt lat="47.11442" lon="-0.99432">
        <ele>103.9</ele>
        <time>2022-11-11T14:17:31Z</time>
      </trkpt>
      <trkpt lat="47.1144" lon="-0.99436">
        <ele>103.9</ele>
        <time>2022-11-11T14:17:34Z</time>
      </trkpt>
      <trkpt lat="47.11439" lon="-0.99438">
        <ele>103.9</ele>
        <time>2022-11-11T14:17:36Z</time>
      </trkpt>
      <trkpt lat="47.11436" lon="-0.99441">
        <ele>103.9</ele>
        <time>2022-11-11T14:17:39Z</time>
      </trkpt>
      <trkpt lat="47.11433" lon="-0.99443">
        <ele>103.8</ele>
        <time>2022-11-11T14:17:42Z</time>
      </trkpt>
      <trkpt lat="47.11431" lon="-0.99444">
        <ele>103.8</ele>
        <time>2022-11-11T14:17:44Z</time>
      </trkpt>
      <trkpt lat="47.11429" lon="-0.99447">
        <ele>103.8</ele>
        <time>2022-11-11T14:17:47Z</time>
      </trkpt>
      <trkpt lat="47.11427" lon="-0.99448">
        <ele>103.8</ele>
        <time>2022-11-11T14:17:49Z</time>
      </trkpt>
      <trkpt lat="47.11426" lon="-0.99449">
        <ele>103.8</ele>
        <time>2022-11-11T14:17:50Z</time>
      </trkpt>
      <trkpt lat="47.11424" lon="-0.9945">
        <ele>103.8</ele>
        <time>2022-11-11T14:17:52Z</time>
      </trkpt>
      <trkpt lat="47.11422" lon="-0.99451">
        <ele>103.8</ele>
        <time>2022-11-11T14:17:54Z</time>
      </trkpt>
      <trkpt lat="47.11419" lon="-0.99453">
        <ele>103.8</ele>
        <time>2022-11-11T14:17:57Z</time>
      </trkpt>
      <trkpt lat="47.11415" lon="-0.99455">
        <ele>103.8</ele>
        <time>2022-11-11T14:18:00Z</time>
      </trkpt>
      <trkpt lat="47.11413" lon="-0.99456">
        <ele>103.8</ele>
        <time>2022-11-11T14:18:02Z</time>
      </trkpt>
      <trkpt lat="47.11412" lon="-0.99457">
        <ele>103.8</ele>
        <time>2022-11-11T14:18:03Z</time>
      </trkpt>
      <trkpt lat="47.1141" lon="-0.99458">
        <ele>103.7</ele>
        <time>2022-11-11T14:18:05Z</time>
      </trkpt>
      <trkpt lat="47.11408" lon="-0.9946">
        <ele>103.7</ele>
        <time>2022-11-11T14:18:07Z</time>
      </trkpt>
      <trkpt lat="47.11405" lon="-0.99462">
        <ele>103.7</ele>
        <time>2022-11-11T14:18:10Z</time>
      </trkpt>
      <trkpt lat="47.11404" lon="-0.99464">
        <ele>103.7</ele>
        <time>2022-11-11T14:18:12Z</time>
      </trkpt>
      <trkpt lat="47.11401" lon="-0.99466">
        <ele>103.7</ele>
        <time>2022-11-11T14:18:15Z</time>
      </trkpt>
      <trkpt lat="47.114" lon="-0.99467">
        <ele>103.7</ele>
        <time>2022-11-11T14:18:16Z</time>
      </trkpt>
      <trkpt lat="47.11398" lon="-0.9947">
        <ele>103.7</ele>
        <time>2022-11-11T14:18:18Z</time>
      </trkpt>
      <trkpt lat="47.11397" lon="-0.99472">
        <ele>103.7</ele>
        <time>2022-11-11T14:18:20Z</time>
      </trkpt>
      <trkpt lat="47.11396" lon="-0.99476">
        <ele>103.7</ele>
        <time>2022-11-11T14:18:23Z</time>
      </trkpt>
      <trkpt lat="47.11394" lon="-0.99479">
        <ele>103.7</ele>
        <time>2022-11-11T14:18:25Z</time>
      </trkpt>
      <trkpt lat="47.11393" lon="-0.99483">
        <ele>103.7</ele>
        <time>2022-11-11T14:18:28Z</time>
      </trkpt>
      <trkpt lat="47.11392" lon="-0.99484">
        <ele>103.6</ele>
        <time>2022-11-11T14:18:29Z</time>
      </trkpt>
      <trkpt lat="47.11392" lon="-0.99485">
        <ele>103.6</ele>
        <time>2022-11-11T14:18:30Z</time>
      </trkpt>
      <trkpt lat="47.1139" lon="-0.99489">
        <ele>103.6</ele>
        <time>2022-11-11T14:18:33Z</time>
      </trkpt>
      <trkpt lat="47.11389" lon="-0.99493">
        <ele>103.6</ele>
        <time>2022-11-11T14:18:36Z</time>
      </trkpt>
      <trkpt lat="47.11388" lon="-0.99495">
        <ele>103.6</ele>
        <time>2022-11-11T14:18:38Z</time>
      </trkpt>
      <trkpt lat="47.11387" lon="-0.99499">
        <ele>103.6</ele>
        <time>2022-11-11T14:18:41Z</time>
      </trkpt>
      <trkpt lat="47.11386" lon="-0.99501">
        <ele>103.6</ele>
        <time>2022-11-11T14:18:43Z</time>
      </trkpt>
      <trkpt lat="47.11386" lon="-0.99502">
        <ele>103.6</ele>
        <time>2022-11-11T14:18:44Z</time>
      </trkpt>
      <trkpt lat="47.11384" lon="-0.99505">
        <ele>103.6</ele>
        <time>2022-11-11T14:18:46Z</time>
      </trkpt>
      <trkpt lat="47.11383" lon="-0.99508">
        <ele>103.6</ele>
        <time>2022-11-11T14:18:48Z</time>
      </trkpt>
      <trkpt lat="47.11382" lon="-0.99513">
        <ele>103.6</ele>
        <time>2022-11-11T14:18:51Z</time>
      </trkpt>
      <trkpt lat="47.1138" lon="-0.99517">
        <ele>103.5</ele>
        <time>2022-11-11T14:18:54Z</time>
      </trkpt>
      <trkpt lat="47.11379" lon="-0.9952">
        <ele>103.5</ele>
        <time>2022-11-11T14:18:56Z</time>
      </trkpt>
      <trkpt lat="47.11378" lon="-0.99525">
        <ele>103.5</ele>
        <time>2022-11-11T14:18:59Z</time>
      </trkpt>
      <trkpt lat="47.11377" lon="-0.99528">
        <ele>103.5</ele>
        <time>2022-11-11T14:19:01Z</time>
      </trkpt>
      <trkpt lat="47.11376" lon="-0.99533">
        <ele>103.5</ele>
        <time>2022-11-11T14:19:04Z</time>
      </trkpt>
      <trkpt lat="47.11375" lon="-0.99536">
        <ele>103.5</ele>
        <time>2022-11-11T14:19:06Z</time>
      </trkpt>
      <trkpt lat="47.11374" lon="-0.99539">
        <ele>103.5</ele>
        <time>2022-11-11T14:19:08Z</time>
      </trkpt>
      <trkpt lat="47.11374" lon="-0.99541">
        <ele>103.5</ele>
        <time>2022-11-11T14:19:09Z</time>
      </trkpt>
      <trkpt lat="47.11372" lon="-0.99545">
        <ele>103.5</ele>
        <time>2022-11-11T14:19:12Z</time>
      </trkpt>
      <trkpt lat="47.11371" lon="-0.99548">
        <ele>103.5</ele>
        <time>2022-11-11T14:19:14Z</time>
      </trkpt>
      <trkpt lat="47.11369" lon="-0.99552">
        <ele>103.5</ele>
        <time>2022-11-11T14:19:17Z</time>
      </trkpt>
      <trkpt lat="47.11368" lon="-0.99555">
        <ele>103.4</ele>
        <time>2022-11-11T14:19:19Z</time>
      </trkpt>
      <trkpt lat="47.11367" lon="-0.99558">
        <ele>103.4</ele>
        <time>2022-11-11T14:19:21Z</time>
      </trkpt>
      <trkpt lat="47.11366" lon="-0.9956">
        <ele>103.4</ele>
        <time>2022-11-11T14:19:22Z</time>
      </trkpt>
      <trkpt lat="47.11365" lon="-0.99563">
        <ele>103.4</ele>
        <time>2022-11-11T14:19:24Z</time>
      </trkpt>
      <trkpt lat="47.11363" lon="-0.99567">
        <ele>103.4</ele>
        <time>2022-11-11T14:19:27Z</time>
      </trkpt>
      <trkpt lat="47.11362" lon="-0.99572">
        <ele>103.4</ele>
        <time>2022-11-11T14:19:30Z</time>
      </trkpt>
      <trkpt lat="47.11361" lon="-0.99575">
        <ele>103.4</ele>
        <time>2022-11-11T14:19:32Z</time>
      </trkpt>
      <trkpt lat="47.1136" lon="-0.99578">
        <ele>103.4</ele>
        <time>2022-11-11T14:19:34Z</time>
      </trkpt>
      <trkpt lat="47.11359" lon="-0.99579">
        <ele>103.4</ele>
        <time>2022-11-11T14:19:35Z</time>
      </trkpt>
      <trkpt lat="47.11358" lon="-0.99582">
        <ele>103.4</ele>
        <time>2022-11-11T14:19:37Z</time>
      </trkpt>
      <trkpt lat="47.11357" lon="-0.99586">
        <ele>103.4</ele>
        <time>2022-11-11T14:19:40Z</time>
      </trkpt>
      <trkpt lat="47.11356" lon="-0.99589">
        <ele>103.3</ele>
        <time>2022-11-11T14:19:42Z</time>
      </trkpt>
      <trkpt lat="47.11355" lon="-0.99594">
        <ele>103.3</ele>
        <time>2022-11-11T14:19:45Z</time>
      </trkpt>
      <trkpt lat="47.11354" lon="-0.99596">
        <ele>103.3</ele>
        <time>2022-11-11T14:19:47Z</time>
      </trkpt>
      <trkpt lat="47.11354" lon="-0.99598">
        <ele>103.3</ele>
        <time>2022-11-11T14:19:48Z</time>
      </trkpt>
      <trkpt lat="47.11353" lon="-0.99602">
        <ele>103.3</ele>
        <time>2022-11-11T14:19:50Z</time>
      </trkpt>
      <trkpt lat="47.11351" lon="-0.99607">
        <ele>103.3</ele>
        <time>2022-11-11T14:19:53Z</time>
      </trkpt>
      <trkpt lat="47.1135" lon="-0.9961">
        <ele>103.3</ele>
        <time>2022-11-11T14:19:55Z</time>
      </trkpt>
      <trkpt lat="47.11349" lon="-0.99616">
        <ele>103.3</ele>
        <time>2022-11-11T14:19:58Z</time>
      </trkpt>
      <trkpt lat="47.11348" lon="-0.99619">
        <ele>103.3</ele>
        <time>2022-11-11T14:20:00Z</time>
      </trkpt>
      <trkpt lat="47.11347" lon="-0.99623">
        <ele>103.3</ele>
        <time>2022-11-11T14:20:03Z</time>
      </trkpt>
      <trkpt lat="47.11345" lon="-0.99627">
        <ele>103.2</ele>
        <time>2022-11-11T14:20:06Z</time>
      </trkpt>
      <trkpt lat="47.11345" lon="-0.9963">
        <ele>103.2</ele>
        <time>2022-11-11T14:20:08Z</time>
      </trkpt>
      <trkpt lat="47.11343" lon="-0.99635">
        <ele>103.2</ele>
        <time>2022-11-11T14:20:11Z</time>
      </trkpt>
      <trkpt lat="47.11343" lon="-0.99636">
        <ele>103.2</ele>
        <time>2022-11-11T14:20:12Z</time>
      </trkpt>
      <trkpt lat="47.11343" lon="-0.99637">
        <ele>103.2</ele>
        <time>2022-11-11T14:20:13Z</time>
      </trkpt>
      <trkpt lat="47.11343" lon="-0.99642">
        <ele>103.2</ele>
        <time>2022-11-11T14:20:16Z</time>
      </trkpt>
      <trkpt lat="47.11343" lon="-0.99645">
        <ele>103.2</ele>
        <time>2022-11-11T14:20:18Z</time>
      </trkpt>
      <trkpt lat="47.11342" lon="-0.9965">
        <ele>103.2</ele>
        <time>2022-11-11T14:20:21Z</time>
      </trkpt>
      <trkpt lat="47.11342" lon="-0.99654">
        <ele>103.2</ele>
        <time>2022-11-11T14:20:24Z</time>
      </trkpt>
      <trkpt lat="47.11341" lon="-0.99667">
        <ele>103.1</ele>
        <time>2022-11-11T14:20:26Z</time>
      </trkpt>
      <trkpt lat="47.11341" lon="-0.99667">
        <ele>103.1</ele>
        <time>2022-11-11T14:21:16Z</time>
      </trkpt>
      <trkpt lat="47.11341" lon="-0.99678">
        <ele>103</ele>
        <time>2022-11-11T14:21:16Z</time>
      </trkpt>
      <trkpt lat="47.11339" lon="-0.9968">
        <ele>103</ele>
        <time>2022-11-11T14:21:18Z</time>
      </trkpt>
      <trkpt lat="47.11337" lon="-0.99682">
        <ele>102.9</ele>
        <time>2022-11-11T14:21:20Z</time>
      </trkpt>
      <trkpt lat="47.11334" lon="-0.99684">
        <ele>102.9</ele>
        <time>2022-11-11T14:21:23Z</time>
      </trkpt>
      <trkpt lat="47.11333" lon="-0.99686">
        <ele>102.9</ele>
        <time>2022-11-11T14:21:25Z</time>
      </trkpt>
      <trkpt lat="47.1133" lon="-0.99689">
        <ele>102.9</ele>
        <time>2022-11-11T14:21:28Z</time>
      </trkpt>
      <trkpt lat="47.11328" lon="-0.99691">
        <ele>102.9</ele>
        <time>2022-11-11T14:21:30Z</time>
      </trkpt>
      <trkpt lat="47.11325" lon="-0.99692">
        <ele>102.9</ele>
        <time>2022-11-11T14:21:33Z</time>
      </trkpt>
      <trkpt lat="47.11323" lon="-0.99694">
        <ele>102.9</ele>
        <time>2022-11-11T14:21:36Z</time>
      </trkpt>
      <trkpt lat="47.11321" lon="-0.99695">
        <ele>102.9</ele>
        <time>2022-11-11T14:21:38Z</time>
      </trkpt>
      <trkpt lat="47.11318" lon="-0.99696">
        <ele>102.9</ele>
        <time>2022-11-11T14:21:41Z</time>
      </trkpt>
      <trkpt lat="47.11316" lon="-0.99697">
        <ele>102.9</ele>
        <time>2022-11-11T14:21:43Z</time>
      </trkpt>
      <trkpt lat="47.11315" lon="-0.99698">
        <ele>102.8</ele>
        <time>2022-11-11T14:21:45Z</time>
      </trkpt>
      <trkpt lat="47.11313" lon="-0.99699">
        <ele>102.8</ele>
        <time>2022-11-11T14:21:46Z</time>
      </trkpt>
      <trkpt lat="47.11311" lon="-0.99701">
        <ele>102.8</ele>
        <time>2022-11-11T14:21:48Z</time>
      </trkpt>
      <trkpt lat="47.11308" lon="-0.99703">
        <ele>102.8</ele>
        <time>2022-11-11T14:21:51Z</time>
      </trkpt>
      <trkpt lat="47.11304" lon="-0.99706">
        <ele>102.8</ele>
        <time>2022-11-11T14:21:54Z</time>
      </trkpt>
      <trkpt lat="47.11302" lon="-0.99708">
        <ele>102.8</ele>
        <time>2022-11-11T14:21:56Z</time>
      </trkpt>
      <trkpt lat="47.11299" lon="-0.9971">
        <ele>102.8</ele>
        <time>2022-11-11T14:21:59Z</time>
      </trkpt>
      <trkpt lat="47.11298" lon="-0.99712">
        <ele>102.8</ele>
        <time>2022-11-11T14:22:01Z</time>
      </trkpt>
      <trkpt lat="47.11295" lon="-0.99714">
        <ele>102.8</ele>
        <time>2022-11-11T14:22:04Z</time>
      </trkpt>
      <trkpt lat="47.11293" lon="-0.99716">
        <ele>102.8</ele>
        <time>2022-11-11T14:22:06Z</time>
      </trkpt>
      <trkpt lat="47.11291" lon="-0.99719">
        <ele>102.7</ele>
        <time>2022-11-11T14:22:09Z</time>
      </trkpt>
      <trkpt lat="47.11288" lon="-0.99721">
        <ele>102.7</ele>
        <time>2022-11-11T14:22:12Z</time>
      </trkpt>
      <trkpt lat="47.11286" lon="-0.99723">
        <ele>102.7</ele>
        <time>2022-11-11T14:22:14Z</time>
      </trkpt>
      <trkpt lat="47.11283" lon="-0.99726">
        <ele>102.7</ele>
        <time>2022-11-11T14:22:17Z</time>
      </trkpt>
      <trkpt lat="47.11281" lon="-0.99728">
        <ele>102.7</ele>
        <time>2022-11-11T14:22:19Z</time>
      </trkpt>
      <trkpt lat="47.11278" lon="-0.9973">
        <ele>102.7</ele>
        <time>2022-11-11T14:22:22Z</time>
      </trkpt>
      <trkpt lat="47.11276" lon="-0.99733">
        <ele>102.7</ele>
        <time>2022-11-11T14:22:24Z</time>
      </trkpt>
      <trkpt lat="47.11273" lon="-0.99737">
        <ele>102.7</ele>
        <time>2022-11-11T14:22:27Z</time>
      </trkpt>
      <trkpt lat="47.1127" lon="-0.99741">
        <ele>102.7</ele>
        <time>2022-11-11T14:22:30Z</time>
      </trkpt>
      <trkpt lat="47.11268" lon="-0.99744">
        <ele>102.6</ele>
        <time>2022-11-11T14:22:32Z</time>
      </trkpt>
      <trkpt lat="47.11265" lon="-0.99747">
        <ele>102.6</ele>
        <time>2022-11-11T14:22:35Z</time>
      </trkpt>
      <trkpt lat="47.11263" lon="-0.99749">
        <ele>102.6</ele>
        <time>2022-11-11T14:22:37Z</time>
      </trkpt>
      <trkpt lat="47.1126" lon="-0.99753">
        <ele>102.6</ele>
        <time>2022-11-11T14:22:40Z</time>
      </trkpt>
      <trkpt lat="47.11259" lon="-0.99755">
        <ele>102.6</ele>
        <time>2022-11-11T14:22:42Z</time>
      </trkpt>
      <trkpt lat="47.11257" lon="-0.99757">
        <ele>102.6</ele>
        <time>2022-11-11T14:22:44Z</time>
      </trkpt>
      <trkpt lat="47.11256" lon="-0.99758">
        <ele>102.6</ele>
        <time>2022-11-11T14:22:45Z</time>
      </trkpt>
      <trkpt lat="47.11253" lon="-0.99761">
        <ele>102.6</ele>
        <time>2022-11-11T14:22:48Z</time>
      </trkpt>
      <trkpt lat="47.11251" lon="-0.99763">
        <ele>102.6</ele>
        <time>2022-11-11T14:22:50Z</time>
      </trkpt>
      <trkpt lat="47.11249" lon="-0.99766">
        <ele>102.6</ele>
        <time>2022-11-11T14:22:53Z</time>
      </trkpt>
      <trkpt lat="47.11247" lon="-0.99768">
        <ele>102.6</ele>
        <time>2022-11-11T14:22:55Z</time>
      </trkpt>
      <trkpt lat="47.11246" lon="-0.99769">
        <ele>102.5</ele>
        <time>2022-11-11T14:22:56Z</time>
      </trkpt>
      <trkpt lat="47.11244" lon="-0.99771">
        <ele>102.5</ele>
        <time>2022-11-11T14:22:58Z</time>
      </trkpt>
      <trkpt lat="47.11242" lon="-0.99774">
        <ele>102.5</ele>
        <time>2022-11-11T14:23:00Z</time>
      </trkpt>
      <trkpt lat="47.11239" lon="-0.99777">
        <ele>102.5</ele>
        <time>2022-11-11T14:23:03Z</time>
      </trkpt>
      <trkpt lat="47.11236" lon="-0.9978">
        <ele>102.5</ele>
        <time>2022-11-11T14:23:06Z</time>
      </trkpt>
      <trkpt lat="47.11235" lon="-0.99781">
        <ele>102.5</ele>
        <time>2022-11-11T14:23:07Z</time>
      </trkpt>
      <trkpt lat="47.11234" lon="-0.99782">
        <ele>102.5</ele>
        <time>2022-11-11T14:23:08Z</time>
      </trkpt>
      <trkpt lat="47.11231" lon="-0.99786">
        <ele>102.5</ele>
        <time>2022-11-11T14:23:11Z</time>
      </trkpt>
      <trkpt lat="47.11229" lon="-0.99788">
        <ele>102.5</ele>
        <time>2022-11-11T14:23:13Z</time>
      </trkpt>
      <trkpt lat="47.11226" lon="-0.99791">
        <ele>102.5</ele>
        <time>2022-11-11T14:23:16Z</time>
      </trkpt>
      <trkpt lat="47.11224" lon="-0.99793">
        <ele>102.5</ele>
        <time>2022-11-11T14:23:18Z</time>
      </trkpt>
      <trkpt lat="47.11221" lon="-0.99797">
        <ele>102.4</ele>
        <time>2022-11-11T14:23:21Z</time>
      </trkpt>
      <trkpt lat="47.11219" lon="-0.99801">
        <ele>102.4</ele>
        <time>2022-11-11T14:23:24Z</time>
      </trkpt>
      <trkpt lat="47.11217" lon="-0.99803">
        <ele>102.4</ele>
        <time>2022-11-11T14:23:26Z</time>
      </trkpt>
      <trkpt lat="47.11214" lon="-0.99807">
        <ele>102.4</ele>
        <time>2022-11-11T14:23:29Z</time>
      </trkpt>
      <trkpt lat="47.11212" lon="-0.99809">
        <ele>102.4</ele>
        <time>2022-11-11T14:23:31Z</time>
      </trkpt>
      <trkpt lat="47.11209" lon="-0.99813">
        <ele>102.4</ele>
        <time>2022-11-11T14:23:34Z</time>
      </trkpt>
      <trkpt lat="47.11206" lon="-0.99817">
        <ele>102.4</ele>
        <time>2022-11-11T14:23:37Z</time>
      </trkpt>
      <trkpt lat="47.11204" lon="-0.99819">
        <ele>102.4</ele>
        <time>2022-11-11T14:23:39Z</time>
      </trkpt>
      <trkpt lat="47.11203" lon="-0.9982">
        <ele>102.4</ele>
        <time>2022-11-11T14:23:40Z</time>
      </trkpt>
      <trkpt lat="47.11201" lon="-0.99822">
        <ele>102.4</ele>
        <time>2022-11-11T14:23:42Z</time>
      </trkpt>
      <trkpt lat="47.11199" lon="-0.99824">
        <ele>102.4</ele>
        <time>2022-11-11T14:23:44Z</time>
      </trkpt>
      <trkpt lat="47.11196" lon="-0.99827">
        <ele>102.3</ele>
        <time>2022-11-11T14:23:47Z</time>
      </trkpt>
      <trkpt lat="47.11194" lon="-0.99829">
        <ele>102.3</ele>
        <time>2022-11-11T14:23:49Z</time>
      </trkpt>
      <trkpt lat="47.11192" lon="-0.99832">
        <ele>102.3</ele>
        <time>2022-11-11T14:23:52Z</time>
      </trkpt>
      <trkpt lat="47.11189" lon="-0.99835">
        <ele>102.3</ele>
        <time>2022-11-11T14:23:55Z</time>
      </trkpt>
      <trkpt lat="47.11187" lon="-0.99837">
        <ele>102.3</ele>
        <time>2022-11-11T14:23:57Z</time>
      </trkpt>
      <trkpt lat="47.11184" lon="-0.99841">
        <ele>102.3</ele>
        <time>2022-11-11T14:24:00Z</time>
      </trkpt>
      <trkpt lat="47.11182" lon="-0.99843">
        <ele>102.3</ele>
        <time>2022-11-11T14:24:02Z</time>
      </trkpt>
      <trkpt lat="47.11181" lon="-0.99844">
        <ele>102.3</ele>
        <time>2022-11-11T14:24:03Z</time>
      </trkpt>
      <trkpt lat="47.11179" lon="-0.99847">
        <ele>102.3</ele>
        <time>2022-11-11T14:24:05Z</time>
      </trkpt>
      <trkpt lat="47.11177" lon="-0.99849">
        <ele>102.3</ele>
        <time>2022-11-11T14:24:07Z</time>
      </trkpt>
      <trkpt lat="47.11174" lon="-0.99852">
        <ele>102.2</ele>
        <time>2022-11-11T14:24:10Z</time>
      </trkpt>
      <trkpt lat="47.11172" lon="-0.99856">
        <ele>102.2</ele>
        <time>2022-11-11T14:24:13Z</time>
      </trkpt>
      <trkpt lat="47.1117" lon="-0.99858">
        <ele>102.2</ele>
        <time>2022-11-11T14:24:15Z</time>
      </trkpt>
      <trkpt lat="47.11167" lon="-0.99861">
        <ele>102.2</ele>
        <time>2022-11-11T14:24:18Z</time>
      </trkpt>
      <trkpt lat="47.11166" lon="-0.99863">
        <ele>102.2</ele>
        <time>2022-11-11T14:24:20Z</time>
      </trkpt>
      <trkpt lat="47.11163" lon="-0.99866">
        <ele>102.2</ele>
        <time>2022-11-11T14:24:23Z</time>
      </trkpt>
      <trkpt lat="47.11162" lon="-0.99868">
        <ele>102.2</ele>
        <time>2022-11-11T14:24:25Z</time>
      </trkpt>
      <trkpt lat="47.11159" lon="-0.99871">
        <ele>102.2</ele>
        <time>2022-11-11T14:24:28Z</time>
      </trkpt>
      <trkpt lat="47.11156" lon="-0.99874">
        <ele>102.2</ele>
        <time>2022-11-11T14:24:31Z</time>
      </trkpt>
      <trkpt lat="47.11154" lon="-0.99876">
        <ele>102.2</ele>
        <time>2022-11-11T14:24:33Z</time>
      </trkpt>
      <trkpt lat="47.11152" lon="-0.99879">
        <ele>102.1</ele>
        <time>2022-11-11T14:24:36Z</time>
      </trkpt>
      <trkpt lat="47.1115" lon="-0.99881">
        <ele>102.1</ele>
        <time>2022-11-11T14:24:38Z</time>
      </trkpt>
      <trkpt lat="47.11147" lon="-0.99884">
        <ele>102.1</ele>
        <time>2022-11-11T14:24:41Z</time>
      </trkpt>
      <trkpt lat="47.11145" lon="-0.99887">
        <ele>102.1</ele>
        <time>2022-11-11T14:24:43Z</time>
      </trkpt>
      <trkpt lat="47.11142" lon="-0.9989">
        <ele>102.1</ele>
        <time>2022-11-11T14:24:46Z</time>
      </trkpt>
      <trkpt lat="47.11139" lon="-0.99894">
        <ele>102.1</ele>
        <time>2022-11-11T14:24:49Z</time>
      </trkpt>
      <trkpt lat="47.11137" lon="-0.99896">
        <ele>102.1</ele>
        <time>2022-11-11T14:24:51Z</time>
      </trkpt>
      <trkpt lat="47.11136" lon="-0.99897">
        <ele>102.1</ele>
        <time>2022-11-11T14:24:52Z</time>
      </trkpt>
      <trkpt lat="47.11134" lon="-0.99899">
        <ele>102.1</ele>
        <time>2022-11-11T14:24:54Z</time>
      </trkpt>
      <trkpt lat="47.11132" lon="-0.99902">
        <ele>102.1</ele>
        <time>2022-11-11T14:24:56Z</time>
      </trkpt>
      <trkpt lat="47.11129" lon="-0.99905">
        <ele>102</ele>
        <time>2022-11-11T14:24:59Z</time>
      </trkpt>
      <trkpt lat="47.11127" lon="-0.99907">
        <ele>102</ele>
        <time>2022-11-11T14:25:01Z</time>
      </trkpt>
      <trkpt lat="47.11125" lon="-0.9991">
        <ele>102</ele>
        <time>2022-11-11T14:25:03Z</time>
      </trkpt>
      <trkpt lat="47.11124" lon="-0.99911">
        <ele>102</ele>
        <time>2022-11-11T14:25:04Z</time>
      </trkpt>
      <trkpt lat="47.11122" lon="-0.99915">
        <ele>102.1</ele>
        <time>2022-11-11T14:25:07Z</time>
      </trkpt>
      <trkpt lat="47.1112" lon="-0.99917">
        <ele>102.1</ele>
        <time>2022-11-11T14:25:09Z</time>
      </trkpt>
      <trkpt lat="47.11117" lon="-0.9992">
        <ele>102.1</ele>
        <time>2022-11-11T14:25:12Z</time>
      </trkpt>
      <trkpt lat="47.11115" lon="-0.99923">
        <ele>102.1</ele>
        <time>2022-11-11T14:25:14Z</time>
      </trkpt>
      <trkpt lat="47.11112" lon="-0.99926">
        <ele>102.2</ele>
        <time>2022-11-11T14:25:17Z</time>
      </trkpt>
      <trkpt lat="47.1111" lon="-0.99929">
        <ele>102.2</ele>
        <time>2022-11-11T14:25:19Z</time>
      </trkpt>
      <trkpt lat="47.11108" lon="-0.99933">
        <ele>102.2</ele>
        <time>2022-11-11T14:25:22Z</time>
      </trkpt>
      <trkpt lat="47.11105" lon="-0.99936">
        <ele>102.2</ele>
        <time>2022-11-11T14:25:25Z</time>
      </trkpt>
      <trkpt lat="47.11104" lon="-0.99937">
        <ele>102.3</ele>
        <time>2022-11-11T14:25:26Z</time>
      </trkpt>
      <trkpt lat="47.11104" lon="-0.99939">
        <ele>102.3</ele>
        <time>2022-11-11T14:25:27Z</time>
      </trkpt>
      <trkpt lat="47.11101" lon="-0.99942">
        <ele>102.3</ele>
        <time>2022-11-11T14:25:30Z</time>
      </trkpt>
      <trkpt lat="47.11099" lon="-0.99945">
        <ele>102.3</ele>
        <time>2022-11-11T14:25:32Z</time>
      </trkpt>
      <trkpt lat="47.11097" lon="-0.99948">
        <ele>102.3</ele>
        <time>2022-11-11T14:25:35Z</time>
      </trkpt>
      <trkpt lat="47.11095" lon="-0.99951">
        <ele>102.4</ele>
        <time>2022-11-11T14:25:37Z</time>
      </trkpt>
      <trkpt lat="47.11094" lon="-0.99952">
        <ele>102.4</ele>
        <time>2022-11-11T14:25:38Z</time>
      </trkpt>
      <trkpt lat="47.11093" lon="-0.99954">
        <ele>102.4</ele>
        <time>2022-11-11T14:25:40Z</time>
      </trkpt>
      <trkpt lat="47.1109" lon="-0.99958">
        <ele>102.4</ele>
        <time>2022-11-11T14:25:43Z</time>
      </trkpt>
      <trkpt lat="47.11089" lon="-0.9996">
        <ele>102.5</ele>
        <time>2022-11-11T14:25:45Z</time>
      </trkpt>
      <trkpt lat="47.11086" lon="-0.99964">
        <ele>102.5</ele>
        <time>2022-11-11T14:25:48Z</time>
      </trkpt>
      <trkpt lat="47.11085" lon="-0.99966">
        <ele>102.5</ele>
        <time>2022-11-11T14:25:50Z</time>
      </trkpt>
      <trkpt lat="47.11083" lon="-0.9997">
        <ele>102.5</ele>
        <time>2022-11-11T14:25:53Z</time>
      </trkpt>
      <trkpt lat="47.11081" lon="-0.99973">
        <ele>102.6</ele>
        <time>2022-11-11T14:25:55Z</time>
      </trkpt>
      <trkpt lat="47.11079" lon="-0.99977">
        <ele>102.6</ele>
        <time>2022-11-11T14:25:58Z</time>
      </trkpt>
      <trkpt lat="47.11077" lon="-0.99981">
        <ele>102.6</ele>
        <time>2022-11-11T14:26:01Z</time>
      </trkpt>
      <trkpt lat="47.11076" lon="-0.99984">
        <ele>102.6</ele>
        <time>2022-11-11T14:26:03Z</time>
      </trkpt>
      <trkpt lat="47.11074" lon="-0.99988">
        <ele>102.7</ele>
        <time>2022-11-11T14:26:06Z</time>
      </trkpt>
      <trkpt lat="47.11073" lon="-0.99991">
        <ele>102.7</ele>
        <time>2022-11-11T14:26:08Z</time>
      </trkpt>
      <trkpt lat="47.11071" lon="-0.99995">
        <ele>102.7</ele>
        <time>2022-11-11T14:26:11Z</time>
      </trkpt>
      <trkpt lat="47.1107" lon="-0.99997">
        <ele>102.7</ele>
        <time>2022-11-11T14:26:13Z</time>
      </trkpt>
      <trkpt lat="47.11068" lon="-1">
        <ele>102.8</ele>
        <time>2022-11-11T14:26:15Z</time>
      </trkpt>
      <trkpt lat="47.11068" lon="-1.00001">
        <ele>102.8</ele>
        <time>2022-11-11T14:26:16Z</time>
      </trkpt>
      <trkpt lat="47.11066" lon="-1.00005">
        <ele>102.8</ele>
        <time>2022-11-11T14:26:19Z</time>
      </trkpt>
      <trkpt lat="47.11065" lon="-1.00008">
        <ele>102.8</ele>
        <time>2022-11-11T14:26:21Z</time>
      </trkpt>
      <trkpt lat="47.11063" lon="-1.00012">
        <ele>102.8</ele>
        <time>2022-11-11T14:26:24Z</time>
      </trkpt>
      <trkpt lat="47.11062" lon="-1.00014">
        <ele>102.9</ele>
        <time>2022-11-11T14:26:26Z</time>
      </trkpt>
      <trkpt lat="47.11061" lon="-1.00017">
        <ele>102.9</ele>
        <time>2022-11-11T14:26:28Z</time>
      </trkpt>
      <trkpt lat="47.1106" lon="-1.00018">
        <ele>102.9</ele>
        <time>2022-11-11T14:26:29Z</time>
      </trkpt>
      <trkpt lat="47.11058" lon="-1.00021">
        <ele>102.9</ele>
        <time>2022-11-11T14:26:31Z</time>
      </trkpt>
      <trkpt lat="47.11056" lon="-1.00025">
        <ele>102.9</ele>
        <time>2022-11-11T14:26:34Z</time>
      </trkpt>
      <trkpt lat="47.11054" lon="-1.0003">
        <ele>103</ele>
        <time>2022-11-11T14:26:37Z</time>
      </trkpt>
      <trkpt lat="47.11052" lon="-1.00033">
        <ele>103</ele>
        <time>2022-11-11T14:26:39Z</time>
      </trkpt>
      <trkpt lat="47.1105" lon="-1.00037">
        <ele>103</ele>
        <time>2022-11-11T14:26:42Z</time>
      </trkpt>
      <trkpt lat="47.11049" lon="-1.0004">
        <ele>103</ele>
        <time>2022-11-11T14:26:44Z</time>
      </trkpt>
      <trkpt lat="47.11047" lon="-1.00044">
        <ele>103.1</ele>
        <time>2022-11-11T14:26:47Z</time>
      </trkpt>
      <trkpt lat="47.11046" lon="-1.00047">
        <ele>103.1</ele>
        <time>2022-11-11T14:26:49Z</time>
      </trkpt>
      <trkpt lat="47.11045" lon="-1.00049">
        <ele>103.1</ele>
        <time>2022-11-11T14:26:51Z</time>
      </trkpt>
      <trkpt lat="47.11044" lon="-1.00051">
        <ele>103.1</ele>
        <time>2022-11-11T14:26:52Z</time>
      </trkpt>
      <trkpt lat="47.11042" lon="-1.00055">
        <ele>103.2</ele>
        <time>2022-11-11T14:26:55Z</time>
      </trkpt>
      <trkpt lat="47.1104" lon="-1.00057">
        <ele>103.2</ele>
        <time>2022-11-11T14:26:57Z</time>
      </trkpt>
      <trkpt lat="47.11038" lon="-1.00061">
        <ele>103.2</ele>
        <time>2022-11-11T14:27:00Z</time>
      </trkpt>
      <trkpt lat="47.11036" lon="-1.00064">
        <ele>103.2</ele>
        <time>2022-11-11T14:27:02Z</time>
      </trkpt>
      <trkpt lat="47.11035" lon="-1.00065">
        <ele>103.2</ele>
        <time>2022-11-11T14:27:03Z</time>
      </trkpt>
      <trkpt lat="47.11034" lon="-1.00068">
        <ele>103.3</ele>
        <time>2022-11-11T14:27:05Z</time>
      </trkpt>
      <trkpt lat="47.11033" lon="-1.0007">
        <ele>103.3</ele>
        <time>2022-11-11T14:27:07Z</time>
      </trkpt>
      <trkpt lat="47.11031" lon="-1.00074">
        <ele>103.3</ele>
        <time>2022-11-11T14:27:10Z</time>
      </trkpt>
      <trkpt lat="47.11029" lon="-1.00078">
        <ele>103.3</ele>
        <time>2022-11-11T14:27:13Z</time>
      </trkpt>
      <trkpt lat="47.11028" lon="-1.0008">
        <ele>103.4</ele>
        <time>2022-11-11T14:27:15Z</time>
      </trkpt>
      <trkpt lat="47.11028" lon="-1.00082">
        <ele>103.4</ele>
        <time>2022-11-11T14:27:16Z</time>
      </trkpt>
      <trkpt lat="47.11026" lon="-1.00085">
        <ele>103.4</ele>
        <time>2022-11-11T14:27:18Z</time>
      </trkpt>
      <trkpt lat="47.11025" lon="-1.00089">
        <ele>103.4</ele>
        <time>2022-11-11T14:27:20Z</time>
      </trkpt>
      <trkpt lat="47.11023" lon="-1.00094">
        <ele>103.4</ele>
        <time>2022-11-11T14:27:23Z</time>
      </trkpt>
      <trkpt lat="47.11022" lon="-1.00097">
        <ele>103.5</ele>
        <time>2022-11-11T14:27:25Z</time>
      </trkpt>
      <trkpt lat="47.11021" lon="-1.001">
        <ele>103.5</ele>
        <time>2022-11-11T14:27:27Z</time>
      </trkpt>
      <trkpt lat="47.1102" lon="-1.00102">
        <ele>103.5</ele>
        <time>2022-11-11T14:27:28Z</time>
      </trkpt>
      <trkpt lat="47.11018" lon="-1.00106">
        <ele>103.5</ele>
        <time>2022-11-11T14:27:31Z</time>
      </trkpt>
      <trkpt lat="47.11017" lon="-1.00108">
        <ele>103.5</ele>
        <time>2022-11-11T14:27:33Z</time>
      </trkpt>
      <trkpt lat="47.11014" lon="-1.00113">
        <ele>103.6</ele>
        <time>2022-11-11T14:27:36Z</time>
      </trkpt>
      <trkpt lat="47.11013" lon="-1.00115">
        <ele>103.6</ele>
        <time>2022-11-11T14:27:38Z</time>
      </trkpt>
      <trkpt lat="47.11012" lon="-1.00118">
        <ele>103.6</ele>
        <time>2022-11-11T14:27:40Z</time>
      </trkpt>
      <trkpt lat="47.11011" lon="-1.0012">
        <ele>103.6</ele>
        <time>2022-11-11T14:27:41Z</time>
      </trkpt>
      <trkpt lat="47.1101" lon="-1.00123">
        <ele>103.6</ele>
        <time>2022-11-11T14:27:43Z</time>
      </trkpt>
      <trkpt lat="47.11008" lon="-1.00128">
        <ele>103.7</ele>
        <time>2022-11-11T14:27:46Z</time>
      </trkpt>
      <trkpt lat="47.11006" lon="-1.00133">
        <ele>103.7</ele>
        <time>2022-11-11T14:27:49Z</time>
      </trkpt>
      <trkpt lat="47.11005" lon="-1.00137">
        <ele>103.7</ele>
        <time>2022-11-11T14:27:51Z</time>
      </trkpt>
      <trkpt lat="47.11004" lon="-1.00141">
        <ele>103.7</ele>
        <time>2022-11-11T14:27:54Z</time>
      </trkpt>
      <trkpt lat="47.11003" lon="-1.00144">
        <ele>103.8</ele>
        <time>2022-11-11T14:27:56Z</time>
      </trkpt>
      <trkpt lat="47.11001" lon="-1.00149">
        <ele>103.8</ele>
        <time>2022-11-11T14:27:59Z</time>
      </trkpt>
      <trkpt lat="47.11" lon="-1.00152">
        <ele>103.8</ele>
        <time>2022-11-11T14:28:01Z</time>
      </trkpt>
      <trkpt lat="47.10999" lon="-1.00155">
        <ele>103.8</ele>
        <time>2022-11-11T14:28:03Z</time>
      </trkpt>
      <trkpt lat="47.10999" lon="-1.00156">
        <ele>103.8</ele>
        <time>2022-11-11T14:28:04Z</time>
      </trkpt>
      <trkpt lat="47.10997" lon="-1.00161">
        <ele>103.9</ele>
        <time>2022-11-11T14:28:07Z</time>
      </trkpt>
      <trkpt lat="47.10996" lon="-1.00164">
        <ele>103.9</ele>
        <time>2022-11-11T14:28:09Z</time>
      </trkpt>
      <trkpt lat="47.10994" lon="-1.00168">
        <ele>103.9</ele>
        <time>2022-11-11T14:28:12Z</time>
      </trkpt>
      <trkpt lat="47.10993" lon="-1.00171">
        <ele>103.9</ele>
        <time>2022-11-11T14:28:14Z</time>
      </trkpt>
      <trkpt lat="47.10993" lon="-1.00173">
        <ele>104</ele>
        <time>2022-11-11T14:28:15Z</time>
      </trkpt>
      <trkpt lat="47.10992" lon="-1.00176">
        <ele>104</ele>
        <time>2022-11-11T14:28:17Z</time>
      </trkpt>
      <trkpt lat="47.10991" lon="-1.00178">
        <ele>104</ele>
        <time>2022-11-11T14:28:19Z</time>
      </trkpt>
      <trkpt lat="47.10989" lon="-1.00183">
        <ele>104</ele>
        <time>2022-11-11T14:28:22Z</time>
      </trkpt>
      <trkpt lat="47.10987" lon="-1.00187">
        <ele>104.1</ele>
        <time>2022-11-11T14:28:25Z</time>
      </trkpt>
      <trkpt lat="47.10986" lon="-1.0019">
        <ele>104.1</ele>
        <time>2022-11-11T14:28:27Z</time>
      </trkpt>
      <trkpt lat="47.10986" lon="-1.00191">
        <ele>104.1</ele>
        <time>2022-11-11T14:28:28Z</time>
      </trkpt>
      <trkpt lat="47.10984" lon="-1.00194">
        <ele>104.1</ele>
        <time>2022-11-11T14:28:30Z</time>
      </trkpt>
      <trkpt lat="47.10983" lon="-1.00197">
        <ele>104.1</ele>
        <time>2022-11-11T14:28:32Z</time>
      </trkpt>
      <trkpt lat="47.10981" lon="-1.00202">
        <ele>104.2</ele>
        <time>2022-11-11T14:28:35Z</time>
      </trkpt>
      <trkpt lat="47.1098" lon="-1.00205">
        <ele>104.2</ele>
        <time>2022-11-11T14:28:37Z</time>
      </trkpt>
      <trkpt lat="47.10978" lon="-1.00209">
        <ele>104.2</ele>
        <time>2022-11-11T14:28:40Z</time>
      </trkpt>
      <trkpt lat="47.10977" lon="-1.00214">
        <ele>104.2</ele>
        <time>2022-11-11T14:28:43Z</time>
      </trkpt>
      <trkpt lat="47.10976" lon="-1.00217">
        <ele>104.3</ele>
        <time>2022-11-11T14:28:45Z</time>
      </trkpt>
      <trkpt lat="47.10975" lon="-1.00221">
        <ele>104.3</ele>
        <time>2022-11-11T14:28:48Z</time>
      </trkpt>
      <trkpt lat="47.10974" lon="-1.00224">
        <ele>104.3</ele>
        <time>2022-11-11T14:28:50Z</time>
      </trkpt>
      <trkpt lat="47.10973" lon="-1.00228">
        <ele>104.3</ele>
        <time>2022-11-11T14:28:52Z</time>
      </trkpt>
      <trkpt lat="47.10973" lon="-1.00229">
        <ele>104.3</ele>
        <time>2022-11-11T14:28:53Z</time>
      </trkpt>
      <trkpt lat="47.10972" lon="-1.00232">
        <ele>104.4</ele>
        <time>2022-11-11T14:28:55Z</time>
      </trkpt>
      <trkpt lat="47.1097" lon="-1.00237">
        <ele>104.4</ele>
        <time>2022-11-11T14:28:58Z</time>
      </trkpt>
      <trkpt lat="47.10969" lon="-1.00241">
        <ele>104.4</ele>
        <time>2022-11-11T14:29:01Z</time>
      </trkpt>
      <trkpt lat="47.10968" lon="-1.00244">
        <ele>104.4</ele>
        <time>2022-11-11T14:29:03Z</time>
      </trkpt>
      <trkpt lat="47.10967" lon="-1.00246">
        <ele>104.5</ele>
        <time>2022-11-11T14:29:04Z</time>
      </trkpt>
      <trkpt lat="47.10966" lon="-1.00249">
        <ele>104.5</ele>
        <time>2022-11-11T14:29:06Z</time>
      </trkpt>
      <trkpt lat="47.10965" lon="-1.00252">
        <ele>104.5</ele>
        <time>2022-11-11T14:29:08Z</time>
      </trkpt>
      <trkpt lat="47.10964" lon="-1.00256">
        <ele>104.5</ele>
        <time>2022-11-11T14:29:11Z</time>
      </trkpt>
      <trkpt lat="47.10962" lon="-1.00259">
        <ele>104.5</ele>
        <time>2022-11-11T14:29:13Z</time>
      </trkpt>
      <trkpt lat="47.10961" lon="-1.00263">
        <ele>104.6</ele>
        <time>2022-11-11T14:29:16Z</time>
      </trkpt>
      <trkpt lat="47.1096" lon="-1.00265">
        <ele>104.6</ele>
        <time>2022-11-11T14:29:17Z</time>
      </trkpt>
      <trkpt lat="47.10959" lon="-1.00268">
        <ele>104.6</ele>
        <time>2022-11-11T14:29:19Z</time>
      </trkpt>
      <trkpt lat="47.10958" lon="-1.00271">
        <ele>104.6</ele>
        <time>2022-11-11T14:29:21Z</time>
      </trkpt>
      <trkpt lat="47.10957" lon="-1.00275">
        <ele>104.7</ele>
        <time>2022-11-11T14:29:24Z</time>
      </trkpt>
      <trkpt lat="47.10956" lon="-1.00278">
        <ele>104.7</ele>
        <time>2022-11-11T14:29:26Z</time>
      </trkpt>
      <trkpt lat="47.10954" lon="-1.00282">
        <ele>104.7</ele>
        <time>2022-11-11T14:29:29Z</time>
      </trkpt>
      <trkpt lat="47.10954" lon="-1.00285">
        <ele>104.7</ele>
        <time>2022-11-11T14:29:31Z</time>
      </trkpt>
      <trkpt lat="47.10953" lon="-1.00286">
        <ele>104.7</ele>
        <time>2022-11-11T14:29:32Z</time>
      </trkpt>
      <trkpt lat="47.10952" lon="-1.00289">
        <ele>104.8</ele>
        <time>2022-11-11T14:29:34Z</time>
      </trkpt>
      <trkpt lat="47.1095" lon="-1.00294">
        <ele>104.8</ele>
        <time>2022-11-11T14:29:37Z</time>
      </trkpt>
      <trkpt lat="47.10948" lon="-1.00296">
        <ele>104.8</ele>
        <time>2022-11-11T14:29:39Z</time>
      </trkpt>
      <trkpt lat="47.10947" lon="-1.00301">
        <ele>104.8</ele>
        <time>2022-11-11T14:29:42Z</time>
      </trkpt>
      <trkpt lat="47.10946" lon="-1.00302">
        <ele>104.8</ele>
        <time>2022-11-11T14:29:43Z</time>
      </trkpt>
      <trkpt lat="47.10945" lon="-1.00304">
        <ele>104.9</ele>
        <time>2022-11-11T14:29:44Z</time>
      </trkpt>
      <trkpt lat="47.10944" lon="-1.00309">
        <ele>104.9</ele>
        <time>2022-11-11T14:29:47Z</time>
      </trkpt>
      <trkpt lat="47.10942" lon="-1.00314">
        <ele>104.9</ele>
        <time>2022-11-11T14:29:50Z</time>
      </trkpt>
      <trkpt lat="47.10941" lon="-1.00317">
        <ele>104.9</ele>
        <time>2022-11-11T14:29:52Z</time>
      </trkpt>
      <trkpt lat="47.1094" lon="-1.0032">
        <ele>105</ele>
        <time>2022-11-11T14:29:54Z</time>
      </trkpt>
      <trkpt lat="47.10939" lon="-1.00322">
        <ele>105</ele>
        <time>2022-11-11T14:29:55Z</time>
      </trkpt>
      <trkpt lat="47.10938" lon="-1.00325">
        <ele>105</ele>
        <time>2022-11-11T14:29:57Z</time>
      </trkpt>
      <trkpt lat="47.10936" lon="-1.0033">
        <ele>105</ele>
        <time>2022-11-11T14:30:00Z</time>
      </trkpt>
      <trkpt lat="47.10935" lon="-1.00333">
        <ele>105</ele>
        <time>2022-11-11T14:30:02Z</time>
      </trkpt>
      <trkpt lat="47.10933" lon="-1.00337">
        <ele>105.1</ele>
        <time>2022-11-11T14:30:05Z</time>
      </trkpt>
      <trkpt lat="47.10931" lon="-1.00342">
        <ele>105.1</ele>
        <time>2022-11-11T14:30:08Z</time>
      </trkpt>
      <trkpt lat="47.1093" lon="-1.00345">
        <ele>105.1</ele>
        <time>2022-11-11T14:30:10Z</time>
      </trkpt>
      <trkpt lat="47.10928" lon="-1.00349">
        <ele>105.1</ele>
        <time>2022-11-11T14:30:13Z</time>
      </trkpt>
      <trkpt lat="47.10927" lon="-1.00352">
        <ele>105.2</ele>
        <time>2022-11-11T14:30:15Z</time>
      </trkpt>
      <trkpt lat="47.10925" lon="-1.00355">
        <ele>105.2</ele>
        <time>2022-11-11T14:30:17Z</time>
      </trkpt>
      <trkpt lat="47.10925" lon="-1.00356">
        <ele>105.2</ele>
        <time>2022-11-11T14:30:18Z</time>
      </trkpt>
      <trkpt lat="47.10924" lon="-1.00359">
        <ele>105.2</ele>
        <time>2022-11-11T14:30:20Z</time>
      </trkpt>
      <trkpt lat="47.10922" lon="-1.00364">
        <ele>105.2</ele>
        <time>2022-11-11T14:30:23Z</time>
      </trkpt>
      <trkpt lat="47.1092" lon="-1.00368">
        <ele>105.2</ele>
        <time>2022-11-11T14:30:26Z</time>
      </trkpt>
      <trkpt lat="47.10919" lon="-1.00371">
        <ele>105.2</ele>
        <time>2022-11-11T14:30:28Z</time>
      </trkpt>
      <trkpt lat="47.10918" lon="-1.00373">
        <ele>105.2</ele>
        <time>2022-11-11T14:30:29Z</time>
      </trkpt>
      <trkpt lat="47.10918" lon="-1.00376">
        <ele>105.2</ele>
        <time>2022-11-11T14:30:31Z</time>
      </trkpt>
      <trkpt lat="47.10917" lon="-1.00379">
        <ele>105.2</ele>
        <time>2022-11-11T14:30:33Z</time>
      </trkpt>
      <trkpt lat="47.10915" lon="-1.00383">
        <ele>105.2</ele>
        <time>2022-11-11T14:30:36Z</time>
      </trkpt>
      <trkpt lat="47.10914" lon="-1.00386">
        <ele>105.2</ele>
        <time>2022-11-11T14:30:38Z</time>
      </trkpt>
      <trkpt lat="47.10913" lon="-1.0039">
        <ele>105.2</ele>
        <time>2022-11-11T14:30:41Z</time>
      </trkpt>
      <trkpt lat="47.10913" lon="-1.00391">
        <ele>105.2</ele>
        <time>2022-11-11T14:30:42Z</time>
      </trkpt>
      <trkpt lat="47.10912" lon="-1.00395">
        <ele>105.2</ele>
        <time>2022-11-11T14:30:44Z</time>
      </trkpt>
      <trkpt lat="47.10911" lon="-1.00398">
        <ele>105.3</ele>
        <time>2022-11-11T14:30:46Z</time>
      </trkpt>
      <trkpt lat="47.1091" lon="-1.00402">
        <ele>105.3</ele>
        <time>2022-11-11T14:30:49Z</time>
      </trkpt>
      <trkpt lat="47.10909" lon="-1.00406">
        <ele>105.3</ele>
        <time>2022-11-11T14:30:51Z</time>
      </trkpt>
      <trkpt lat="47.10908" lon="-1.0041">
        <ele>105.3</ele>
        <time>2022-11-11T14:30:54Z</time>
      </trkpt>
      <trkpt lat="47.10907" lon="-1.00413">
        <ele>105.3</ele>
        <time>2022-11-11T14:30:56Z</time>
      </trkpt>
      <trkpt lat="47.10906" lon="-1.00418">
        <ele>105.3</ele>
        <time>2022-11-11T14:30:59Z</time>
      </trkpt>
      <trkpt lat="47.10904" lon="-1.00423">
        <ele>105.3</ele>
        <time>2022-11-11T14:31:02Z</time>
      </trkpt>
      <trkpt lat="47.10903" lon="-1.00426">
        <ele>105.3</ele>
        <time>2022-11-11T14:31:04Z</time>
      </trkpt>
      <trkpt lat="47.10903" lon="-1.00429">
        <ele>105.3</ele>
        <time>2022-11-11T14:31:06Z</time>
      </trkpt>
      <trkpt lat="47.10902" lon="-1.0043">
        <ele>105.3</ele>
        <time>2022-11-11T14:31:07Z</time>
      </trkpt>
      <trkpt lat="47.10901" lon="-1.00433">
        <ele>105.3</ele>
        <time>2022-11-11T14:31:09Z</time>
      </trkpt>
      <trkpt lat="47.10899" lon="-1.00437">
        <ele>105.3</ele>
        <time>2022-11-11T14:31:12Z</time>
      </trkpt>
      <trkpt lat="47.10898" lon="-1.0044">
        <ele>105.3</ele>
        <time>2022-11-11T14:31:14Z</time>
      </trkpt>
      <trkpt lat="47.10896" lon="-1.00444">
        <ele>105.3</ele>
        <time>2022-11-11T14:31:17Z</time>
      </trkpt>
      <trkpt lat="47.10895" lon="-1.00447">
        <ele>105.3</ele>
        <time>2022-11-11T14:31:19Z</time>
      </trkpt>
      <trkpt lat="47.10894" lon="-1.00448">
        <ele>105.3</ele>
        <time>2022-11-11T14:31:20Z</time>
      </trkpt>
      <trkpt lat="47.10893" lon="-1.00451">
        <ele>105.4</ele>
        <time>2022-11-11T14:31:22Z</time>
      </trkpt>
      <trkpt lat="47.10892" lon="-1.00455">
        <ele>105.4</ele>
        <time>2022-11-11T14:31:25Z</time>
      </trkpt>
      <trkpt lat="47.10891" lon="-1.00458">
        <ele>105.4</ele>
        <time>2022-11-11T14:31:27Z</time>
      </trkpt>
      <trkpt lat="47.10889" lon="-1.00462">
        <ele>105.4</ele>
        <time>2022-11-11T14:31:30Z</time>
      </trkpt>
      <trkpt lat="47.10888" lon="-1.00465">
        <ele>105.4</ele>
        <time>2022-11-11T14:31:32Z</time>
      </trkpt>
      <trkpt lat="47.10887" lon="-1.00466">
        <ele>105.4</ele>
        <time>2022-11-11T14:31:33Z</time>
      </trkpt>
      <trkpt lat="47.10886" lon="-1.00469">
        <ele>105.4</ele>
        <time>2022-11-11T14:31:35Z</time>
      </trkpt>
      <trkpt lat="47.10884" lon="-1.00474">
        <ele>105.4</ele>
        <time>2022-11-11T14:31:38Z</time>
      </trkpt>
      <trkpt lat="47.10883" lon="-1.00476">
        <ele>105.4</ele>
        <time>2022-11-11T14:31:40Z</time>
      </trkpt>
      <trkpt lat="47.10881" lon="-1.00481">
        <ele>105.4</ele>
        <time>2022-11-11T14:31:43Z</time>
      </trkpt>
      <trkpt lat="47.1088" lon="-1.00484">
        <ele>105.4</ele>
        <time>2022-11-11T14:31:45Z</time>
      </trkpt>
      <trkpt lat="47.10879" lon="-1.00488">
        <ele>105.4</ele>
        <time>2022-11-11T14:31:48Z</time>
      </trkpt>
      <trkpt lat="47.10878" lon="-1.00491">
        <ele>105.4</ele>
        <time>2022-11-11T14:31:50Z</time>
      </trkpt>
      <trkpt lat="47.10876" lon="-1.00496">
        <ele>105.4</ele>
        <time>2022-11-11T14:31:53Z</time>
      </trkpt>
      <trkpt lat="47.10875" lon="-1.00501">
        <ele>105.5</ele>
        <time>2022-11-11T14:31:56Z</time>
      </trkpt>
      <trkpt lat="47.10874" lon="-1.00502">
        <ele>105.5</ele>
        <time>2022-11-11T14:31:57Z</time>
      </trkpt>
      <trkpt lat="47.10874" lon="-1.00504">
        <ele>105.5</ele>
        <time>2022-11-11T14:31:58Z</time>
      </trkpt>
      <trkpt lat="47.10872" lon="-1.00508">
        <ele>105.5</ele>
        <time>2022-11-11T14:32:01Z</time>
      </trkpt>
      <trkpt lat="47.10871" lon="-1.00511">
        <ele>105.5</ele>
        <time>2022-11-11T14:32:03Z</time>
      </trkpt>
      <trkpt lat="47.1087" lon="-1.00516">
        <ele>105.5</ele>
        <time>2022-11-11T14:32:06Z</time>
      </trkpt>
      <trkpt lat="47.10869" lon="-1.00519">
        <ele>105.5</ele>
        <time>2022-11-11T14:32:08Z</time>
      </trkpt>
      <trkpt lat="47.10868" lon="-1.0052">
        <ele>105.5</ele>
        <time>2022-11-11T14:32:09Z</time>
      </trkpt>
      <trkpt lat="47.10867" lon="-1.00523">
        <ele>105.5</ele>
        <time>2022-11-11T14:32:11Z</time>
      </trkpt>
      <trkpt lat="47.10866" lon="-1.00527">
        <ele>105.5</ele>
        <time>2022-11-11T14:32:14Z</time>
      </trkpt>
      <trkpt lat="47.10865" lon="-1.0053">
        <ele>105.5</ele>
        <time>2022-11-11T14:32:16Z</time>
      </trkpt>
      <trkpt lat="47.10863" lon="-1.00534">
        <ele>105.5</ele>
        <time>2022-11-11T14:32:19Z</time>
      </trkpt>
      <trkpt lat="47.10863" lon="-1.00537">
        <ele>105.5</ele>
        <time>2022-11-11T14:32:21Z</time>
      </trkpt>
      <trkpt lat="47.10862" lon="-1.00539">
        <ele>105.5</ele>
        <time>2022-11-11T14:32:22Z</time>
      </trkpt>
      <trkpt lat="47.10862" lon="-1.00542">
        <ele>105.5</ele>
        <time>2022-11-11T14:32:24Z</time>
      </trkpt>
      <trkpt lat="47.10861" lon="-1.00545">
        <ele>105.5</ele>
        <time>2022-11-11T14:32:26Z</time>
      </trkpt>
      <trkpt lat="47.10861" lon="-1.0055">
        <ele>105.5</ele>
        <time>2022-11-11T14:32:29Z</time>
      </trkpt>
      <trkpt lat="47.1086" lon="-1.00554">
        <ele>105.6</ele>
        <time>2022-11-11T14:32:32Z</time>
      </trkpt>
      <trkpt lat="47.10859" lon="-1.00558">
        <ele>105.6</ele>
        <time>2022-11-11T14:32:34Z</time>
      </trkpt>
      <trkpt lat="47.10859" lon="-1.00561">
        <ele>105.6</ele>
        <time>2022-11-11T14:32:36Z</time>
      </trkpt>
      <trkpt lat="47.10859" lon="-1.00562">
        <ele>105.6</ele>
        <time>2022-11-11T14:32:37Z</time>
      </trkpt>
      <trkpt lat="47.10859" lon="-1.00565">
        <ele>105.6</ele>
        <time>2022-11-11T14:32:39Z</time>
      </trkpt>
      <trkpt lat="47.10858" lon="-1.0057">
        <ele>105.6</ele>
        <time>2022-11-11T14:32:42Z</time>
      </trkpt>
      <trkpt lat="47.10858" lon="-1.00573">
        <ele>105.6</ele>
        <time>2022-11-11T14:32:44Z</time>
      </trkpt>
      <trkpt lat="47.10857" lon="-1.00577">
        <ele>105.6</ele>
        <time>2022-11-11T14:32:47Z</time>
      </trkpt>
      <trkpt lat="47.10857" lon="-1.00582">
        <ele>105.6</ele>
        <time>2022-11-11T14:32:50Z</time>
      </trkpt>
      <trkpt lat="47.10857" lon="-1.00585">
        <ele>105.6</ele>
        <time>2022-11-11T14:32:52Z</time>
      </trkpt>
      <trkpt lat="47.10856" lon="-1.00589">
        <ele>105.6</ele>
        <time>2022-11-11T14:32:55Z</time>
      </trkpt>
      <trkpt lat="47.10856" lon="-1.00592">
        <ele>105.6</ele>
        <time>2022-11-11T14:32:57Z</time>
      </trkpt>
      <trkpt lat="47.10856" lon="-1.00597">
        <ele>105.6</ele>
        <time>2022-11-11T14:33:00Z</time>
      </trkpt>
      <trkpt lat="47.10855" lon="-1.006">
        <ele>105.6</ele>
        <time>2022-11-11T14:33:02Z</time>
      </trkpt>
      <trkpt lat="47.10855" lon="-1.00601">
        <ele>105.6</ele>
        <time>2022-11-11T14:33:03Z</time>
      </trkpt>
      <trkpt lat="47.10855" lon="-1.00605">
        <ele>105.6</ele>
        <time>2022-11-11T14:33:05Z</time>
      </trkpt>
      <trkpt lat="47.10854" lon="-1.00609">
        <ele>105.7</ele>
        <time>2022-11-11T14:33:08Z</time>
      </trkpt>
      <trkpt lat="47.10854" lon="-1.00613">
        <ele>105.7</ele>
        <time>2022-11-11T14:33:10Z</time>
      </trkpt>
      <trkpt lat="47.10853" lon="-1.00617">
        <ele>105.7</ele>
        <time>2022-11-11T14:33:13Z</time>
      </trkpt>
      <trkpt lat="47.10852" lon="-1.0062">
        <ele>105.7</ele>
        <time>2022-11-11T14:33:15Z</time>
      </trkpt>
      <trkpt lat="47.10852" lon="-1.00622">
        <ele>105.7</ele>
        <time>2022-11-11T14:33:16Z</time>
      </trkpt>
      <trkpt lat="47.10852" lon="-1.00625">
        <ele>105.7</ele>
        <time>2022-11-11T14:33:18Z</time>
      </trkpt>
      <trkpt lat="47.10851" lon="-1.00629">
        <ele>105.7</ele>
        <time>2022-11-11T14:33:20Z</time>
      </trkpt>
      <trkpt lat="47.10851" lon="-1.00634">
        <ele>105.7</ele>
        <time>2022-11-11T14:33:23Z</time>
      </trkpt>
      <trkpt lat="47.1085" lon="-1.00639">
        <ele>105.7</ele>
        <time>2022-11-11T14:33:26Z</time>
      </trkpt>
      <trkpt lat="47.10849" lon="-1.00642">
        <ele>105.7</ele>
        <time>2022-11-11T14:33:28Z</time>
      </trkpt>
      <trkpt lat="47.10849" lon="-1.00647">
        <ele>105.7</ele>
        <time>2022-11-11T14:33:31Z</time>
      </trkpt>
      <trkpt lat="47.10848" lon="-1.0065">
        <ele>105.7</ele>
        <time>2022-11-11T14:33:33Z</time>
      </trkpt>
      <trkpt lat="47.10847" lon="-1.00656">
        <ele>105.7</ele>
        <time>2022-11-11T14:33:36Z</time>
      </trkpt>
      <trkpt lat="47.10847" lon="-1.00659">
        <ele>105.7</ele>
        <time>2022-11-11T14:33:38Z</time>
      </trkpt>
      <trkpt lat="47.10846" lon="-1.00662">
        <ele>105.7</ele>
        <time>2022-11-11T14:33:40Z</time>
      </trkpt>
      <trkpt lat="47.10846" lon="-1.00664">
        <ele>105.7</ele>
        <time>2022-11-11T14:33:41Z</time>
      </trkpt>
      <trkpt lat="47.10845" lon="-1.00669">
        <ele>105.8</ele>
        <time>2022-11-11T14:33:44Z</time>
      </trkpt>
      <trkpt lat="47.10844" lon="-1.00672">
        <ele>105.8</ele>
        <time>2022-11-11T14:33:46Z</time>
      </trkpt>
      <trkpt lat="47.10843" lon="-1.00677">
        <ele>105.8</ele>
        <time>2022-11-11T14:33:49Z</time>
      </trkpt>
      <trkpt lat="47.10843" lon="-1.0068">
        <ele>105.8</ele>
        <time>2022-11-11T14:33:51Z</time>
      </trkpt>
      <trkpt lat="47.10842" lon="-1.00681">
        <ele>105.8</ele>
        <time>2022-11-11T14:33:52Z</time>
      </trkpt>
      <trkpt lat="47.10842" lon="-1.00685">
        <ele>105.8</ele>
        <time>2022-11-11T14:33:54Z</time>
      </trkpt>
      <trkpt lat="47.10841" lon="-1.00688">
        <ele>105.8</ele>
        <time>2022-11-11T14:33:56Z</time>
      </trkpt>
      <trkpt lat="47.1084" lon="-1.00693">
        <ele>105.8</ele>
        <time>2022-11-11T14:33:59Z</time>
      </trkpt>
      <trkpt lat="47.10839" lon="-1.00698">
        <ele>105.8</ele>
        <time>2022-11-11T14:34:02Z</time>
      </trkpt>
      <trkpt lat="47.10838" lon="-1.00701">
        <ele>105.8</ele>
        <time>2022-11-11T14:34:04Z</time>
      </trkpt>
      <trkpt lat="47.10837" lon="-1.00705">
        <ele>105.8</ele>
        <time>2022-11-11T14:34:07Z</time>
      </trkpt>
      <trkpt lat="47.10836" lon="-1.00708">
        <ele>105.8</ele>
        <time>2022-11-11T14:34:09Z</time>
      </trkpt>
      <trkpt lat="47.10835" lon="-1.00713">
        <ele>105.8</ele>
        <time>2022-11-11T14:34:12Z</time>
      </trkpt>
      <trkpt lat="47.10834" lon="-1.00716">
        <ele>105.8</ele>
        <time>2022-11-11T14:34:14Z</time>
      </trkpt>
      <trkpt lat="47.10833" lon="-1.0072">
        <ele>105.8</ele>
        <time>2022-11-11T14:34:17Z</time>
      </trkpt>
      <trkpt lat="47.10832" lon="-1.00726">
        <ele>105.9</ele>
        <time>2022-11-11T14:34:20Z</time>
      </trkpt>
      <trkpt lat="47.10832" lon="-1.00729">
        <ele>105.9</ele>
        <time>2022-11-11T14:34:22Z</time>
      </trkpt>
      <trkpt lat="47.10831" lon="-1.00735">
        <ele>105.9</ele>
        <time>2022-11-11T14:34:25Z</time>
      </trkpt>
      <trkpt lat="47.10831" lon="-1.00738">
        <ele>105.9</ele>
        <time>2022-11-11T14:34:27Z</time>
      </trkpt>
      <trkpt lat="47.10831" lon="-1.00742">
        <ele>105.9</ele>
        <time>2022-11-11T14:34:29Z</time>
      </trkpt>
      <trkpt lat="47.1083" lon="-1.00743">
        <ele>105.9</ele>
        <time>2022-11-11T14:34:30Z</time>
      </trkpt>
      <trkpt lat="47.1083" lon="-1.00747">
        <ele>105.9</ele>
        <time>2022-11-11T14:34:32Z</time>
      </trkpt>
      <trkpt lat="47.1083" lon="-1.00752">
        <ele>105.9</ele>
        <time>2022-11-11T14:34:35Z</time>
      </trkpt>
      <trkpt lat="47.1083" lon="-1.00757">
        <ele>105.9</ele>
        <time>2022-11-11T14:34:38Z</time>
      </trkpt>
      <trkpt lat="47.10829" lon="-1.00761">
        <ele>105.9</ele>
        <time>2022-11-11T14:34:40Z</time>
      </trkpt>
      <trkpt lat="47.10829" lon="-1.00763">
        <ele>105.9</ele>
        <time>2022-11-11T14:34:41Z</time>
      </trkpt>
      <trkpt lat="47.10828" lon="-1.00766">
        <ele>105.9</ele>
        <time>2022-11-11T14:34:43Z</time>
      </trkpt>
      <trkpt lat="47.10827" lon="-1.00768">
        <ele>105.9</ele>
        <time>2022-11-11T14:34:45Z</time>
      </trkpt>
      <trkpt lat="47.10824" lon="-1.00773">
        <ele>105.9</ele>
        <time>2022-11-11T14:34:48Z</time>
      </trkpt>
      <trkpt lat="47.10823" lon="-1.00776">
        <ele>105.9</ele>
        <time>2022-11-11T14:34:50Z</time>
      </trkpt>
      <trkpt lat="47.10821" lon="-1.0078">
        <ele>105.9</ele>
        <time>2022-11-11T14:34:53Z</time>
      </trkpt>
      <trkpt lat="47.10819" lon="-1.00784">
        <ele>106</ele>
        <time>2022-11-11T14:34:56Z</time>
      </trkpt>
      <trkpt lat="47.10818" lon="-1.00786">
        <ele>106</ele>
        <time>2022-11-11T14:34:58Z</time>
      </trkpt>
      <trkpt lat="47.10816" lon="-1.0079">
        <ele>106</ele>
        <time>2022-11-11T14:35:01Z</time>
      </trkpt>
      <trkpt lat="47.10815" lon="-1.00793">
        <ele>106</ele>
        <time>2022-11-11T14:35:03Z</time>
      </trkpt>
      <trkpt lat="47.10813" lon="-1.00796">
        <ele>106</ele>
        <time>2022-11-11T14:35:06Z</time>
      </trkpt>
      <trkpt lat="47.10812" lon="-1.00794">
        <ele>106</ele>
        <time>2022-11-11T14:35:08Z</time>
      </trkpt>
      <trkpt lat="47.10811" lon="-1.00791">
        <ele>106</ele>
        <time>2022-11-11T14:35:11Z</time>
      </trkpt>
      <trkpt lat="47.1081" lon="-1.00788">
        <ele>106</ele>
        <time>2022-11-11T14:35:14Z</time>
      </trkpt>
      <trkpt lat="47.10809" lon="-1.00786">
        <ele>106</ele>
        <time>2022-11-11T14:35:16Z</time>
      </trkpt>
      <trkpt lat="47.10807" lon="-1.00782">
        <ele>106</ele>
        <time>2022-11-11T14:35:19Z</time>
      </trkpt>
      <trkpt lat="47.10806" lon="-1.0078">
        <ele>106</ele>
        <time>2022-11-11T14:35:21Z</time>
      </trkpt>
      <trkpt lat="47.10806" lon="-1.00779">
        <ele>106</ele>
        <time>2022-11-11T14:35:22Z</time>
      </trkpt>
      <trkpt lat="47.10805" lon="-1.00776">
        <ele>106</ele>
        <time>2022-11-11T14:35:24Z</time>
      </trkpt>
      <trkpt lat="47.10804" lon="-1.00773">
        <ele>106</ele>
        <time>2022-11-11T14:35:26Z</time>
      </trkpt>
      <trkpt lat="47.10802" lon="-1.00769">
        <ele>106</ele>
        <time>2022-11-11T14:35:29Z</time>
      </trkpt>
      <trkpt lat="47.10801" lon="-1.00764">
        <ele>106.1</ele>
        <time>2022-11-11T14:35:32Z</time>
      </trkpt>
      <trkpt lat="47.108" lon="-1.00761">
        <ele>106.1</ele>
        <time>2022-11-11T14:35:34Z</time>
      </trkpt>
      <trkpt lat="47.10799" lon="-1.00757">
        <ele>106.1</ele>
        <time>2022-11-11T14:35:37Z</time>
      </trkpt>
      <trkpt lat="47.10798" lon="-1.00755">
        <ele>106.1</ele>
        <time>2022-11-11T14:35:39Z</time>
      </trkpt>
      <trkpt lat="47.10797" lon="-1.00751">
        <ele>106.1</ele>
        <time>2022-11-11T14:35:42Z</time>
      </trkpt>
      <trkpt lat="47.10796" lon="-1.00748">
        <ele>106.1</ele>
        <time>2022-11-11T14:35:45Z</time>
      </trkpt>
      <trkpt lat="47.10795" lon="-1.00745">
        <ele>106.1</ele>
        <time>2022-11-11T14:35:47Z</time>
      </trkpt>
      <trkpt lat="47.10794" lon="-1.00742">
        <ele>106.1</ele>
        <time>2022-11-11T14:35:50Z</time>
      </trkpt>
      <trkpt lat="47.10794" lon="-1.0074">
        <ele>106.1</ele>
        <time>2022-11-11T14:35:52Z</time>
      </trkpt>
      <trkpt lat="47.10793" lon="-1.00738">
        <ele>106.1</ele>
        <time>2022-11-11T14:35:55Z</time>
      </trkpt>
      <trkpt lat="47.10793" lon="-1.00737">
        <ele>106.1</ele>
        <time>2022-11-11T14:35:57Z</time>
      </trkpt>
      <trkpt lat="47.10792" lon="-1.00735">
        <ele>106.1</ele>
        <time>2022-11-11T14:36:00Z</time>
      </trkpt>
      <trkpt lat="47.10791" lon="-1.00732">
        <ele>106.1</ele>
        <time>2022-11-11T14:36:03Z</time>
      </trkpt>
      <trkpt lat="47.10791" lon="-1.00731">
        <ele>106.2</ele>
        <time>2022-11-11T14:36:05Z</time>
      </trkpt>
      <trkpt lat="47.1079" lon="-1.00729">
        <ele>106.2</ele>
        <time>2022-11-11T14:36:08Z</time>
      </trkpt>
      <trkpt lat="47.1079" lon="-1.00727">
        <ele>106.2</ele>
        <time>2022-11-11T14:36:10Z</time>
      </trkpt>
      <trkpt lat="47.10789" lon="-1.00725">
        <ele>106.2</ele>
        <time>2022-11-11T14:36:13Z</time>
      </trkpt>
      <trkpt lat="47.10789" lon="-1.00724">
        <ele>106.2</ele>
        <time>2022-11-11T14:36:15Z</time>
      </trkpt>
      <trkpt lat="47.10788" lon="-1.00722">
        <ele>106.2</ele>
        <time>2022-11-11T14:36:17Z</time>
      </trkpt>
      <trkpt lat="47.10788" lon="-1.00722">
        <ele>106.2</ele>
        <time>2022-11-11T14:36:18Z</time>
      </trkpt>
      <trkpt lat="47.10787" lon="-1.00719">
        <ele>106.2</ele>
        <time>2022-11-11T14:36:21Z</time>
      </trkpt>
      <trkpt lat="47.10787" lon="-1.00718">
        <ele>106.2</ele>
        <time>2022-11-11T14:36:23Z</time>
      </trkpt>
      <trkpt lat="47.10786" lon="-1.00715">
        <ele>106.2</ele>
        <time>2022-11-11T14:36:26Z</time>
      </trkpt>
      <trkpt lat="47.10786" lon="-1.00714">
        <ele>106.2</ele>
        <time>2022-11-11T14:36:28Z</time>
      </trkpt>
      <trkpt lat="47.10785" lon="-1.00711">
        <ele>106.2</ele>
        <time>2022-11-11T14:36:31Z</time>
      </trkpt>
      <trkpt lat="47.10785" lon="-1.0071">
        <ele>106.2</ele>
        <time>2022-11-11T14:36:33Z</time>
      </trkpt>
      <trkpt lat="47.10784" lon="-1.00707">
        <ele>106.2</ele>
        <time>2022-11-11T14:36:36Z</time>
      </trkpt>
      <trkpt lat="47.10783" lon="-1.00705">
        <ele>106.2</ele>
        <time>2022-11-11T14:36:39Z</time>
      </trkpt>
      <trkpt lat="47.10783" lon="-1.00703">
        <ele>106.3</ele>
        <time>2022-11-11T14:36:41Z</time>
      </trkpt>
      <trkpt lat="47.10783" lon="-1.00703">
        <ele>106.3</ele>
        <time>2022-11-11T14:36:42Z</time>
      </trkpt>
      <trkpt lat="47.10782" lon="-1.007">
        <ele>106.3</ele>
        <time>2022-11-11T14:36:44Z</time>
      </trkpt>
      <trkpt lat="47.10781" lon="-1.00697">
        <ele>106.3</ele>
        <time>2022-11-11T14:36:46Z</time>
      </trkpt>
      <trkpt lat="47.10779" lon="-1.00693">
        <ele>106.3</ele>
        <time>2022-11-11T14:36:49Z</time>
      </trkpt>
      <trkpt lat="47.10778" lon="-1.00691">
        <ele>106.3</ele>
        <time>2022-11-11T14:36:51Z</time>
      </trkpt>
      <trkpt lat="47.10777" lon="-1.00686">
        <ele>106.3</ele>
        <time>2022-11-11T14:36:54Z</time>
      </trkpt>
      <trkpt lat="47.10776" lon="-1.00685">
        <ele>106.3</ele>
        <time>2022-11-11T14:36:55Z</time>
      </trkpt>
      <trkpt lat="47.10775" lon="-1.00682">
        <ele>106.3</ele>
        <time>2022-11-11T14:36:57Z</time>
      </trkpt>
      <trkpt lat="47.10774" lon="-1.0068">
        <ele>106.3</ele>
        <time>2022-11-11T14:36:59Z</time>
      </trkpt>
      <trkpt lat="47.10773" lon="-1.00675">
        <ele>106.3</ele>
        <time>2022-11-11T14:37:02Z</time>
      </trkpt>
      <trkpt lat="47.10772" lon="-1.00673">
        <ele>106.3</ele>
        <time>2022-11-11T14:37:04Z</time>
      </trkpt>
      <trkpt lat="47.1077" lon="-1.00669">
        <ele>106.3</ele>
        <time>2022-11-11T14:37:07Z</time>
      </trkpt>
      <trkpt lat="47.1077" lon="-1.00667">
        <ele>106.3</ele>
        <time>2022-11-11T14:37:08Z</time>
      </trkpt>
      <trkpt lat="47.10769" lon="-1.00666">
        <ele>106.3</ele>
        <time>2022-11-11T14:37:09Z</time>
      </trkpt>
      <trkpt lat="47.10768" lon="-1.00661">
        <ele>106.3</ele>
        <time>2022-11-11T14:37:12Z</time>
      </trkpt>
      <trkpt lat="47.10766" lon="-1.00656">
        <ele>106.3</ele>
        <time>2022-11-11T14:37:15Z</time>
      </trkpt>
      <trkpt lat="47.10765" lon="-1.00653">
        <ele>106.4</ele>
        <time>2022-11-11T14:37:17Z</time>
      </trkpt>
      <trkpt lat="47.10764" lon="-1.00649">
        <ele>106.4</ele>
        <time>2022-11-11T14:37:20Z</time>
      </trkpt>
      <trkpt lat="47.10763" lon="-1.00646">
        <ele>106.4</ele>
        <time>2022-11-11T14:37:22Z</time>
      </trkpt>
      <trkpt lat="47.10761" lon="-1.00641">
        <ele>106.4</ele>
        <time>2022-11-11T14:37:25Z</time>
      </trkpt>
      <trkpt lat="47.1076" lon="-1.00638">
        <ele>106.4</ele>
        <time>2022-11-11T14:37:27Z</time>
      </trkpt>
      <trkpt lat="47.10759" lon="-1.00633">
        <ele>106.4</ele>
        <time>2022-11-11T14:37:30Z</time>
      </trkpt>
      <trkpt lat="47.10758" lon="-1.0063">
        <ele>106.4</ele>
        <time>2022-11-11T14:37:32Z</time>
      </trkpt>
      <trkpt lat="47.10757" lon="-1.00629">
        <ele>106.4</ele>
        <time>2022-11-11T14:37:33Z</time>
      </trkpt>
      <trkpt lat="47.10756" lon="-1.00626">
        <ele>106.4</ele>
        <time>2022-11-11T14:37:35Z</time>
      </trkpt>
      <trkpt lat="47.10755" lon="-1.00622">
        <ele>106.4</ele>
        <time>2022-11-11T14:37:38Z</time>
      </trkpt>
      <trkpt lat="47.10754" lon="-1.0062">
        <ele>106.4</ele>
        <time>2022-11-11T14:37:40Z</time>
      </trkpt>
      <trkpt lat="47.10753" lon="-1.00615">
        <ele>106.4</ele>
        <time>2022-11-11T14:37:43Z</time>
      </trkpt>
      <trkpt lat="47.10752" lon="-1.00613">
        <ele>106.4</ele>
        <time>2022-11-11T14:37:45Z</time>
      </trkpt>
      <trkpt lat="47.10752" lon="-1.00611">
        <ele>106.4</ele>
        <time>2022-11-11T14:37:46Z</time>
      </trkpt>
      <trkpt lat="47.1075" lon="-1.00608">
        <ele>106.4</ele>
        <time>2022-11-11T14:37:48Z</time>
      </trkpt>
      <trkpt lat="47.10749" lon="-1.00604">
        <ele>106.4</ele>
        <time>2022-11-11T14:37:51Z</time>
      </trkpt>
      <trkpt lat="47.10748" lon="-1.00601">
        <ele>106.5</ele>
        <time>2022-11-11T14:37:53Z</time>
      </trkpt>
      <trkpt lat="47.10746" lon="-1.00596">
        <ele>106.5</ele>
        <time>2022-11-11T14:37:56Z</time>
      </trkpt>
      <trkpt lat="47.10745" lon="-1.00593">
        <ele>106.5</ele>
        <time>2022-11-11T14:37:58Z</time>
      </trkpt>
      <trkpt lat="47.10743" lon="-1.00589">
        <ele>106.5</ele>
        <time>2022-11-11T14:38:01Z</time>
      </trkpt>
      <trkpt lat="47.10742" lon="-1.00586">
        <ele>106.5</ele>
        <time>2022-11-11T14:38:03Z</time>
      </trkpt>
      <trkpt lat="47.10741" lon="-1.00582">
        <ele>106.5</ele>
        <time>2022-11-11T14:38:06Z</time>
      </trkpt>
      <trkpt lat="47.10739" lon="-1.00578">
        <ele>106.5</ele>
        <time>2022-11-11T14:38:09Z</time>
      </trkpt>
      <trkpt lat="47.10738" lon="-1.00576">
        <ele>106.5</ele>
        <time>2022-11-11T14:38:11Z</time>
      </trkpt>
      <trkpt lat="47.10736" lon="-1.00572">
        <ele>106.5</ele>
        <time>2022-11-11T14:38:14Z</time>
      </trkpt>
      <trkpt lat="47.10735" lon="-1.00569">
        <ele>106.5</ele>
        <time>2022-11-11T14:38:16Z</time>
      </trkpt>
      <trkpt lat="47.10733" lon="-1.00565">
        <ele>106.5</ele>
        <time>2022-11-11T14:38:19Z</time>
      </trkpt>
      <trkpt lat="47.10731" lon="-1.00563">
        <ele>106.5</ele>
        <time>2022-11-11T14:38:21Z</time>
      </trkpt>
      <trkpt lat="47.10729" lon="-1.00559">
        <ele>106.5</ele>
        <time>2022-11-11T14:38:24Z</time>
      </trkpt>
      <trkpt lat="47.10727" lon="-1.00556">
        <ele>106.5</ele>
        <time>2022-11-11T14:38:27Z</time>
      </trkpt>
      <trkpt lat="47.10726" lon="-1.00553">
        <ele>106.6</ele>
        <time>2022-11-11T14:38:29Z</time>
      </trkpt>
      <trkpt lat="47.10724" lon="-1.0055">
        <ele>106.6</ele>
        <time>2022-11-11T14:38:32Z</time>
      </trkpt>
      <trkpt lat="47.10723" lon="-1.00548">
        <ele>106.6</ele>
        <time>2022-11-11T14:38:34Z</time>
      </trkpt>
      <trkpt lat="47.1072" lon="-1.00545">
        <ele>106.6</ele>
        <time>2022-11-11T14:38:37Z</time>
      </trkpt>
      <trkpt lat="47.1072" lon="-1.00544">
        <ele>106.6</ele>
        <time>2022-11-11T14:38:38Z</time>
      </trkpt>
      <trkpt lat="47.10719" lon="-1.00542">
        <ele>106.6</ele>
        <time>2022-11-11T14:38:39Z</time>
      </trkpt>
      <trkpt lat="47.10717" lon="-1.00539">
        <ele>106.6</ele>
        <time>2022-11-11T14:38:42Z</time>
      </trkpt>
      <trkpt lat="47.10714" lon="-1.00536">
        <ele>106.6</ele>
        <time>2022-11-11T14:38:45Z</time>
      </trkpt>
      <trkpt lat="47.10713" lon="-1.00534">
        <ele>106.6</ele>
        <time>2022-11-11T14:38:47Z</time>
      </trkpt>
      <trkpt lat="47.1071" lon="-1.00531">
        <ele>106.6</ele>
        <time>2022-11-11T14:38:50Z</time>
      </trkpt>
      <trkpt lat="47.10709" lon="-1.00529">
        <ele>106.6</ele>
        <time>2022-11-11T14:38:52Z</time>
      </trkpt>
      <trkpt lat="47.10706" lon="-1.00526">
        <ele>106.6</ele>
        <time>2022-11-11T14:38:55Z</time>
      </trkpt>
      <trkpt lat="47.10704" lon="-1.00525">
        <ele>106.6</ele>
        <time>2022-11-11T14:38:57Z</time>
      </trkpt>
      <trkpt lat="47.10702" lon="-1.00522">
        <ele>106.6</ele>
        <time>2022-11-11T14:39:00Z</time>
      </trkpt>
      <trkpt lat="47.10699" lon="-1.00519">
        <ele>106.7</ele>
        <time>2022-11-11T14:39:03Z</time>
      </trkpt>
      <trkpt lat="47.10698" lon="-1.00517">
        <ele>106.7</ele>
        <time>2022-11-11T14:39:05Z</time>
      </trkpt>
      <trkpt lat="47.10697" lon="-1.00517">
        <ele>106.7</ele>
        <time>2022-11-11T14:39:06Z</time>
      </trkpt>
      <trkpt lat="47.10696" lon="-1.00515">
        <ele>106.7</ele>
        <time>2022-11-11T14:39:08Z</time>
      </trkpt>
      <trkpt lat="47.10695" lon="-1.00514">
        <ele>106.7</ele>
        <time>2022-11-11T14:39:10Z</time>
      </trkpt>
      <trkpt lat="47.10693" lon="-1.00513">
        <ele>106.7</ele>
        <time>2022-11-11T14:39:13Z</time>
      </trkpt>
      <trkpt lat="47.10692" lon="-1.00512">
        <ele>106.7</ele>
        <time>2022-11-11T14:39:15Z</time>
      </trkpt>
      <trkpt lat="47.10691" lon="-1.0051">
        <ele>106.7</ele>
        <time>2022-11-11T14:39:18Z</time>
      </trkpt>
      <trkpt lat="47.10689" lon="-1.00508">
        <ele>106.7</ele>
        <time>2022-11-11T14:39:21Z</time>
      </trkpt>
      <trkpt lat="47.10688" lon="-1.00507">
        <ele>106.7</ele>
        <time>2022-11-11T14:39:23Z</time>
      </trkpt>
      <trkpt lat="47.10687" lon="-1.00505">
        <ele>106.7</ele>
        <time>2022-11-11T14:39:26Z</time>
      </trkpt>
      <trkpt lat="47.10686" lon="-1.00505">
        <ele>106.7</ele>
        <time>2022-11-11T14:39:27Z</time>
      </trkpt>
      <trkpt lat="47.10685" lon="-1.00504">
        <ele>106.7</ele>
        <time>2022-11-11T14:39:28Z</time>
      </trkpt>
      <trkpt lat="47.10683" lon="-1.00501">
        <ele>106.7</ele>
        <time>2022-11-11T14:39:31Z</time>
      </trkpt>
      <trkpt lat="47.10681" lon="-1.00499">
        <ele>106.7</ele>
        <time>2022-11-11T14:39:33Z</time>
      </trkpt>
      <trkpt lat="47.10679" lon="-1.00496">
        <ele>106.7</ele>
        <time>2022-11-11T14:39:36Z</time>
      </trkpt>
      <trkpt lat="47.10676" lon="-1.00493">
        <ele>106.8</ele>
        <time>2022-11-11T14:39:39Z</time>
      </trkpt>
      <trkpt lat="47.10674" lon="-1.00491">
        <ele>106.8</ele>
        <time>2022-11-11T14:39:41Z</time>
      </trkpt>
      <trkpt lat="47.10672" lon="-1.00488">
        <ele>106.8</ele>
        <time>2022-11-11T14:39:44Z</time>
      </trkpt>
      <trkpt lat="47.1067" lon="-1.00486">
        <ele>106.8</ele>
        <time>2022-11-11T14:39:46Z</time>
      </trkpt>
      <trkpt lat="47.10667" lon="-1.00483">
        <ele>106.8</ele>
        <time>2022-11-11T14:39:49Z</time>
      </trkpt>
      <trkpt lat="47.10665" lon="-1.0048">
        <ele>106.8</ele>
        <time>2022-11-11T14:39:51Z</time>
      </trkpt>
      <trkpt lat="47.10663" lon="-1.00478">
        <ele>106.8</ele>
        <time>2022-11-11T14:39:53Z</time>
      </trkpt>
      <trkpt lat="47.10662" lon="-1.00477">
        <ele>106.8</ele>
        <time>2022-11-11T14:39:54Z</time>
      </trkpt>
      <trkpt lat="47.1066" lon="-1.00474">
        <ele>106.8</ele>
        <time>2022-11-11T14:39:57Z</time>
      </trkpt>
      <trkpt lat="47.10658" lon="-1.00472">
        <ele>106.8</ele>
        <time>2022-11-11T14:39:59Z</time>
      </trkpt>
      <trkpt lat="47.10656" lon="-1.00469">
        <ele>106.8</ele>
        <time>2022-11-11T14:40:02Z</time>
      </trkpt>
      <trkpt lat="47.10654" lon="-1.00467">
        <ele>106.8</ele>
        <time>2022-11-11T14:40:04Z</time>
      </trkpt>
      <trkpt lat="47.10652" lon="-1.00465">
        <ele>106.8</ele>
        <time>2022-11-11T14:40:06Z</time>
      </trkpt>
      <trkpt lat="47.10652" lon="-1.00464">
        <ele>106.8</ele>
        <time>2022-11-11T14:40:07Z</time>
      </trkpt>
      <trkpt lat="47.1065" lon="-1.00461">
        <ele>106.8</ele>
        <time>2022-11-11T14:40:09Z</time>
      </trkpt>
      <trkpt lat="47.10648" lon="-1.00457">
        <ele>106.8</ele>
        <time>2022-11-11T14:40:12Z</time>
      </trkpt>
      <trkpt lat="47.10646" lon="-1.00453">
        <ele>106.9</ele>
        <time>2022-11-11T14:40:15Z</time>
      </trkpt>
      <trkpt lat="47.10644" lon="-1.0045">
        <ele>106.9</ele>
        <time>2022-11-11T14:40:17Z</time>
      </trkpt>
      <trkpt lat="47.10644" lon="-1.00449">
        <ele>106.9</ele>
        <time>2022-11-11T14:40:18Z</time>
      </trkpt>
      <trkpt lat="47.10642" lon="-1.00446">
        <ele>106.9</ele>
        <time>2022-11-11T14:40:20Z</time>
      </trkpt>
      <trkpt lat="47.10641" lon="-1.00444">
        <ele>106.9</ele>
        <time>2022-11-11T14:40:22Z</time>
      </trkpt>
      <trkpt lat="47.10639" lon="-1.0044">
        <ele>106.9</ele>
        <time>2022-11-11T14:40:25Z</time>
      </trkpt>
      <trkpt lat="47.10637" lon="-1.00437">
        <ele>106.9</ele>
        <time>2022-11-11T14:40:27Z</time>
      </trkpt>
      <trkpt lat="47.10635" lon="-1.00433">
        <ele>106.9</ele>
        <time>2022-11-11T14:40:30Z</time>
      </trkpt>
      <trkpt lat="47.10633" lon="-1.00429">
        <ele>106.9</ele>
        <time>2022-11-11T14:40:33Z</time>
      </trkpt>
      <trkpt lat="47.10632" lon="-1.00426">
        <ele>106.9</ele>
        <time>2022-11-11T14:40:35Z</time>
      </trkpt>
      <trkpt lat="47.1063" lon="-1.00422">
        <ele>106.9</ele>
        <time>2022-11-11T14:40:38Z</time>
      </trkpt>
      <trkpt lat="47.10629" lon="-1.00419">
        <ele>106.9</ele>
        <time>2022-11-11T14:40:40Z</time>
      </trkpt>
      <trkpt lat="47.10628" lon="-1.00416">
        <ele>106.9</ele>
        <time>2022-11-11T14:40:42Z</time>
      </trkpt>
      <trkpt lat="47.10627" lon="-1.00415">
        <ele>106.9</ele>
        <time>2022-11-11T14:40:43Z</time>
      </trkpt>
      <trkpt lat="47.10626" lon="-1.00412">
        <ele>106.9</ele>
        <time>2022-11-11T14:40:45Z</time>
      </trkpt>
      <trkpt lat="47.10624" lon="-1.00407">
        <ele>106.9</ele>
        <time>2022-11-11T14:40:48Z</time>
      </trkpt>
      <trkpt lat="47.10622" lon="-1.00403">
        <ele>107</ele>
        <time>2022-11-11T14:40:51Z</time>
      </trkpt>
      <trkpt lat="47.10621" lon="-1.004">
        <ele>107</ele>
        <time>2022-11-11T14:40:53Z</time>
      </trkpt>
      <trkpt lat="47.1062" lon="-1.00399">
        <ele>107</ele>
        <time>2022-11-11T14:40:54Z</time>
      </trkpt>
      <trkpt lat="47.10619" lon="-1.00396">
        <ele>107</ele>
        <time>2022-11-11T14:40:56Z</time>
      </trkpt>
      <trkpt lat="47.10618" lon="-1.00393">
        <ele>107</ele>
        <time>2022-11-11T14:40:58Z</time>
      </trkpt>
      <trkpt lat="47.10616" lon="-1.00389">
        <ele>107</ele>
        <time>2022-11-11T14:41:01Z</time>
      </trkpt>
      <trkpt lat="47.10614" lon="-1.00386">
        <ele>107</ele>
        <time>2022-11-11T14:41:03Z</time>
      </trkpt>
      <trkpt lat="47.10612" lon="-1.00382">
        <ele>107</ele>
        <time>2022-11-11T14:41:06Z</time>
      </trkpt>
      <trkpt lat="47.1061" lon="-1.00378">
        <ele>107</ele>
        <time>2022-11-11T14:41:09Z</time>
      </trkpt>
      <trkpt lat="47.10608" lon="-1.00375">
        <ele>107</ele>
        <time>2022-11-11T14:41:11Z</time>
      </trkpt>
      <trkpt lat="47.10606" lon="-1.00371">
        <ele>107</ele>
        <time>2022-11-11T14:41:14Z</time>
      </trkpt>
      <trkpt lat="47.10604" lon="-1.00368">
        <ele>107</ele>
        <time>2022-11-11T14:41:16Z</time>
      </trkpt>
      <trkpt lat="47.10603" lon="-1.00367">
        <ele>107</ele>
        <time>2022-11-11T14:41:17Z</time>
      </trkpt>
      <trkpt lat="47.10601" lon="-1.00365">
        <ele>107</ele>
        <time>2022-11-11T14:41:19Z</time>
      </trkpt>
      <trkpt lat="47.106" lon="-1.00362">
        <ele>107</ele>
        <time>2022-11-11T14:41:21Z</time>
      </trkpt>
      <trkpt lat="47.10597" lon="-1.00358">
        <ele>107</ele>
        <time>2022-11-11T14:41:24Z</time>
      </trkpt>
      <trkpt lat="47.10594" lon="-1.00354">
        <ele>107.1</ele>
        <time>2022-11-11T14:41:27Z</time>
      </trkpt>
      <trkpt lat="47.10593" lon="-1.00353">
        <ele>107.1</ele>
        <time>2022-11-11T14:41:28Z</time>
      </trkpt>
      <trkpt lat="47.10593" lon="-1.00352">
        <ele>107.1</ele>
        <time>2022-11-11T14:41:29Z</time>
      </trkpt>
      <trkpt lat="47.1059" lon="-1.00349">
        <ele>107.1</ele>
        <time>2022-11-11T14:41:32Z</time>
      </trkpt>
      <trkpt lat="47.10589" lon="-1.00346">
        <ele>107.1</ele>
        <time>2022-11-11T14:41:34Z</time>
      </trkpt>
      <trkpt lat="47.10586" lon="-1.00343">
        <ele>107.1</ele>
        <time>2022-11-11T14:41:37Z</time>
      </trkpt>
      <trkpt lat="47.10584" lon="-1.00339">
        <ele>107.1</ele>
        <time>2022-11-11T14:41:40Z</time>
      </trkpt>
      <trkpt lat="47.10583" lon="-1.00338">
        <ele>107.1</ele>
        <time>2022-11-11T14:41:41Z</time>
      </trkpt>
      <trkpt lat="47.10582" lon="-1.00337">
        <ele>107.1</ele>
        <time>2022-11-11T14:41:42Z</time>
      </trkpt>
      <trkpt lat="47.1058" lon="-1.00334">
        <ele>107.1</ele>
        <time>2022-11-11T14:41:45Z</time>
      </trkpt>
      <trkpt lat="47.10578" lon="-1.00332">
        <ele>107.1</ele>
        <time>2022-11-11T14:41:47Z</time>
      </trkpt>
      <trkpt lat="47.10575" lon="-1.00329">
        <ele>107.1</ele>
        <time>2022-11-11T14:41:50Z</time>
      </trkpt>
      <trkpt lat="47.10573" lon="-1.00327">
        <ele>107.1</ele>
        <time>2022-11-11T14:41:52Z</time>
      </trkpt>
      <trkpt lat="47.10572" lon="-1.00326">
        <ele>107.1</ele>
        <time>2022-11-11T14:41:53Z</time>
      </trkpt>
      <trkpt lat="47.1057" lon="-1.00324">
        <ele>107.1</ele>
        <time>2022-11-11T14:41:55Z</time>
      </trkpt>
      <trkpt lat="47.10567" lon="-1.00322">
        <ele>107.1</ele>
        <time>2022-11-11T14:41:58Z</time>
      </trkpt>
      <trkpt lat="47.10566" lon="-1.0032">
        <ele>107.1</ele>
        <time>2022-11-11T14:42:00Z</time>
      </trkpt>
      <trkpt lat="47.10563" lon="-1.00318">
        <ele>107.2</ele>
        <time>2022-11-11T14:42:03Z</time>
      </trkpt>
      <trkpt lat="47.10561" lon="-1.00316">
        <ele>107.2</ele>
        <time>2022-11-11T14:42:05Z</time>
      </trkpt>
      <trkpt lat="47.1056" lon="-1.00315">
        <ele>107.2</ele>
        <time>2022-11-11T14:42:06Z</time>
      </trkpt>
      <trkpt lat="47.10558" lon="-1.00314">
        <ele>107.2</ele>
        <time>2022-11-11T14:42:08Z</time>
      </trkpt>
      <trkpt lat="47.10556" lon="-1.00312">
        <ele>107.2</ele>
        <time>2022-11-11T14:42:10Z</time>
      </trkpt>
      <trkpt lat="47.10553" lon="-1.0031">
        <ele>107.2</ele>
        <time>2022-11-11T14:42:13Z</time>
      </trkpt>
      <trkpt lat="47.1055" lon="-1.00308">
        <ele>107.2</ele>
        <time>2022-11-11T14:42:16Z</time>
      </trkpt>
      <trkpt lat="47.10548" lon="-1.00306">
        <ele>107.2</ele>
        <time>2022-11-11T14:42:18Z</time>
      </trkpt>
      <trkpt lat="47.10547" lon="-1.00305">
        <ele>107.2</ele>
        <time>2022-11-11T14:42:19Z</time>
      </trkpt>
      <trkpt lat="47.10545" lon="-1.00303">
        <ele>107.2</ele>
        <time>2022-11-11T14:42:21Z</time>
      </trkpt>
      <trkpt lat="47.10543" lon="-1.00302">
        <ele>107.2</ele>
        <time>2022-11-11T14:42:23Z</time>
      </trkpt>
      <trkpt lat="47.10541" lon="-1.00299">
        <ele>107.2</ele>
        <time>2022-11-11T14:42:26Z</time>
      </trkpt>
      <trkpt lat="47.10539" lon="-1.00297">
        <ele>107.2</ele>
        <time>2022-11-11T14:42:28Z</time>
      </trkpt>
      <trkpt lat="47.10536" lon="-1.00294">
        <ele>107.2</ele>
        <time>2022-11-11T14:42:31Z</time>
      </trkpt>
      <trkpt lat="47.10533" lon="-1.00292">
        <ele>107.2</ele>
        <time>2022-11-11T14:42:34Z</time>
      </trkpt>
      <trkpt lat="47.10531" lon="-1.0029">
        <ele>107.2</ele>
        <time>2022-11-11T14:42:36Z</time>
      </trkpt>
      <trkpt lat="47.10528" lon="-1.00288">
        <ele>107.3</ele>
        <time>2022-11-11T14:42:39Z</time>
      </trkpt>
      <trkpt lat="47.10526" lon="-1.00287">
        <ele>107.3</ele>
        <time>2022-11-11T14:42:41Z</time>
      </trkpt>
      <trkpt lat="47.10523" lon="-1.00284">
        <ele>107.3</ele>
        <time>2022-11-11T14:42:44Z</time>
      </trkpt>
      <trkpt lat="47.10521" lon="-1.00283">
        <ele>107.3</ele>
        <time>2022-11-11T14:42:46Z</time>
      </trkpt>
      <trkpt lat="47.10518" lon="-1.0028">
        <ele>107.3</ele>
        <time>2022-11-11T14:42:49Z</time>
      </trkpt>
      <trkpt lat="47.10515" lon="-1.00277">
        <ele>107.3</ele>
        <time>2022-11-11T14:42:52Z</time>
      </trkpt>
      <trkpt lat="47.10512" lon="-1.00276">
        <ele>107.3</ele>
        <time>2022-11-11T14:42:54Z</time>
      </trkpt>
      <trkpt lat="47.10511" lon="-1.00275">
        <ele>107.3</ele>
        <time>2022-11-11T14:42:55Z</time>
      </trkpt>
      <trkpt lat="47.10509" lon="-1.00273">
        <ele>107.3</ele>
        <time>2022-11-11T14:42:57Z</time>
      </trkpt>
      <trkpt lat="47.10507" lon="-1.00272">
        <ele>107.3</ele>
        <time>2022-11-11T14:42:59Z</time>
      </trkpt>
      <trkpt lat="47.10504" lon="-1.0027">
        <ele>107.3</ele>
        <time>2022-11-11T14:43:02Z</time>
      </trkpt>
      <trkpt lat="47.10501" lon="-1.00269">
        <ele>107.3</ele>
        <time>2022-11-11T14:43:04Z</time>
      </trkpt>
      <trkpt lat="47.10498" lon="-1.00267">
        <ele>107.3</ele>
        <time>2022-11-11T14:43:07Z</time>
      </trkpt>
      <trkpt lat="47.10495" lon="-1.00265">
        <ele>107.3</ele>
        <time>2022-11-11T14:43:10Z</time>
      </trkpt>
      <trkpt lat="47.10493" lon="-1.00264">
        <ele>107.3</ele>
        <time>2022-11-11T14:43:12Z</time>
      </trkpt>
      <trkpt lat="47.1049" lon="-1.00263">
        <ele>107.4</ele>
        <time>2022-11-11T14:43:15Z</time>
      </trkpt>
      <trkpt lat="47.10487" lon="-1.00262">
        <ele>107.4</ele>
        <time>2022-11-11T14:43:17Z</time>
      </trkpt>
      <trkpt lat="47.10485" lon="-1.00261">
        <ele>107.4</ele>
        <time>2022-11-11T14:43:19Z</time>
      </trkpt>
      <trkpt lat="47.10484" lon="-1.0026">
        <ele>107.4</ele>
        <time>2022-11-11T14:43:20Z</time>
      </trkpt>
      <trkpt lat="47.10482" lon="-1.0026">
        <ele>107.4</ele>
        <time>2022-11-11T14:43:22Z</time>
      </trkpt>
      <trkpt lat="47.10479" lon="-1.00259">
        <ele>107.4</ele>
        <time>2022-11-11T14:43:25Z</time>
      </trkpt>
      <trkpt lat="47.10475" lon="-1.00258">
        <ele>107.4</ele>
        <time>2022-11-11T14:43:28Z</time>
      </trkpt>
      <trkpt lat="47.10473" lon="-1.00257">
        <ele>107.4</ele>
        <time>2022-11-11T14:43:30Z</time>
      </trkpt>
      <trkpt lat="47.10472" lon="-1.00257">
        <ele>107.4</ele>
        <time>2022-11-11T14:43:31Z</time>
      </trkpt>
      <trkpt lat="47.1047" lon="-1.00256">
        <ele>107.4</ele>
        <time>2022-11-11T14:43:33Z</time>
      </trkpt>
      <trkpt lat="47.10467" lon="-1.00256">
        <ele>107.4</ele>
        <time>2022-11-11T14:43:35Z</time>
      </trkpt>
      <trkpt lat="47.10464" lon="-1.00256">
        <ele>107.4</ele>
        <time>2022-11-11T14:43:38Z</time>
      </trkpt>
      <trkpt lat="47.10461" lon="-1.00255">
        <ele>107.4</ele>
        <time>2022-11-11T14:43:40Z</time>
      </trkpt>
      <trkpt lat="47.10458" lon="-1.00255">
        <ele>107.4</ele>
        <time>2022-11-11T14:43:43Z</time>
      </trkpt>
      <trkpt lat="47.10455" lon="-1.00255">
        <ele>107.4</ele>
        <time>2022-11-11T14:43:46Z</time>
      </trkpt>
      <trkpt lat="47.10452" lon="-1.00255">
        <ele>107.5</ele>
        <time>2022-11-11T14:43:48Z</time>
      </trkpt>
      <trkpt lat="47.10449" lon="-1.00255">
        <ele>107.5</ele>
        <time>2022-11-11T14:43:51Z</time>
      </trkpt>
      <trkpt lat="47.10447" lon="-1.00255">
        <ele>107.5</ele>
        <time>2022-11-11T14:43:53Z</time>
      </trkpt>
      <trkpt lat="47.10443" lon="-1.00256">
        <ele>107.5</ele>
        <time>2022-11-11T14:43:56Z</time>
      </trkpt>
      <trkpt lat="47.10441" lon="-1.00256">
        <ele>107.5</ele>
        <time>2022-11-11T14:43:58Z</time>
      </trkpt>
      <trkpt lat="47.10438" lon="-1.00257">
        <ele>107.5</ele>
        <time>2022-11-11T14:44:01Z</time>
      </trkpt>
      <trkpt lat="47.10435" lon="-1.00257">
        <ele>107.5</ele>
        <time>2022-11-11T14:44:04Z</time>
      </trkpt>
      <trkpt lat="47.10433" lon="-1.00258">
        <ele>107.5</ele>
        <time>2022-11-11T14:44:06Z</time>
      </trkpt>
      <trkpt lat="47.1043" lon="-1.00258">
        <ele>107.5</ele>
        <time>2022-11-11T14:44:09Z</time>
      </trkpt>
      <trkpt lat="47.10429" lon="-1.00258">
        <ele>107.5</ele>
        <time>2022-11-11T14:44:10Z</time>
      </trkpt>
      <trkpt lat="47.10427" lon="-1.00258">
        <ele>107.5</ele>
        <time>2022-11-11T14:44:11Z</time>
      </trkpt>
      <trkpt lat="47.10423" lon="-1.00257">
        <ele>107.5</ele>
        <time>2022-11-11T14:44:14Z</time>
      </trkpt>
      <trkpt lat="47.10421" lon="-1.00257">
        <ele>107.5</ele>
        <time>2022-11-11T14:44:16Z</time>
      </trkpt>
      <trkpt lat="47.10417" lon="-1.00256">
        <ele>107.5</ele>
        <time>2022-11-11T14:44:19Z</time>
      </trkpt>
      <trkpt lat="47.10414" lon="-1.00255">
        <ele>107.5</ele>
        <time>2022-11-11T14:44:21Z</time>
      </trkpt>
      <trkpt lat="47.10413" lon="-1.00255">
        <ele>107.5</ele>
        <time>2022-11-11T14:44:22Z</time>
      </trkpt>
      <trkpt lat="47.10412" lon="-1.00255">
        <ele>107.6</ele>
        <time>2022-11-11T14:44:24Z</time>
      </trkpt>
      <trkpt lat="47.10409" lon="-1.00254">
        <ele>107.6</ele>
        <time>2022-11-11T14:44:27Z</time>
      </trkpt>
      <trkpt lat="47.10407" lon="-1.00254">
        <ele>107.6</ele>
        <time>2022-11-11T14:44:29Z</time>
      </trkpt>
      <trkpt lat="47.10404" lon="-1.00253">
        <ele>107.6</ele>
        <time>2022-11-11T14:44:32Z</time>
      </trkpt>
      <trkpt lat="47.10402" lon="-1.00252">
        <ele>107.6</ele>
        <time>2022-11-11T14:44:34Z</time>
      </trkpt>
      <trkpt lat="47.10401" lon="-1.00252">
        <ele>107.6</ele>
        <time>2022-11-11T14:44:35Z</time>
      </trkpt>
      <trkpt lat="47.10399" lon="-1.00251">
        <ele>107.6</ele>
        <time>2022-11-11T14:44:37Z</time>
      </trkpt>
      <trkpt lat="47.10396" lon="-1.00248">
        <ele>107.6</ele>
        <time>2022-11-11T14:44:40Z</time>
      </trkpt>
      <trkpt lat="47.10394" lon="-1.00247">
        <ele>107.6</ele>
        <time>2022-11-11T14:44:42Z</time>
      </trkpt>
      <trkpt lat="47.10391" lon="-1.00245">
        <ele>107.6</ele>
        <time>2022-11-11T14:44:44Z</time>
      </trkpt>
      <trkpt lat="47.10391" lon="-1.00245">
        <ele>107.6</ele>
        <time>2022-11-11T14:44:45Z</time>
      </trkpt>
      <trkpt lat="47.1039" lon="-1.00244">
        <ele>107.6</ele>
        <time>2022-11-11T14:44:47Z</time>
      </trkpt>
      <trkpt lat="47.10388" lon="-1.00243">
        <ele>107.6</ele>
        <time>2022-11-11T14:44:50Z</time>
      </trkpt>
      <trkpt lat="47.10387" lon="-1.00242">
        <ele>107.6</ele>
        <time>2022-11-11T14:44:52Z</time>
      </trkpt>
      <trkpt lat="47.10385" lon="-1.00241">
        <ele>107.6</ele>
        <time>2022-11-11T14:44:55Z</time>
      </trkpt>
      <trkpt lat="47.10383" lon="-1.0024">
        <ele>107.6</ele>
        <time>2022-11-11T14:44:58Z</time>
      </trkpt>
      <trkpt lat="47.10382" lon="-1.00239">
        <ele>107.7</ele>
        <time>2022-11-11T14:45:00Z</time>
      </trkpt>
      <trkpt lat="47.1038" lon="-1.00238">
        <ele>107.7</ele>
        <time>2022-11-11T14:45:03Z</time>
      </trkpt>
      <trkpt lat="47.10379" lon="-1.00237">
        <ele>107.7</ele>
        <time>2022-11-11T14:45:05Z</time>
      </trkpt>
      <trkpt lat="47.10378" lon="-1.00237">
        <ele>107.7</ele>
        <time>2022-11-11T14:45:06Z</time>
      </trkpt>
      <trkpt lat="47.10376" lon="-1.00236">
        <ele>107.7</ele>
        <time>2022-11-11T14:45:08Z</time>
      </trkpt>
      <trkpt lat="47.10374" lon="-1.00235">
        <ele>107.7</ele>
        <time>2022-11-11T14:45:10Z</time>
      </trkpt>
      <trkpt lat="47.10372" lon="-1.00235">
        <ele>107.7</ele>
        <time>2022-11-11T14:45:13Z</time>
      </trkpt>
      <trkpt lat="47.10369" lon="-1.00234">
        <ele>107.7</ele>
        <time>2022-11-11T14:45:16Z</time>
      </trkpt>
      <trkpt lat="47.10367" lon="-1.00233">
        <ele>107.7</ele>
        <time>2022-11-11T14:45:18Z</time>
      </trkpt>
      <trkpt lat="47.10364" lon="-1.00232">
        <ele>107.7</ele>
        <time>2022-11-11T14:45:21Z</time>
      </trkpt>
      <trkpt lat="47.10362" lon="-1.0023">
        <ele>107.7</ele>
        <time>2022-11-11T14:45:23Z</time>
      </trkpt>
      <trkpt lat="47.10359" lon="-1.00228">
        <ele>107.7</ele>
        <time>2022-11-11T14:45:26Z</time>
      </trkpt>
      <trkpt lat="47.10357" lon="-1.00226">
        <ele>107.7</ele>
        <time>2022-11-11T14:45:28Z</time>
      </trkpt>
      <trkpt lat="47.10354" lon="-1.00223">
        <ele>107.7</ele>
        <time>2022-11-11T14:45:31Z</time>
      </trkpt>
      <trkpt lat="47.10352" lon="-1.00222">
        <ele>107.7</ele>
        <time>2022-11-11T14:45:33Z</time>
      </trkpt>
      <trkpt lat="47.10351" lon="-1.00221">
        <ele>107.7</ele>
        <time>2022-11-11T14:45:34Z</time>
      </trkpt>
      <trkpt lat="47.10349" lon="-1.00219">
        <ele>107.8</ele>
        <time>2022-11-11T14:45:36Z</time>
      </trkpt>
      <trkpt lat="47.10347" lon="-1.00216">
        <ele>107.8</ele>
        <time>2022-11-11T14:45:39Z</time>
      </trkpt>
      <trkpt lat="47.10345" lon="-1.00214">
        <ele>107.8</ele>
        <time>2022-11-11T14:45:41Z</time>
      </trkpt>
      <trkpt lat="47.10343" lon="-1.00211">
        <ele>107.8</ele>
        <time>2022-11-11T14:45:44Z</time>
      </trkpt>
      <trkpt lat="47.10341" lon="-1.00209">
        <ele>107.8</ele>
        <time>2022-11-11T14:45:46Z</time>
      </trkpt>
      <trkpt lat="47.1034" lon="-1.00206">
        <ele>107.8</ele>
        <time>2022-11-11T14:45:49Z</time>
      </trkpt>
      <trkpt lat="47.10338" lon="-1.00203">
        <ele>107.8</ele>
        <time>2022-11-11T14:45:52Z</time>
      </trkpt>
      <trkpt lat="47.10337" lon="-1.00201">
        <ele>107.8</ele>
        <time>2022-11-11T14:45:54Z</time>
      </trkpt>
      <trkpt lat="47.10336" lon="-1.00198">
        <ele>107.8</ele>
        <time>2022-11-11T14:45:57Z</time>
      </trkpt>
      <trkpt lat="47.10335" lon="-1.00196">
        <ele>107.8</ele>
        <time>2022-11-11T14:45:59Z</time>
      </trkpt>
      <trkpt lat="47.10334" lon="-1.00193">
        <ele>107.8</ele>
        <time>2022-11-11T14:46:02Z</time>
      </trkpt>
      <trkpt lat="47.10333" lon="-1.00191">
        <ele>107.8</ele>
        <time>2022-11-11T14:46:04Z</time>
      </trkpt>
      <trkpt lat="47.1033" lon="-1.00188">
        <ele>107.8</ele>
        <time>2022-11-11T14:46:07Z</time>
      </trkpt>
      <trkpt lat="47.10328" lon="-1.00186">
        <ele>107.8</ele>
        <time>2022-11-11T14:46:10Z</time>
      </trkpt>
      <trkpt lat="47.10326" lon="-1.00184">
        <ele>107.9</ele>
        <time>2022-11-11T14:46:12Z</time>
      </trkpt>
      <trkpt lat="47.10324" lon="-1.00181">
        <ele>107.9</ele>
        <time>2022-11-11T14:46:15Z</time>
      </trkpt>
      <trkpt lat="47.10322" lon="-1.00179">
        <ele>107.9</ele>
        <time>2022-11-11T14:46:17Z</time>
      </trkpt>
      <trkpt lat="47.10319" lon="-1.00176">
        <ele>107.9</ele>
        <time>2022-11-11T14:46:20Z</time>
      </trkpt>
      <trkpt lat="47.10317" lon="-1.00174">
        <ele>107.9</ele>
        <time>2022-11-11T14:46:22Z</time>
      </trkpt>
      <trkpt lat="47.10314" lon="-1.00171">
        <ele>107.9</ele>
        <time>2022-11-11T14:46:25Z</time>
      </trkpt>
      <trkpt lat="47.10311" lon="-1.00168">
        <ele>107.9</ele>
        <time>2022-11-11T14:46:28Z</time>
      </trkpt>
      <trkpt lat="47.1031" lon="-1.00167">
        <ele>107.9</ele>
        <time>2022-11-11T14:46:29Z</time>
      </trkpt>
      <trkpt lat="47.10309" lon="-1.00167">
        <ele>107.9</ele>
        <time>2022-11-11T14:46:30Z</time>
      </trkpt>
      <trkpt lat="47.10307" lon="-1.00164">
        <ele>107.9</ele>
        <time>2022-11-11T14:46:33Z</time>
      </trkpt>
      <trkpt lat="47.10305" lon="-1.00162">
        <ele>107.9</ele>
        <time>2022-11-11T14:46:35Z</time>
      </trkpt>
      <trkpt lat="47.10302" lon="-1.00159">
        <ele>107.9</ele>
        <time>2022-11-11T14:46:38Z</time>
      </trkpt>
      <trkpt lat="47.10301" lon="-1.00157">
        <ele>107.9</ele>
        <time>2022-11-11T14:46:40Z</time>
      </trkpt>
      <trkpt lat="47.10299" lon="-1.00155">
        <ele>107.9</ele>
        <time>2022-11-11T14:46:42Z</time>
      </trkpt>
      <trkpt lat="47.10298" lon="-1.00154">
        <ele>107.9</ele>
        <time>2022-11-11T14:46:43Z</time>
      </trkpt>
      <trkpt lat="47.10295" lon="-1.0015">
        <ele>108</ele>
        <time>2022-11-11T14:46:46Z</time>
      </trkpt>
      <trkpt lat="47.10294" lon="-1.00148">
        <ele>108</ele>
        <time>2022-11-11T14:46:48Z</time>
      </trkpt>
      <trkpt lat="47.10291" lon="-1.00145">
        <ele>108</ele>
        <time>2022-11-11T14:46:51Z</time>
      </trkpt>
      <trkpt lat="47.10289" lon="-1.00142">
        <ele>108</ele>
        <time>2022-11-11T14:46:53Z</time>
      </trkpt>
      <trkpt lat="47.10288" lon="-1.00141">
        <ele>108</ele>
        <time>2022-11-11T14:46:54Z</time>
      </trkpt>
      <trkpt lat="47.10286" lon="-1.00139">
        <ele>108</ele>
        <time>2022-11-11T14:46:56Z</time>
      </trkpt>
      <trkpt lat="47.10285" lon="-1.00136">
        <ele>108</ele>
        <time>2022-11-11T14:46:58Z</time>
      </trkpt>
      <trkpt lat="47.10282" lon="-1.00133">
        <ele>108</ele>
        <time>2022-11-11T14:47:01Z</time>
      </trkpt>
      <trkpt lat="47.1028" lon="-1.00129">
        <ele>108</ele>
        <time>2022-11-11T14:47:04Z</time>
      </trkpt>
      <trkpt lat="47.10278" lon="-1.00127">
        <ele>108</ele>
        <time>2022-11-11T14:47:06Z</time>
      </trkpt>
      <trkpt lat="47.10275" lon="-1.00125">
        <ele>108</ele>
        <time>2022-11-11T14:47:09Z</time>
      </trkpt>
      <trkpt lat="47.10273" lon="-1.00124">
        <ele>108</ele>
        <time>2022-11-11T14:47:11Z</time>
      </trkpt>
      <trkpt lat="47.1027" lon="-1.00122">
        <ele>108</ele>
        <time>2022-11-11T14:47:14Z</time>
      </trkpt>
      <trkpt lat="47.10267" lon="-1.0012">
        <ele>108</ele>
        <time>2022-11-11T14:47:16Z</time>
      </trkpt>
      <trkpt lat="47.10265" lon="-1.00119">
        <ele>108</ele>
        <time>2022-11-11T14:47:18Z</time>
      </trkpt>
      <trkpt lat="47.10265" lon="-1.00118">
        <ele>108</ele>
        <time>2022-11-11T14:47:19Z</time>
      </trkpt>
      <trkpt lat="47.10263" lon="-1.00114">
        <ele>108.1</ele>
        <time>2022-11-11T14:47:22Z</time>
      </trkpt>
      <trkpt lat="47.10261" lon="-1.00112">
        <ele>108.1</ele>
        <time>2022-11-11T14:47:24Z</time>
      </trkpt>
      <trkpt lat="47.10259" lon="-1.00108">
        <ele>108.1</ele>
        <time>2022-11-11T14:47:27Z</time>
      </trkpt>
      <trkpt lat="47.10258" lon="-1.00106">
        <ele>108.1</ele>
        <time>2022-11-11T14:47:29Z</time>
      </trkpt>
      <trkpt lat="47.10257" lon="-1.00104">
        <ele>108.1</ele>
        <time>2022-11-11T14:47:31Z</time>
      </trkpt>
      <trkpt lat="47.10256" lon="-1.00102">
        <ele>108.1</ele>
        <time>2022-11-11T14:47:32Z</time>
      </trkpt>
      <trkpt lat="47.10255" lon="-1.00099">
        <ele>108.1</ele>
        <time>2022-11-11T14:47:34Z</time>
      </trkpt>
      <trkpt lat="47.10254" lon="-1.00094">
        <ele>108.1</ele>
        <time>2022-11-11T14:47:37Z</time>
      </trkpt>
      <trkpt lat="47.10252" lon="-1.00089">
        <ele>108.1</ele>
        <time>2022-11-11T14:47:40Z</time>
      </trkpt>
      <trkpt lat="47.10251" lon="-1.00086">
        <ele>108.1</ele>
        <time>2022-11-11T14:47:42Z</time>
      </trkpt>
      <trkpt lat="47.10251" lon="-1.00085">
        <ele>108.1</ele>
        <time>2022-11-11T14:47:43Z</time>
      </trkpt>
      <trkpt lat="47.10249" lon="-1.00083">
        <ele>108.1</ele>
        <time>2022-11-11T14:47:45Z</time>
      </trkpt>
      <trkpt lat="47.10248" lon="-1.00082">
        <ele>108.1</ele>
        <time>2022-11-11T14:47:47Z</time>
      </trkpt>
      <trkpt lat="47.10245" lon="-1.00081">
        <ele>108.1</ele>
        <time>2022-11-11T14:47:50Z</time>
      </trkpt>
      <trkpt lat="47.10242" lon="-1.00079">
        <ele>108.1</ele>
        <time>2022-11-11T14:47:53Z</time>
      </trkpt>
      <trkpt lat="47.10241" lon="-1.00078">
        <ele>108.1</ele>
        <time>2022-11-11T14:47:55Z</time>
      </trkpt>
      <trkpt lat="47.10238" lon="-1.00077">
        <ele>108.2</ele>
        <time>2022-11-11T14:47:58Z</time>
      </trkpt>
      <trkpt lat="47.10237" lon="-1.00074">
        <ele>108.2</ele>
        <time>2022-11-11T14:48:00Z</time>
      </trkpt>
      <trkpt lat="47.10235" lon="-1.0007">
        <ele>108.2</ele>
        <time>2022-11-11T14:48:03Z</time>
      </trkpt>
      <trkpt lat="47.10234" lon="-1.00068">
        <ele>108.2</ele>
        <time>2022-11-11T14:48:05Z</time>
      </trkpt>
      <trkpt lat="47.10232" lon="-1.00064">
        <ele>108.2</ele>
        <time>2022-11-11T14:48:08Z</time>
      </trkpt>
      <trkpt lat="47.10232" lon="-1.00063">
        <ele>108.2</ele>
        <time>2022-11-11T14:48:09Z</time>
      </trkpt>
      <trkpt lat="47.1023" lon="-1.00061">
        <ele>108.2</ele>
        <time>2022-11-11T14:48:11Z</time>
      </trkpt>
      <trkpt lat="47.1023" lon="-1.0006">
        <ele>108.1</ele>
        <time>2022-11-11T14:48:12Z</time>
      </trkpt>
      <trkpt lat="47.10229" lon="-1.00058">
        <ele>108.1</ele>
        <time>2022-11-11T14:48:13Z</time>
      </trkpt>
      <trkpt lat="47.10228" lon="-1.00053">
        <ele>108.1</ele>
        <time>2022-11-11T14:48:16Z</time>
      </trkpt>
      <trkpt lat="47.10227" lon="-1.00049">
        <ele>108.1</ele>
        <time>2022-11-11T14:48:18Z</time>
      </trkpt>
      <trkpt lat="47.10225" lon="-1.00044">
        <ele>108</ele>
        <time>2022-11-11T14:48:21Z</time>
      </trkpt>
      <trkpt lat="47.10224" lon="-1.00041">
        <ele>108</ele>
        <time>2022-11-11T14:48:23Z</time>
      </trkpt>
      <trkpt lat="47.10223" lon="-1.00037">
        <ele>108</ele>
        <time>2022-11-11T14:48:26Z</time>
      </trkpt>
      <trkpt lat="47.10222" lon="-1.00032">
        <ele>107.9</ele>
        <time>2022-11-11T14:48:29Z</time>
      </trkpt>
      <trkpt lat="47.10222" lon="-1.0003">
        <ele>107.9</ele>
        <time>2022-11-11T14:48:31Z</time>
      </trkpt>
      <trkpt lat="47.10221" lon="-1.00025">
        <ele>107.9</ele>
        <time>2022-11-11T14:48:34Z</time>
      </trkpt>
      <trkpt lat="47.1022" lon="-1.00023">
        <ele>107.8</ele>
        <time>2022-11-11T14:48:36Z</time>
      </trkpt>
      <trkpt lat="47.1022" lon="-1.00021">
        <ele>107.8</ele>
        <time>2022-11-11T14:48:37Z</time>
      </trkpt>
      <trkpt lat="47.10219" lon="-1.00019">
        <ele>107.8</ele>
        <time>2022-11-11T14:48:39Z</time>
      </trkpt>
      <trkpt lat="47.10219" lon="-1.00017">
        <ele>107.8</ele>
        <time>2022-11-11T14:48:41Z</time>
      </trkpt>
      <trkpt lat="47.10218" lon="-1.00013">
        <ele>107.7</ele>
        <time>2022-11-11T14:48:44Z</time>
      </trkpt>
      <trkpt lat="47.10217" lon="-1.0001">
        <ele>107.7</ele>
        <time>2022-11-11T14:48:47Z</time>
      </trkpt>
      <trkpt lat="47.10217" lon="-1.00007">
        <ele>107.7</ele>
        <time>2022-11-11T14:48:49Z</time>
      </trkpt>
      <trkpt lat="47.10216" lon="-1.00004">
        <ele>107.6</ele>
        <time>2022-11-11T14:48:52Z</time>
      </trkpt>
      <trkpt lat="47.10216" lon="-1.00002">
        <ele>107.6</ele>
        <time>2022-11-11T14:48:54Z</time>
      </trkpt>
      <trkpt lat="47.10214" lon="-0.99995">
        <ele>107.6</ele>
        <time>2022-11-11T14:48:57Z</time>
      </trkpt>
      <trkpt lat="47.10212" lon="-0.9999">
        <ele>107.5</ele>
        <time>2022-11-11T14:48:59Z</time>
      </trkpt>
      <trkpt lat="47.1021" lon="-0.99984">
        <ele>107.5</ele>
        <time>2022-11-11T14:49:02Z</time>
      </trkpt>
      <trkpt lat="47.1021" lon="-0.99982">
        <ele>107.5</ele>
        <time>2022-11-11T14:49:03Z</time>
      </trkpt>
      <trkpt lat="47.10209" lon="-0.99978">
        <ele>107.5</ele>
        <time>2022-11-11T14:49:05Z</time>
      </trkpt>
      <trkpt lat="47.10208" lon="-0.99974">
        <ele>107.4</ele>
        <time>2022-11-11T14:49:07Z</time>
      </trkpt>
      <trkpt lat="47.10207" lon="-0.99968">
        <ele>107.4</ele>
        <time>2022-11-11T14:49:10Z</time>
      </trkpt>
      <trkpt lat="47.10206" lon="-0.99964">
        <ele>107.4</ele>
        <time>2022-11-11T14:49:12Z</time>
      </trkpt>
      <trkpt lat="47.10205" lon="-0.99962">
        <ele>107.4</ele>
        <time>2022-11-11T14:49:13Z</time>
      </trkpt>
      <trkpt lat="47.10205" lon="-0.99959">
        <ele>107.3</ele>
        <time>2022-11-11T14:49:15Z</time>
      </trkpt>
      <trkpt lat="47.10204" lon="-0.99956">
        <ele>107.3</ele>
        <time>2022-11-11T14:49:17Z</time>
      </trkpt>
      <trkpt lat="47.10203" lon="-0.99951">
        <ele>107.3</ele>
        <time>2022-11-11T14:49:20Z</time>
      </trkpt>
      <trkpt lat="47.10203" lon="-0.99946">
        <ele>107.2</ele>
        <time>2022-11-11T14:49:23Z</time>
      </trkpt>
      <trkpt lat="47.10202" lon="-0.99943">
        <ele>107.2</ele>
        <time>2022-11-11T14:49:25Z</time>
      </trkpt>
      <trkpt lat="47.10202" lon="-0.99942">
        <ele>107.2</ele>
        <time>2022-11-11T14:49:26Z</time>
      </trkpt>
      <trkpt lat="47.10201" lon="-0.99939">
        <ele>107.2</ele>
        <time>2022-11-11T14:49:28Z</time>
      </trkpt>
      <trkpt lat="47.10201" lon="-0.99936">
        <ele>107.2</ele>
        <time>2022-11-11T14:49:30Z</time>
      </trkpt>
      <trkpt lat="47.102" lon="-0.99932">
        <ele>107.1</ele>
        <time>2022-11-11T14:49:33Z</time>
      </trkpt>
      <trkpt lat="47.10199" lon="-0.9993">
        <ele>107.1</ele>
        <time>2022-11-11T14:49:35Z</time>
      </trkpt>
      <trkpt lat="47.10198" lon="-0.99926">
        <ele>107</ele>
        <time>2022-11-11T14:49:38Z</time>
      </trkpt>
      <trkpt lat="47.10198" lon="-0.99922">
        <ele>107</ele>
        <time>2022-11-11T14:49:41Z</time>
      </trkpt>
      <trkpt lat="47.10197" lon="-0.99918">
        <ele>107</ele>
        <time>2022-11-11T14:49:43Z</time>
      </trkpt>
      <trkpt lat="47.10195" lon="-0.99913">
        <ele>106.9</ele>
        <time>2022-11-11T14:49:46Z</time>
      </trkpt>
      <trkpt lat="47.10194" lon="-0.9991">
        <ele>106.9</ele>
        <time>2022-11-11T14:49:48Z</time>
      </trkpt>
      <trkpt lat="47.10192" lon="-0.99904">
        <ele>106.9</ele>
        <time>2022-11-11T14:49:51Z</time>
      </trkpt>
      <trkpt lat="47.10192" lon="-0.99903">
        <ele>106.9</ele>
        <time>2022-11-11T14:49:52Z</time>
      </trkpt>
      <trkpt lat="47.10192" lon="-0.99901">
        <ele>106.9</ele>
        <time>2022-11-11T14:49:53Z</time>
      </trkpt>
      <trkpt lat="47.10191" lon="-0.99897">
        <ele>106.8</ele>
        <time>2022-11-11T14:49:56Z</time>
      </trkpt>
      <trkpt lat="47.1019" lon="-0.99892">
        <ele>106.8</ele>
        <time>2022-11-11T14:49:59Z</time>
      </trkpt>
      <trkpt lat="47.1019" lon="-0.99889">
        <ele>106.8</ele>
        <time>2022-11-11T14:50:01Z</time>
      </trkpt>
      <trkpt lat="47.10189" lon="-0.99885">
        <ele>106.7</ele>
        <time>2022-11-11T14:50:04Z</time>
      </trkpt>
      <trkpt lat="47.10189" lon="-0.99883">
        <ele>106.7</ele>
        <time>2022-11-11T14:50:05Z</time>
      </trkpt>
      <trkpt lat="47.10188" lon="-0.99882">
        <ele>106.7</ele>
        <time>2022-11-11T14:50:06Z</time>
      </trkpt>
      <trkpt lat="47.10188" lon="-0.99877">
        <ele>106.7</ele>
        <time>2022-11-11T14:50:09Z</time>
      </trkpt>
      <trkpt lat="47.10188" lon="-0.99874">
        <ele>106.6</ele>
        <time>2022-11-11T14:50:11Z</time>
      </trkpt>
      <trkpt lat="47.10187" lon="-0.99869">
        <ele>106.6</ele>
        <time>2022-11-11T14:50:14Z</time>
      </trkpt>
      <trkpt lat="47.10187" lon="-0.99864">
        <ele>106.6</ele>
        <time>2022-11-11T14:50:17Z</time>
      </trkpt>
      <trkpt lat="47.10187" lon="-0.99861">
        <ele>106.5</ele>
        <time>2022-11-11T14:50:19Z</time>
      </trkpt>
      <trkpt lat="47.10186" lon="-0.99856">
        <ele>106.5</ele>
        <time>2022-11-11T14:50:22Z</time>
      </trkpt>
      <trkpt lat="47.10186" lon="-0.99853">
        <ele>106.5</ele>
        <time>2022-11-11T14:50:24Z</time>
      </trkpt>
      <trkpt lat="47.10185" lon="-0.99849">
        <ele>106.4</ele>
        <time>2022-11-11T14:50:27Z</time>
      </trkpt>
      <trkpt lat="47.10185" lon="-0.99846">
        <ele>106.4</ele>
        <time>2022-11-11T14:50:29Z</time>
      </trkpt>
      <trkpt lat="47.10185" lon="-0.99841">
        <ele>106.4</ele>
        <time>2022-11-11T14:50:32Z</time>
      </trkpt>
      <trkpt lat="47.10185" lon="-0.99837">
        <ele>106.3</ele>
        <time>2022-11-11T14:50:35Z</time>
      </trkpt>
      <trkpt lat="47.10185" lon="-0.99834">
        <ele>106.3</ele>
        <time>2022-11-11T14:50:37Z</time>
      </trkpt>
      <trkpt lat="47.10185" lon="-0.9983">
        <ele>106.3</ele>
        <time>2022-11-11T14:50:40Z</time>
      </trkpt>
      <trkpt lat="47.10185" lon="-0.99827">
        <ele>106.2</ele>
        <time>2022-11-11T14:50:42Z</time>
      </trkpt>
      <trkpt lat="47.10186" lon="-0.99822">
        <ele>106.2</ele>
        <time>2022-11-11T14:50:45Z</time>
      </trkpt>
      <trkpt lat="47.10186" lon="-0.99821">
        <ele>106.2</ele>
        <time>2022-11-11T14:50:46Z</time>
      </trkpt>
      <trkpt lat="47.10186" lon="-0.99819">
        <ele>106.2</ele>
        <time>2022-11-11T14:50:47Z</time>
      </trkpt>
      <trkpt lat="47.10186" lon="-0.99814">
        <ele>106.1</ele>
        <time>2022-11-11T14:50:50Z</time>
      </trkpt>
      <trkpt lat="47.10185" lon="-0.99809">
        <ele>106.1</ele>
        <time>2022-11-11T14:50:53Z</time>
      </trkpt>
      <trkpt lat="47.10185" lon="-0.99805">
        <ele>106.1</ele>
        <time>2022-11-11T14:50:55Z</time>
      </trkpt>
      <trkpt lat="47.10185" lon="-0.998">
        <ele>106</ele>
        <time>2022-11-11T14:50:58Z</time>
      </trkpt>
      <trkpt lat="47.10185" lon="-0.99798">
        <ele>106</ele>
        <time>2022-11-11T14:50:59Z</time>
      </trkpt>
      <trkpt lat="47.10186" lon="-0.99798">
        <ele>106</ele>
        <time>2022-11-11T14:51:00Z</time>
      </trkpt>
      <trkpt lat="47.10188" lon="-0.99796">
        <ele>106</ele>
        <time>2022-11-11T14:51:03Z</time>
      </trkpt>
      <trkpt lat="47.1019" lon="-0.99795">
        <ele>105.9</ele>
        <time>2022-11-11T14:51:05Z</time>
      </trkpt>
      <trkpt lat="47.10192" lon="-0.99793">
        <ele>105.9</ele>
        <time>2022-11-11T14:51:08Z</time>
      </trkpt>
      <trkpt lat="47.10193" lon="-0.99781">
        <ele>105.6</ele>
        <time>2022-11-11T14:51:13Z</time>
      </trkpt>
      <trkpt lat="47.10193" lon="-0.99781">
        <ele>105.6</ele>
        <time>2022-11-11T14:51:56Z</time>
      </trkpt>
      <trkpt lat="47.10191" lon="-0.99772">
        <ele>105.3</ele>
        <time>2022-11-11T14:51:57Z</time>
      </trkpt>
      <trkpt lat="47.10191" lon="-0.99771">
        <ele>105.3</ele>
        <time>2022-11-11T14:51:59Z</time>
      </trkpt>
      <trkpt lat="47.10191" lon="-0.9977">
        <ele>105.2</ele>
        <time>2022-11-11T14:52:02Z</time>
      </trkpt>
      <trkpt lat="47.10193" lon="-0.99765">
        <ele>105.2</ele>
        <time>2022-11-11T14:52:05Z</time>
      </trkpt>
      <trkpt lat="47.10194" lon="-0.99762">
        <ele>105.1</ele>
        <time>2022-11-11T14:52:07Z</time>
      </trkpt>
      <trkpt lat="47.10196" lon="-0.99758">
        <ele>105.1</ele>
        <time>2022-11-11T14:52:09Z</time>
      </trkpt>
      <trkpt lat="47.10197" lon="-0.99757">
        <ele>105.1</ele>
        <time>2022-11-11T14:52:10Z</time>
      </trkpt>
      <trkpt lat="47.10198" lon="-0.99753">
        <ele>105</ele>
        <time>2022-11-11T14:52:12Z</time>
      </trkpt>
      <trkpt lat="47.102" lon="-0.9975">
        <ele>104.9</ele>
        <time>2022-11-11T14:52:14Z</time>
      </trkpt>
      <trkpt lat="47.102" lon="-0.99748">
        <ele>104.9</ele>
        <time>2022-11-11T14:52:15Z</time>
      </trkpt>
      <trkpt lat="47.102" lon="-0.99744">
        <ele>104.8</ele>
        <time>2022-11-11T14:52:17Z</time>
      </trkpt>
      <trkpt lat="47.10201" lon="-0.99738">
        <ele>104.6</ele>
        <time>2022-11-11T14:52:20Z</time>
      </trkpt>
      <trkpt lat="47.10202" lon="-0.99732">
        <ele>104.5</ele>
        <time>2022-11-11T14:52:23Z</time>
      </trkpt>
      <trkpt lat="47.10202" lon="-0.9973">
        <ele>104.4</ele>
        <time>2022-11-11T14:52:24Z</time>
      </trkpt>
      <trkpt lat="47.10202" lon="-0.99728">
        <ele>104.4</ele>
        <time>2022-11-11T14:52:25Z</time>
      </trkpt>
      <trkpt lat="47.10203" lon="-0.99723">
        <ele>104.3</ele>
        <time>2022-11-11T14:52:28Z</time>
      </trkpt>
      <trkpt lat="47.10203" lon="-0.9972">
        <ele>104.2</ele>
        <time>2022-11-11T14:52:30Z</time>
      </trkpt>
      <trkpt lat="47.10203" lon="-0.99714">
        <ele>104</ele>
        <time>2022-11-11T14:52:33Z</time>
      </trkpt>
      <trkpt lat="47.10204" lon="-0.99711">
        <ele>103.9</ele>
        <time>2022-11-11T14:52:35Z</time>
      </trkpt>
      <trkpt lat="47.10204" lon="-0.99709">
        <ele>103.9</ele>
        <time>2022-11-11T14:52:36Z</time>
      </trkpt>
      <trkpt lat="47.10204" lon="-0.99705">
        <ele>103.8</ele>
        <time>2022-11-11T14:52:38Z</time>
      </trkpt>
      <trkpt lat="47.10204" lon="-0.997">
        <ele>103.7</ele>
        <time>2022-11-11T14:52:41Z</time>
      </trkpt>
      <trkpt lat="47.10204" lon="-0.99696">
        <ele>103.6</ele>
        <time>2022-11-11T14:52:43Z</time>
      </trkpt>
      <trkpt lat="47.10204" lon="-0.99691">
        <ele>103.4</ele>
        <time>2022-11-11T14:52:46Z</time>
      </trkpt>
      <trkpt lat="47.10204" lon="-0.99687">
        <ele>103.3</ele>
        <time>2022-11-11T14:52:48Z</time>
      </trkpt>
      <trkpt lat="47.10204" lon="-0.99683">
        <ele>103.2</ele>
        <time>2022-11-11T14:52:51Z</time>
      </trkpt>
      <trkpt lat="47.10204" lon="-0.99679">
        <ele>103.1</ele>
        <time>2022-11-11T14:52:53Z</time>
      </trkpt>
      <trkpt lat="47.10204" lon="-0.99674">
        <ele>103</ele>
        <time>2022-11-11T14:52:56Z</time>
      </trkpt>
      <trkpt lat="47.10204" lon="-0.99669">
        <ele>102.8</ele>
        <time>2022-11-11T14:52:59Z</time>
      </trkpt>
      <trkpt lat="47.10204" lon="-0.99666">
        <ele>102.8</ele>
        <time>2022-11-11T14:53:01Z</time>
      </trkpt>
      <trkpt lat="47.10204" lon="-0.99661">
        <ele>102.6</ele>
        <time>2022-11-11T14:53:04Z</time>
      </trkpt>
      <trkpt lat="47.10204" lon="-0.99658">
        <ele>102.5</ele>
        <time>2022-11-11T14:53:06Z</time>
      </trkpt>
      <trkpt lat="47.10204" lon="-0.99653">
        <ele>102.4</ele>
        <time>2022-11-11T14:53:09Z</time>
      </trkpt>
      <trkpt lat="47.10204" lon="-0.9965">
        <ele>102.3</ele>
        <time>2022-11-11T14:53:11Z</time>
      </trkpt>
      <trkpt lat="47.10204" lon="-0.99645">
        <ele>102.2</ele>
        <time>2022-11-11T14:53:14Z</time>
      </trkpt>
      <trkpt lat="47.10204" lon="-0.99643">
        <ele>102.1</ele>
        <time>2022-11-11T14:53:15Z</time>
      </trkpt>
      <trkpt lat="47.10204" lon="-0.9964">
        <ele>102</ele>
        <time>2022-11-11T14:53:17Z</time>
      </trkpt>
      <trkpt lat="47.10204" lon="-0.99636">
        <ele>102</ele>
        <time>2022-11-11T14:53:19Z</time>
      </trkpt>
      <trkpt lat="47.10204" lon="-0.99631">
        <ele>101.9</ele>
        <time>2022-11-11T14:53:22Z</time>
      </trkpt>
      <trkpt lat="47.10204" lon="-0.99628">
        <ele>101.8</ele>
        <time>2022-11-11T14:53:24Z</time>
      </trkpt>
      <trkpt lat="47.10204" lon="-0.99624">
        <ele>101.7</ele>
        <time>2022-11-11T14:53:26Z</time>
      </trkpt>
      <trkpt lat="47.10204" lon="-0.99623">
        <ele>101.7</ele>
        <time>2022-11-11T14:53:27Z</time>
      </trkpt>
      <trkpt lat="47.10204" lon="-0.99619">
        <ele>101.6</ele>
        <time>2022-11-11T14:53:29Z</time>
      </trkpt>
      <trkpt lat="47.10204" lon="-0.99614">
        <ele>101.5</ele>
        <time>2022-11-11T14:53:32Z</time>
      </trkpt>
      <trkpt lat="47.10204" lon="-0.99609">
        <ele>101.4</ele>
        <time>2022-11-11T14:53:35Z</time>
      </trkpt>
      <trkpt lat="47.10204" lon="-0.99606">
        <ele>101.3</ele>
        <time>2022-11-11T14:53:37Z</time>
      </trkpt>
      <trkpt lat="47.10204" lon="-0.99604">
        <ele>101.2</ele>
        <time>2022-11-11T14:53:38Z</time>
      </trkpt>
      <trkpt lat="47.10203" lon="-0.99601">
        <ele>101.2</ele>
        <time>2022-11-11T14:53:40Z</time>
      </trkpt>
      <trkpt lat="47.10203" lon="-0.99597">
        <ele>101.1</ele>
        <time>2022-11-11T14:53:42Z</time>
      </trkpt>
      <trkpt lat="47.10203" lon="-0.99593">
        <ele>101</ele>
        <time>2022-11-11T14:53:45Z</time>
      </trkpt>
      <trkpt lat="47.10202" lon="-0.99588">
        <ele>100.9</ele>
        <time>2022-11-11T14:53:48Z</time>
      </trkpt>
      <trkpt lat="47.10202" lon="-0.99584">
        <ele>100.8</ele>
        <time>2022-11-11T14:53:50Z</time>
      </trkpt>
      <trkpt lat="47.10201" lon="-0.99583">
        <ele>100.8</ele>
        <time>2022-11-11T14:53:51Z</time>
      </trkpt>
      <trkpt lat="47.102" lon="-0.9958">
        <ele>100.7</ele>
        <time>2022-11-11T14:53:53Z</time>
      </trkpt>
      <trkpt lat="47.10198" lon="-0.99578">
        <ele>100.6</ele>
        <time>2022-11-11T14:53:55Z</time>
      </trkpt>
      <trkpt lat="47.10196" lon="-0.99574">
        <ele>100.5</ele>
        <time>2022-11-11T14:53:58Z</time>
      </trkpt>
      <trkpt lat="47.10194" lon="-0.99572">
        <ele>100.4</ele>
        <time>2022-11-11T14:54:00Z</time>
      </trkpt>
      <trkpt lat="47.10192" lon="-0.99568">
        <ele>100.3</ele>
        <time>2022-11-11T14:54:03Z</time>
      </trkpt>
      <trkpt lat="47.1019" lon="-0.99564">
        <ele>100.2</ele>
        <time>2022-11-11T14:54:06Z</time>
      </trkpt>
      <trkpt lat="47.10189" lon="-0.9956">
        <ele>100.1</ele>
        <time>2022-11-11T14:54:08Z</time>
      </trkpt>
      <trkpt lat="47.10188" lon="-0.99556">
        <ele>100</ele>
        <time>2022-11-11T14:54:11Z</time>
      </trkpt>
      <trkpt lat="47.10187" lon="-0.99552">
        <ele>99.9</ele>
        <time>2022-11-11T14:54:13Z</time>
      </trkpt>
      <trkpt lat="47.10185" lon="-0.99548">
        <ele>99.8</ele>
        <time>2022-11-11T14:54:16Z</time>
      </trkpt>
      <trkpt lat="47.10184" lon="-0.99545">
        <ele>99.7</ele>
        <time>2022-11-11T14:54:18Z</time>
      </trkpt>
      <trkpt lat="47.10183" lon="-0.99541">
        <ele>99.6</ele>
        <time>2022-11-11T14:54:21Z</time>
      </trkpt>
      <trkpt lat="47.10181" lon="-0.99536">
        <ele>99.5</ele>
        <time>2022-11-11T14:54:24Z</time>
      </trkpt>
      <trkpt lat="47.1018" lon="-0.99534">
        <ele>99.4</ele>
        <time>2022-11-11T14:54:26Z</time>
      </trkpt>
      <trkpt lat="47.10178" lon="-0.9953">
        <ele>99.3</ele>
        <time>2022-11-11T14:54:29Z</time>
      </trkpt>
      <trkpt lat="47.10178" lon="-0.99528">
        <ele>99.3</ele>
        <time>2022-11-11T14:54:30Z</time>
      </trkpt>
      <trkpt lat="47.10177" lon="-0.99527">
        <ele>99.2</ele>
        <time>2022-11-11T14:54:31Z</time>
      </trkpt>
      <trkpt lat="47.10176" lon="-0.99523">
        <ele>99.1</ele>
        <time>2022-11-11T14:54:34Z</time>
      </trkpt>
      <trkpt lat="47.10175" lon="-0.9952">
        <ele>99</ele>
        <time>2022-11-11T14:54:36Z</time>
      </trkpt>
      <trkpt lat="47.10173" lon="-0.99516">
        <ele>98.9</ele>
        <time>2022-11-11T14:54:39Z</time>
      </trkpt>
      <trkpt lat="47.10172" lon="-0.99512">
        <ele>98.8</ele>
        <time>2022-11-11T14:54:42Z</time>
      </trkpt>
      <trkpt lat="47.10171" lon="-0.99511">
        <ele>98.8</ele>
        <time>2022-11-11T14:54:43Z</time>
      </trkpt>
      <trkpt lat="47.10171" lon="-0.99509">
        <ele>98.8</ele>
        <time>2022-11-11T14:54:44Z</time>
      </trkpt>
      <trkpt lat="47.10169" lon="-0.99505">
        <ele>98.7</ele>
        <time>2022-11-11T14:54:47Z</time>
      </trkpt>
      <trkpt lat="47.10168" lon="-0.99502">
        <ele>98.6</ele>
        <time>2022-11-11T14:54:49Z</time>
      </trkpt>
      <trkpt lat="47.10167" lon="-0.99498">
        <ele>98.5</ele>
        <time>2022-11-11T14:54:52Z</time>
      </trkpt>
      <trkpt lat="47.10166" lon="-0.99495">
        <ele>98.5</ele>
        <time>2022-11-11T14:54:54Z</time>
      </trkpt>
      <trkpt lat="47.10164" lon="-0.99493">
        <ele>98.4</ele>
        <time>2022-11-11T14:54:56Z</time>
      </trkpt>
      <trkpt lat="47.10164" lon="-0.99491">
        <ele>98.4</ele>
        <time>2022-11-11T14:54:57Z</time>
      </trkpt>
      <trkpt lat="47.10163" lon="-0.99487">
        <ele>98.3</ele>
        <time>2022-11-11T14:55:00Z</time>
      </trkpt>
      <trkpt lat="47.10163" lon="-0.99484">
        <ele>98.2</ele>
        <time>2022-11-11T14:55:02Z</time>
      </trkpt>
      <trkpt lat="47.10162" lon="-0.9948">
        <ele>98.1</ele>
        <time>2022-11-11T14:55:05Z</time>
      </trkpt>
      <trkpt lat="47.10161" lon="-0.99477">
        <ele>98.1</ele>
        <time>2022-11-11T14:55:07Z</time>
      </trkpt>
      <trkpt lat="47.1016" lon="-0.99473">
        <ele>98</ele>
        <time>2022-11-11T14:55:10Z</time>
      </trkpt>
      <trkpt lat="47.1016" lon="-0.9947">
        <ele>97.9</ele>
        <time>2022-11-11T14:55:12Z</time>
      </trkpt>
      <trkpt lat="47.10159" lon="-0.99466">
        <ele>97.8</ele>
        <time>2022-11-11T14:55:15Z</time>
      </trkpt>
      <trkpt lat="47.10159" lon="-0.99461">
        <ele>97.7</ele>
        <time>2022-11-11T14:55:18Z</time>
      </trkpt>
      <trkpt lat="47.10158" lon="-0.99458">
        <ele>97.6</ele>
        <time>2022-11-11T14:55:20Z</time>
      </trkpt>
      <trkpt lat="47.10158" lon="-0.99453">
        <ele>97.5</ele>
        <time>2022-11-11T14:55:23Z</time>
      </trkpt>
      <trkpt lat="47.10158" lon="-0.9945">
        <ele>97.5</ele>
        <time>2022-11-11T14:55:25Z</time>
      </trkpt>
      <trkpt lat="47.10157" lon="-0.99446">
        <ele>97.4</ele>
        <time>2022-11-11T14:55:28Z</time>
      </trkpt>
      <trkpt lat="47.10157" lon="-0.99443">
        <ele>97.3</ele>
        <time>2022-11-11T14:55:30Z</time>
      </trkpt>
      <trkpt lat="47.10157" lon="-0.99439">
        <ele>97.2</ele>
        <time>2022-11-11T14:55:33Z</time>
      </trkpt>
      <trkpt lat="47.10157" lon="-0.99435">
        <ele>97.1</ele>
        <time>2022-11-11T14:55:36Z</time>
      </trkpt>
      <trkpt lat="47.10156" lon="-0.99432">
        <ele>97.1</ele>
        <time>2022-11-11T14:55:38Z</time>
      </trkpt>
      <trkpt lat="47.10157" lon="-0.99427">
        <ele>97</ele>
        <time>2022-11-11T14:55:41Z</time>
      </trkpt>
      <trkpt lat="47.10158" lon="-0.99424">
        <ele>96.9</ele>
        <time>2022-11-11T14:55:43Z</time>
      </trkpt>
      <trkpt lat="47.10158" lon="-0.99419">
        <ele>96.8</ele>
        <time>2022-11-11T14:55:46Z</time>
      </trkpt>
      <trkpt lat="47.10159" lon="-0.99416">
        <ele>96.8</ele>
        <time>2022-11-11T14:55:48Z</time>
      </trkpt>
      <trkpt lat="47.10159" lon="-0.99412">
        <ele>96.7</ele>
        <time>2022-11-11T14:55:50Z</time>
      </trkpt>
      <trkpt lat="47.10159" lon="-0.99411">
        <ele>96.7</ele>
        <time>2022-11-11T14:55:51Z</time>
      </trkpt>
      <trkpt lat="47.10159" lon="-0.99407">
        <ele>96.7</ele>
        <time>2022-11-11T14:55:54Z</time>
      </trkpt>
    </trkseg>
  </trk>
</gpx>